Darstellungsparameter: Aktuell verwendete Einstellungen:
Skalierung der Graphiken ... ?
xyx+y,   Skalierungsfaktor:      Skalierung: Modus: x, Faktor: 1
Darstellungszeitraum ... ?
Vom - - bis: - -   Zeitraum: 24.03.2015 - 21.04.2015
Min/Max/Avg-Anzeige ... ?
Zeige MMA aktuell
Zeige MMA Monat
Zeige MMA alles
Zeige --A aktuell
Zeige --A Monat
Zeige --A alles
Keine MMA-Anzeige
MMA:
Keine MMA-Graphiken
MMA-Basis: 24.03.2015 - 21.04.2015
Quicknavigation für Darstellung... ?
Tage:      1T, 2T, 3T, 5T -1T -2T -3T -5T +1T +2T +3T +5T
Wochen: 1W, 2W, 3W -1W -2W -3W +1W +2W +3W
Monate: 1M, 3M, 6M -1M -3M -6M +1M +3M +6M
Jahre:    1J, 3J, 5J, 10J -1J -3J -5J -10J +1J +3J +5J +10J
Nutze für die Darstellung ... ?
Originaldaten oder Mittelwerte auf ...
Stundenbasis Tagesbasis Wochenbasis
Monatsbasis Jahresbasis      Datenbasis: Original-Daten
Darstellen als:
Statistik (Auto) Statistik J:M      Darstellung:
Zur Graphik,    zurück zur Übersicht aller Sensoren.
 
Tabellarische Datenbersicht: ?
 
Sensor: Nr:Datum:Temp:Feuchte:
Aussen-T/F 1 24-03-2015 00:07:17 1.1 C 87 %
2 24-03-2015 00:19:17 1.1 C 88 %
3 24-03-2015 00:31:17 0.8 C 88 %
4 24-03-2015 00:43:17 0.9 C 89 %
5 24-03-2015 00:55:17 1.1 C 89 %
6 24-03-2015 01:07:17 0.7 C 89 %
7 24-03-2015 01:19:17 0.6 C 89 %
8 24-03-2015 01:31:17 1 C 90 %
9 24-03-2015 01:43:17 1.4 C 91 %
10 24-03-2015 01:55:17 1.5 C 91 %
11 24-03-2015 02:07:17 1.2 C 90 %
12 24-03-2015 02:19:17 1 C 90 %
13 24-03-2015 02:31:17 0.9 C 91 %
14 24-03-2015 02:43:17 1 C 91 %
15 24-03-2015 02:55:17 1.5 C 91 %
16 24-03-2015 03:07:17 1.8 C 92 %
17 24-03-2015 03:19:17 2 C 91 %
18 24-03-2015 03:31:17 2.2 C 91 %
19 24-03-2015 03:43:17 2.3 C 90 %
20 24-03-2015 03:55:17 2.4 C 90 %
21 24-03-2015 04:07:17 2.5 C 89 %
22 24-03-2015 04:19:17 2.6 C 88 %
23 24-03-2015 04:31:17 2.7 C 87 %
24 24-03-2015 04:43:17 2.6 C 87 %
25 24-03-2015 04:55:17 2.6 C 86 %
Sensor: Nr:Datum:Temp:Feuchte:
Aussen-T/F 26 24-03-2015 05:07:17 2.7 C 86 %
27 24-03-2015 05:19:17 2.7 C 86 %
28 24-03-2015 05:31:17 2.7 C 86 %
29 24-03-2015 05:43:17 2.8 C 86 %
30 24-03-2015 05:55:17 2.8 C 85 %
31 24-03-2015 06:07:17 2.7 C 85 %
32 24-03-2015 06:19:17 2.6 C 85 %
33 24-03-2015 06:31:17 2.5 C 85 %
34 24-03-2015 06:43:17 2.5 C 85 %
35 24-03-2015 06:55:17 2.6 C 85 %
36 24-03-2015 07:07:17 2.7 C 86 %
37 24-03-2015 07:19:17 3 C 85 %
38 24-03-2015 07:31:17 3.1 C 84 %
39 24-03-2015 07:43:17 3.4 C 83 %
40 24-03-2015 07:55:17 3.5 C 82 %
41 24-03-2015 08:07:17 3.7 C 81 %
42 24-03-2015 08:19:17 4 C 79 %
43 24-03-2015 08:31:17 4.2 C 78 %
44 24-03-2015 08:43:17 4.2 C 76 %
45 24-03-2015 08:55:17 4.5 C 75 %
46 24-03-2015 09:07:17 4.7 C 74 %
47 24-03-2015 09:19:17 4.9 C 74 %
48 24-03-2015 09:31:17 4.9 C 73 %
49 24-03-2015 09:43:17 4.9 C 74 %
50 24-03-2015 09:55:17 5.1 C 72 %
Sensor: Nr:Datum:Temp:Feuchte:
Aussen-T/F 51 24-03-2015 10:07:17 5.4 C 72 %
52 24-03-2015 10:19:17 6 C 69 %
53 24-03-2015 10:31:17 6.6 C 68 %
54 24-03-2015 10:43:17 6.8 C 66 %
55 24-03-2015 10:55:17 6.8 C 66 %
56 24-03-2015 11:07:17 7 C 65 %
57 24-03-2015 11:19:17 7.1 C 65 %
58 24-03-2015 11:31:17 7.5 C 63 %
59 24-03-2015 11:43:17 8.4 C 62 %
60 24-03-2015 11:55:17 8.7 C 60 %
61 24-03-2015 12:07:17 9.7 C 58 %
62 24-03-2015 12:19:17 9.8 C 56 %
63 24-03-2015 12:31:17 10.1 C 55 %
64 24-03-2015 12:43:17 11 C 54 %
65 24-03-2015 12:55:17 11.2 C 51 %
66 24-03-2015 13:07:17 11.6 C 50 %
67 24-03-2015 13:19:18 12 C 47 %
68 24-03-2015 13:31:17 12.7 C 46 %
69 24-03-2015 13:43:17 12.8 C 43 %
70 24-03-2015 13:55:17 13.3 C 39 %
71 24-03-2015 14:07:17 13.1 C 38 %
72 24-03-2015 14:19:17 13.2 C 38 %
73 24-03-2015 14:31:17 13.4 C 37 %
74 24-03-2015 14:43:17 13.6 C 38 %
75 24-03-2015 14:55:17 13.4 C 38 %
Sensor: Nr:Datum:Temp:Feuchte:
Aussen-T/F 76 24-03-2015 15:07:17 14.2 C 38 %
77 24-03-2015 15:19:17 14.9 C 35 %
78 24-03-2015 15:31:17 14.4 C 36 %
79 24-03-2015 15:43:17 14.3 C 36 %
80 24-03-2015 15:55:17 14.5 C 36 %
81 24-03-2015 16:07:17 13.9 C 36 %
82 24-03-2015 16:19:17 15.2 C 35 %
83 24-03-2015 16:31:17 14.8 C 35 %
84 24-03-2015 16:43:17 15.1 C 35 %
85 24-03-2015 16:55:17 16.8 C 33 %
86 24-03-2015 17:07:17 16.6 C 32 %
87 24-03-2015 17:19:16 14.3 C 35 %
88 24-03-2015 17:31:17 13.2 C 44 %
89 24-03-2015 17:43:17 13 C 44 %
90 24-03-2015 17:55:17 12.3 C 49 %
91 24-03-2015 18:07:17 11.6 C 52 %
92 24-03-2015 18:19:17 11.2 C 53 %
93 24-03-2015 18:31:17 10.7 C 55 %
94 24-03-2015 18:43:17 10.4 C 55 %
95 24-03-2015 18:55:17 10.4 C 55 %
96 24-03-2015 19:07:17 10.3 C 55 %
97 24-03-2015 19:19:17 10 C 55 %
98 24-03-2015 19:31:17 9.5 C 57 %
99 24-03-2015 19:43:17 8.7 C 60 %
100 24-03-2015 19:55:17 8.2 C 62 %
Sensor: Nr:Datum:Temp:Feuchte:
Aussen-T/F 101 24-03-2015 20:07:17 8.1 C 65 %
102 24-03-2015 20:19:17 8 C 66 %
103 24-03-2015 20:31:17 8.1 C 66 %
104 24-03-2015 20:43:17 7.6 C 67 %
105 24-03-2015 20:55:17 7.2 C 68 %
106 24-03-2015 21:07:17 7.3 C 69 %
107 24-03-2015 21:19:17 7.1 C 69 %
108 24-03-2015 21:31:17 6.6 C 71 %
109 24-03-2015 21:43:17 6.3 C 72 %
110 24-03-2015 21:55:17 6.2 C 74 %
111 24-03-2015 22:07:17 6.2 C 74 %
112 24-03-2015 22:19:17 5.9 C 75 %
113 24-03-2015 22:31:17 5.8 C 76 %
114 24-03-2015 22:43:17 6.1 C 77 %
115 24-03-2015 22:55:17 6.3 C 78 %
116 24-03-2015 23:07:17 6.5 C 78 %
117 24-03-2015 23:19:17 6.4 C 76 %
118 24-03-2015 23:31:17 6 C 76 %
119 24-03-2015 23:43:17 5.7 C 77 %
120 24-03-2015 23:55:17 5.6 C 78 %
121 25-03-2015 00:07:17 5.2 C 78 %
122 25-03-2015 00:19:17 5.2 C 79 %
123 25-03-2015 00:31:17 5.1 C 79 %
124 25-03-2015 00:43:17 4.7 C 80 %
125 25-03-2015 00:55:17 4.3 C 81 %
Sensor: Nr:Datum:Temp:Feuchte:
Aussen-T/F 126 25-03-2015 01:07:17 4.5 C 83 %
127 25-03-2015 01:19:17 4.5 C 83 %
128 25-03-2015 01:31:17 4.5 C 83 %
129 25-03-2015 01:43:17 4.8 C 84 %
130 25-03-2015 01:55:17 4.5 C 83 %
131 25-03-2015 02:07:17 4.4 C 83 %
132 25-03-2015 02:19:17 4.5 C 84 %
133 25-03-2015 02:31:17 4.6 C 85 %
134 25-03-2015 02:43:17 5 C 84 %
135 25-03-2015 02:55:17 5.6 C 83 %
136 25-03-2015 03:07:17 5.7 C 82 %
137 25-03-2015 03:19:17 5.6 C 80 %
138 25-03-2015 03:31:17 5.6 C 80 %
139 25-03-2015 03:43:17 5.6 C 80 %
140 25-03-2015 03:55:17 5.6 C 80 %
141 25-03-2015 04:07:17 5.3 C 80 %
142 25-03-2015 04:19:17 5 C 80 %
143 25-03-2015 04:31:17 4.7 C 81 %
144 25-03-2015 04:43:17 4.6 C 82 %
145 25-03-2015 04:55:17 5 C 82 %
146 25-03-2015 05:07:17 5 C 83 %
147 25-03-2015 05:19:17 5.1 C 83 %
148 25-03-2015 05:31:17 5.1 C 83 %
149 25-03-2015 05:43:17 4.8 C 84 %
150 25-03-2015 05:55:17 4.6 C 84 %
Sensor: Nr:Datum:Temp:Feuchte:
Aussen-T/F 151 25-03-2015 06:07:17 4.7 C 84 %
152 25-03-2015 06:19:17 4.2 C 83 %
153 25-03-2015 06:31:17 4.1 C 84 %
154 25-03-2015 06:43:17 4.2 C 85 %
155 25-03-2015 06:55:17 4.5 C 86 %
156 25-03-2015 07:07:17 4.7 C 86 %
157 25-03-2015 07:19:17 5.1 C 86 %
158 25-03-2015 07:31:17 5.6 C 85 %
159 25-03-2015 07:43:17 5.9 C 84 %
160 25-03-2015 07:55:17 6.4 C 80 %
161 25-03-2015 08:07:16 6.5 C 77 %
162 25-03-2015 08:19:17 6.6 C 75 %
163 25-03-2015 08:31:17 6.8 C 75 %
164 25-03-2015 08:43:17 6.9 C 74 %
165 25-03-2015 08:55:17 7 C 74 %
166 25-03-2015 09:07:17 7.9 C 71 %
167 25-03-2015 09:19:17 8.4 C 67 %
168 25-03-2015 09:31:17 8.9 C 65 %
169 25-03-2015 09:43:17 9.1 C 66 %
170 25-03-2015 09:55:17 10.1 C 61 %
171 25-03-2015 10:07:17 10.5 C 57 %
172 25-03-2015 10:19:17 10.6 C 57 %
173 25-03-2015 10:31:17 10.8 C 57 %
174 25-03-2015 10:43:17 11.2 C 56 %
175 25-03-2015 10:55:17 11.4 C 55 %
Sensor: Nr:Datum:Temp:Feuchte:
Aussen-T/F 176 25-03-2015 11:07:17 12.1 C 54 %
177 25-03-2015 11:19:17 11.7 C 55 %
178 25-03-2015 11:31:17 11.6 C 54 %
179 25-03-2015 11:43:17 11.8 C 55 %
180 25-03-2015 11:55:17 11.9 C 56 %
181 25-03-2015 12:07:17 12 C 54 %
182 25-03-2015 12:19:17 12.3 C 53 %
183 25-03-2015 12:31:17 12.1 C 53 %
184 25-03-2015 12:43:17 12.2 C 55 %
185 25-03-2015 12:55:17 12.1 C 54 %
186 25-03-2015 13:07:17 12 C 54 %
187 25-03-2015 13:19:17 11.9 C 55 %
188 25-03-2015 13:31:17 12.5 C 54 %
189 25-03-2015 13:43:17 12.1 C 53 %
190 25-03-2015 13:55:17 11.5 C 55 %
191 25-03-2015 14:07:17 11.2 C 56 %
192 25-03-2015 14:19:17 11.1 C 56 %
193 25-03-2015 14:31:17 10.2 C 57 %
194 25-03-2015 14:43:17 10.1 C 58 %
195 25-03-2015 14:55:17 9.8 C 59 %
196 25-03-2015 15:07:17 9.6 C 60 %
197 25-03-2015 15:19:17 9.5 C 59 %
198 25-03-2015 15:31:16 9.3 C 59 %
199 25-03-2015 15:43:17 9.6 C 60 %
200 25-03-2015 15:55:17 9.2 C 59 %
Sensor: Nr:Datum:Temp:Feuchte:
Aussen-T/F 201 25-03-2015 16:07:17 8.8 C 60 %
202 25-03-2015 16:19:16 8.5 C 61 %
203 25-03-2015 16:31:17 8.3 C 61 %
204 25-03-2015 16:43:17 8 C 62 %
205 25-03-2015 16:55:17 7.9 C 63 %
206 25-03-2015 17:07:17 7.8 C 64 %
207 25-03-2015 17:19:17 7.8 C 64 %
208 25-03-2015 17:31:17 7.7 C 64 %
209 25-03-2015 17:43:17 7.5 C 65 %
210 25-03-2015 17:55:17 7.5 C 65 %
211 25-03-2015 18:07:17 7.4 C 65 %
212 25-03-2015 18:19:17 7.4 C 65 %
213 25-03-2015 18:31:17 7.4 C 65 %
214 25-03-2015 18:43:17 7.4 C 66 %
215 25-03-2015 18:55:17 7.2 C 66 %
216 25-03-2015 19:07:17 7.2 C 66 %
217 25-03-2015 19:19:17 7.2 C 66 %
218 25-03-2015 19:31:17 7.1 C 66 %
219 25-03-2015 19:43:17 7 C 67 %
220 25-03-2015 19:55:17 6.9 C 68 %
221 25-03-2015 20:07:17 6.9 C 68 %
222 25-03-2015 20:19:17 6.9 C 68 %
223 25-03-2015 20:31:17 6.8 C 68 %
224 25-03-2015 20:43:17 6.8 C 68 %
225 25-03-2015 20:55:17 6.7 C 69 %
Sensor: Nr:Datum:Temp:Feuchte:
Aussen-T/F 226 25-03-2015 21:07:17 6.8 C 69 %
227 25-03-2015 21:19:17 6.7 C 69 %
228 25-03-2015 21:31:17 6.7 C 69 %
229 25-03-2015 21:43:17 6.6 C 69 %
230 25-03-2015 21:55:18 6.5 C 69 %
231 25-03-2015 22:07:17 6.5 C 70 %
232 25-03-2015 22:19:17 6.4 C 71 %
233 25-03-2015 22:31:17 6.4 C 71 %
234 25-03-2015 22:43:17 6.4 C 72 %
235 25-03-2015 22:55:17 6.4 C 72 %
236 25-03-2015 23:07:17 6.5 C 72 %
237 25-03-2015 23:19:17 6.5 C 71 %
238 25-03-2015 23:31:17 6.5 C 71 %
239 25-03-2015 23:43:17 6.5 C 70 %
240 25-03-2015 23:55:17 6.5 C 70 %
241 26-03-2015 00:07:17 6.4 C 71 %
242 26-03-2015 00:19:17 6.4 C 71 %
243 26-03-2015 00:31:17 6.4 C 71 %
244 26-03-2015 00:43:17 6.4 C 71 %
245 26-03-2015 00:55:17 6.4 C 72 %
246 26-03-2015 01:07:17 6.4 C 72 %
247 26-03-2015 01:19:17 6.4 C 73 %
248 26-03-2015 01:31:17 6.4 C 73 %
249 26-03-2015 01:43:17 6.3 C 74 %
250 26-03-2015 01:55:17 6.2 C 75 %
Sensor: Nr:Datum:Temp:Feuchte:
Aussen-T/F 251 26-03-2015 02:07:17 6.2 C 76 %
252 26-03-2015 02:19:17 6.1 C 77 %
253 26-03-2015 02:31:17 6.1 C 78 %
254 26-03-2015 02:43:17 6 C 78 %
255 26-03-2015 02:55:17 6 C 79 %
256 26-03-2015 03:07:17 6 C 79 %
257 26-03-2015 03:19:17 6 C 79 %
258 26-03-2015 03:31:17 6 C 79 %
259 26-03-2015 03:43:17 6 C 78 %
260 26-03-2015 03:55:17 6 C 78 %
261 26-03-2015 04:07:17 6 C 78 %
262 26-03-2015 04:19:17 6 C 77 %
263 26-03-2015 04:31:17 5.8 C 78 %
264 26-03-2015 04:43:17 5.7 C 79 %
265 26-03-2015 04:55:17 5.5 C 79 %
266 26-03-2015 05:07:17 5.4 C 78 %
267 26-03-2015 05:19:17 5.3 C 76 %
268 26-03-2015 05:31:17 5.3 C 75 %
269 26-03-2015 05:43:17 5.3 C 73 %
270 26-03-2015 05:55:17 5.2 C 73 %
271 26-03-2015 06:07:17 5.2 C 73 %
272 26-03-2015 06:19:17 5.2 C 73 %
273 26-03-2015 06:31:17 5.3 C 73 %
274 26-03-2015 06:43:17 5.3 C 73 %
275 26-03-2015 06:55:17 5.3 C 72 %
Sensor: Nr:Datum:Temp:Feuchte:
Aussen-T/F 276 26-03-2015 07:07:17 5.4 C 72 %
277 26-03-2015 07:19:17 5.4 C 72 %
278 26-03-2015 07:31:17 5.4 C 70 %
279 26-03-2015 07:43:17 5.4 C 69 %
280 26-03-2015 07:55:17 5.5 C 69 %
281 26-03-2015 08:07:17 5.6 C 69 %
282 26-03-2015 08:19:17 5.7 C 67 %
283 26-03-2015 08:31:17 5.8 C 66 %
284 26-03-2015 08:43:17 5.9 C 66 %
285 26-03-2015 08:55:17 5.9 C 65 %
286 26-03-2015 09:07:17 5.9 C 65 %
287 26-03-2015 09:19:17 5.9 C 65 %
288 26-03-2015 09:31:17 6 C 64 %
289 26-03-2015 09:43:17 6.3 C 63 %
290 26-03-2015 09:55:17 6.7 C 61 %
291 26-03-2015 10:07:17 6.6 C 61 %
292 26-03-2015 10:19:17 6.7 C 60 %
293 26-03-2015 10:31:17 6.9 C 60 %
294 26-03-2015 10:43:17 7.1 C 57 %
295 26-03-2015 10:55:17 7.4 C 55 %
296 26-03-2015 11:07:17 8 C 53 %
297 26-03-2015 11:19:17 8 C 51 %
298 26-03-2015 11:31:17 8.7 C 52 %
299 26-03-2015 11:43:17 8.9 C 51 %
300 26-03-2015 11:55:16 8.6 C 50 %
Sensor: Nr:Datum:Temp:Feuchte:
Aussen-T/F 301 26-03-2015 12:07:17 9 C 49 %
302 26-03-2015 12:19:17 9.1 C 46 %
303 26-03-2015 12:31:17 9.2 C 47 %
304 26-03-2015 12:43:17 9.9 C 45 %
305 26-03-2015 12:55:17 10.1 C 40 %
306 26-03-2015 13:07:17 10.7 C 40 %
307 26-03-2015 13:19:17 10.8 C 38 %
308 26-03-2015 13:31:17 11.2 C 36 %
309 26-03-2015 13:43:17 11.2 C 34 %
310 26-03-2015 13:55:17 11.9 C 35 %
311 26-03-2015 14:07:17 11.6 C 32 %
312 26-03-2015 14:19:17 11.8 C 32 %
313 26-03-2015 14:31:17 12.3 C 30 %
314 26-03-2015 14:43:17 12.6 C 30 %
315 26-03-2015 14:55:17 12.2 C 28 %
316 26-03-2015 15:07:17 11.8 C 31 %
317 26-03-2015 15:19:17 11.8 C 30 %
318 26-03-2015 15:31:17 11.6 C 30 %
319 26-03-2015 15:43:17 11.4 C 30 %
320 26-03-2015 15:55:17 10.9 C 31 %
321 26-03-2015 16:07:17 10.5 C 30 %
322 26-03-2015 16:19:17 10.1 C 31 %
323 26-03-2015 16:31:17 9.5 C 32 %
324 26-03-2015 16:43:17 8.7 C 38 %
325 26-03-2015 16:55:17 7.3 C 49 %
Sensor: Nr:Datum:Temp:Feuchte:
Aussen-T/F 326 26-03-2015 17:07:17 6.4 C 56 %
327 26-03-2015 17:19:17 5.8 C 66 %
328 26-03-2015 17:31:17 5.4 C 71 %
329 26-03-2015 17:43:17 5.1 C 74 %
330 26-03-2015 17:55:17 5 C 76 %
331 26-03-2015 18:07:17 4.9 C 79 %
332 26-03-2015 18:19:17 4.9 C 81 %
333 26-03-2015 18:31:17 5 C 82 %
334 26-03-2015 18:43:17 5 C 83 %
335 26-03-2015 18:55:17 4.9 C 83 %
336 26-03-2015 19:07:17 4.9 C 82 %
337 26-03-2015 19:19:17 5 C 78 %
338 26-03-2015 19:31:17 5.2 C 76 %
339 26-03-2015 19:43:17 5.1 C 77 %
340 26-03-2015 19:55:17 5.2 C 77 %
341 26-03-2015 20:07:17 5.1 C 77 %
342 26-03-2015 20:19:17 5.1 C 77 %
343 26-03-2015 20:31:17 5.3 C 75 %
344 26-03-2015 20:43:17 5.4 C 74 %
345 26-03-2015 20:55:17 5.6 C 73 %
346 26-03-2015 21:07:17 5.5 C 73 %
347 26-03-2015 21:19:17 5.7 C 71 %
348 26-03-2015 21:31:17 5.7 C 71 %
349 26-03-2015 21:43:17 5.6 C 71 %
350 26-03-2015 21:55:17 5.6 C 72 %
Sensor: Nr:Datum:Temp:Feuchte:
Aussen-T/F 351 26-03-2015 22:07:18 5.6 C 73 %
352 26-03-2015 22:19:17 5.7 C 73 %
353 26-03-2015 22:31:17 5.8 C 73 %
354 26-03-2015 22:43:18 5.8 C 74 %
355 26-03-2015 22:55:17 5.8 C 74 %
356 26-03-2015 23:07:17 5.8 C 74 %
357 26-03-2015 23:19:17 5.8 C 75 %
358 26-03-2015 23:31:17 5.7 C 77 %
359 26-03-2015 23:43:17 5.8 C 77 %
360 26-03-2015 23:55:17 5.9 C 77 %
361 27-03-2015 00:07:17 5.9 C 77 %
362 27-03-2015 00:19:17 5.9 C 77 %
363 27-03-2015 00:31:17 6 C 76 %
364 27-03-2015 00:43:17 6.1 C 74 %
365 27-03-2015 00:55:17 6.2 C 74 %
366 27-03-2015 01:07:17 5.9 C 78 %
367 27-03-2015 01:19:17 6 C 79 %
368 27-03-2015 01:31:17 6 C 78 %
369 27-03-2015 01:43:17 5.9 C 80 %
370 27-03-2015 01:55:17 5.7 C 80 %
371 27-03-2015 02:07:17 5.9 C 80 %
372 27-03-2015 02:19:17 5.8 C 79 %
373 27-03-2015 02:31:17 5.7 C 80 %
374 27-03-2015 02:43:17 5.6 C 80 %
375 27-03-2015 02:55:17 5.7 C 81 %
Sensor: Nr:Datum:Temp:Feuchte:
Aussen-T/F 376 27-03-2015 03:07:17 5.1 C 81 %
377 27-03-2015 03:19:17 4.6 C 83 %
378 27-03-2015 03:31:17 4.6 C 84 %
379 27-03-2015 03:43:17 4.1 C 84 %
380 27-03-2015 03:55:17 4.3 C 86 %
381 27-03-2015 04:07:17 4.4 C 85 %
382 27-03-2015 04:19:17 3.9 C 85 %
383 27-03-2015 04:31:17 3.8 C 85 %
384 27-03-2015 04:43:17 3.5 C 85 %
385 27-03-2015 04:55:17 3.6 C 85 %
386 27-03-2015 05:07:17 3.6 C 85 %
387 27-03-2015 05:19:17 3.9 C 84 %
388 27-03-2015 05:31:17 3.5 C 83 %
389 27-03-2015 05:43:17 3.9 C 82 %
390 27-03-2015 05:55:17 3.8 C 80 %
391 27-03-2015 06:07:17 4.3 C 77 %
392 27-03-2015 06:19:17 4.1 C 74 %
393 27-03-2015 06:31:17 4.1 C 74 %
394 27-03-2015 06:43:17 4.4 C 74 %
395 27-03-2015 06:55:17 4.4 C 74 %
396 27-03-2015 07:07:17 4.6 C 74 %
397 27-03-2015 07:19:16 4.9 C 71 %
398 27-03-2015 07:31:17 5 C 69 %
399 27-03-2015 07:43:17 5.2 C 70 %
400 27-03-2015 07:55:17 5.4 C 69 %
Sensor: Nr:Datum:Temp:Feuchte:
Aussen-T/F 401 27-03-2015 08:07:17 5.6 C 69 %
402 27-03-2015 08:19:17 5.7 C 68 %
403 27-03-2015 08:31:17 5.9 C 68 %
404 27-03-2015 08:43:17 6.1 C 66 %
405 27-03-2015 08:55:17 6.3 C 66 %
406 27-03-2015 09:07:17 6.7 C 65 %
407 27-03-2015 09:19:17 6.7 C 64 %
408 27-03-2015 09:31:17 7 C 64 %
409 27-03-2015 09:43:17 6.8 C 63 %
410 27-03-2015 09:55:17 7.2 C 62 %
411 27-03-2015 10:07:17 7.7 C 60 %
412 27-03-2015 10:19:17 8.4 C 58 %
413 27-03-2015 10:31:17 8.3 C 57 %
414 27-03-2015 10:43:17 8.6 C 56 %
415 27-03-2015 10:55:17 8.4 C 56 %
416 27-03-2015 11:07:17 8.6 C 54 %
417 27-03-2015 11:19:17 8.8 C 53 %
418 27-03-2015 11:31:17 8.5 C 54 %
419 27-03-2015 11:43:17 8.7 C 56 %
420 27-03-2015 11:55:17 8.4 C 57 %
421 27-03-2015 12:07:18 9 C 55 %
422 27-03-2015 12:19:17 9.3 C 50 %
423 27-03-2015 12:31:17 9.2 C 47 %
424 27-03-2015 12:43:17 9.2 C 46 %
425 27-03-2015 12:55:17 9.5 C 46 %
Sensor: Nr:Datum:Temp:Feuchte:
Aussen-T/F 426 27-03-2015 13:07:17 9.7 C 46 %
427 27-03-2015 13:19:17 9.1 C 46 %
428 27-03-2015 13:31:17 9.4 C 47 %
429 27-03-2015 13:43:17 9.5 C 46 %
430 27-03-2015 13:55:17 9.5 C 45 %
431 27-03-2015 14:07:17 10.4 C 45 %
432 27-03-2015 14:19:17 9.7 C 44 %
433 27-03-2015 14:31:17 10.1 C 43 %
434 27-03-2015 14:43:17 10.5 C 43 %
435 27-03-2015 14:55:17 11.4 C 41 %
436 27-03-2015 15:07:17 10.3 C 41 %
437 27-03-2015 15:19:18 9.9 C 43 %
438 27-03-2015 15:31:17 9.8 C 44 %
439 27-03-2015 15:43:17 10.2 C 42 %
440 27-03-2015 15:55:17 10.1 C 42 %
441 27-03-2015 16:07:17 10.2 C 41 %
442 27-03-2015 16:19:17 10.1 C 41 %
443 27-03-2015 16:31:17 10.4 C 40 %
444 27-03-2015 16:43:17 10.3 C 41 %
445 27-03-2015 16:55:17 10.3 C 41 %
446 27-03-2015 17:07:17 10.4 C 40 %
447 27-03-2015 17:19:17 11.6 C 40 %
448 27-03-2015 17:31:17 10.6 C 40 %
449 27-03-2015 17:43:17 13.1 C 35 %
450 27-03-2015 17:55:17 10.2 C 40 %
Sensor: Nr:Datum:Temp:Feuchte:
Aussen-T/F 451 27-03-2015 18:07:17 9.7 C 41 %
452 27-03-2015 18:19:17 9.5 C 41 %
453 27-03-2015 18:31:17 9.3 C 42 %
454 27-03-2015 18:43:17 9.2 C 42 %
455 27-03-2015 18:55:17 9 C 43 %
456 27-03-2015 19:07:17 9 C 43 %
457 27-03-2015 19:19:17 9 C 43 %
458 27-03-2015 19:31:17 8.6 C 47 %
459 27-03-2015 19:43:17 8.2 C 48 %
460 27-03-2015 19:55:17 8.1 C 50 %
461 27-03-2015 20:07:17 8 C 50 %
462 27-03-2015 20:19:17 7.9 C 52 %
463 27-03-2015 20:31:17 7.8 C 53 %
464 27-03-2015 20:43:17 7.5 C 56 %
465 27-03-2015 20:55:17 7.5 C 57 %
466 27-03-2015 21:07:17 7.3 C 58 %
467 27-03-2015 21:19:17 7.2 C 58 %
468 27-03-2015 21:31:17 7.1 C 59 %
469 27-03-2015 21:43:17 7.1 C 60 %
470 27-03-2015 21:55:17 7 C 61 %
471 27-03-2015 22:07:17 6.9 C 62 %
472 27-03-2015 22:19:17 6.6 C 62 %
473 27-03-2015 22:31:17 6.2 C 63 %
474 27-03-2015 22:43:18 6.4 C 64 %
475 27-03-2015 22:55:17 6.3 C 64 %
Sensor: Nr:Datum:Temp:Feuchte:
Aussen-T/F 476 27-03-2015 23:07:17 6.3 C 64 %
477 27-03-2015 23:19:17 6.3 C 64 %
478 27-03-2015 23:31:17 6 C 64 %
479 27-03-2015 23:43:17 5.8 C 66 %
480 27-03-2015 23:55:16 5.5 C 66 %
481 28-03-2015 00:07:17 5.5 C 67 %
482 28-03-2015 00:19:17 5.4 C 67 %
483 28-03-2015 00:31:17 5.7 C 66 %
484 28-03-2015 00:43:17 5.7 C 66 %
485 28-03-2015 00:55:17 5.7 C 67 %
486 28-03-2015 01:07:17 5.9 C 66 %
487 28-03-2015 01:19:17 5.9 C 66 %
488 28-03-2015 01:31:17 5.8 C 66 %
489 28-03-2015 01:43:17 5.8 C 66 %
490 28-03-2015 01:55:17 5.6 C 68 %
491 28-03-2015 02:07:17 5.4 C 70 %
492 28-03-2015 02:19:17 5.2 C 70 %
493 28-03-2015 02:31:17 5 C 70 %
494 28-03-2015 02:43:17 4.5 C 72 %
495 28-03-2015 02:55:17 4.1 C 72 %
496 28-03-2015 03:07:17 3.7 C 73 %
497 28-03-2015 03:19:17 3.2 C 74 %
498 28-03-2015 03:31:17 3 C 75 %
499 28-03-2015 03:43:17 3.1 C 77 %
500 28-03-2015 03:55:17 3.4 C 77 %
Sensor: Nr:Datum:Temp:Feuchte:
Aussen-T/F 501 28-03-2015 04:07:17 4.3 C 73 %
502 28-03-2015 04:19:17 4.1 C 72 %
503 28-03-2015 04:31:18 3.7 C 73 %
504 28-03-2015 04:43:18 3.7 C 73 %
505 28-03-2015 04:55:17 3.9 C 73 %
506 28-03-2015 05:07:17 4.2 C 71 %
507 28-03-2015 05:19:17 4.3 C 70 %
508 28-03-2015 05:31:17 4.2 C 69 %
509 28-03-2015 05:43:17 4.3 C 69 %
510 28-03-2015 05:55:17 4.4 C 69 %
511 28-03-2015 06:07:17 4.5 C 67 %
512 28-03-2015 06:19:17 4.5 C 67 %
513 28-03-2015 06:31:17 4.5 C 68 %
514 28-03-2015 06:43:17 4.5 C 67 %
515 28-03-2015 06:55:17 4.5 C 68 %
516 28-03-2015 07:07:17 4.6 C 67 %
517 28-03-2015 07:19:17 4.7 C 66 %
518 28-03-2015 07:31:17 4.8 C 66 %
519 28-03-2015 07:43:17 5.1 C 64 %
520 28-03-2015 07:55:17 5.3 C 63 %
521 28-03-2015 08:07:17 5.6 C 62 %
522 28-03-2015 08:19:17 5.8 C 61 %
523 28-03-2015 08:31:17 6.1 C 60 %
524 28-03-2015 08:43:17 6.3 C 59 %
525 28-03-2015 08:55:17 6.4 C 59 %
Sensor: Nr:Datum:Temp:Feuchte:
Aussen-T/F 526 28-03-2015 09:07:17 6.1 C 60 %
527 28-03-2015 09:19:17 6.5 C 61 %
528 28-03-2015 09:31:17 6.9 C 60 %
529 28-03-2015 09:43:17 7.3 C 59 %
530 28-03-2015 09:55:17 8.5 C 53 %
531 28-03-2015 10:07:17 9.3 C 48 %
532 28-03-2015 10:19:17 10.3 C 43 %
533 28-03-2015 10:31:17 10.7 C 41 %
534 28-03-2015 10:43:17 11.2 C 39 %
535 28-03-2015 10:55:17 11.6 C 38 %
536 28-03-2015 11:07:17 11.8 C 38 %
537 28-03-2015 11:19:17 12 C 36 %
538 28-03-2015 11:31:17 12.2 C 37 %
539 28-03-2015 11:43:17 12.4 C 37 %
540 28-03-2015 11:55:17 12.7 C 37 %
541 28-03-2015 12:07:17 12.6 C 37 %
542 28-03-2015 12:19:18 12.4 C 38 %
543 28-03-2015 12:31:17 12.6 C 39 %
544 28-03-2015 12:43:17 12.9 C 39 %
545 28-03-2015 12:55:17 12.7 C 38 %
546 28-03-2015 13:08:17 12.7 C 39 %
547 28-03-2015 13:19:17 12.6 C 40 %
548 28-03-2015 13:31:17 12.5 C 41 %
549 28-03-2015 13:43:17 12.6 C 40 %
550 28-03-2015 13:55:17 12.5 C 41 %
Sensor: Nr:Datum:Temp:Feuchte:
Aussen-T/F 551 28-03-2015 14:07:17 12.4 C 41 %
552 28-03-2015 14:19:17 11.4 C 47 %
553 28-03-2015 14:31:17 11.7 C 49 %
554 28-03-2015 14:43:17 11.2 C 53 %
555 28-03-2015 14:56:17 10.7 C 56 %
556 28-03-2015 15:07:17 9.8 C 66 %
557 28-03-2015 15:19:17 9.6 C 71 %
558 28-03-2015 15:31:17 9.7 C 73 %
559 28-03-2015 15:43:17 9.7 C 75 %
560 28-03-2015 15:56:17 9.5 C 76 %
561 28-03-2015 16:07:17 9.3 C 79 %
562 28-03-2015 16:20:17 9.2 C 81 %
563 28-03-2015 16:31:17 8.9 C 83 %
564 28-03-2015 16:43:17 8.7 C 83 %
565 28-03-2015 16:55:17 8.5 C 85 %
566 28-03-2015 17:07:17 8.5 C 86 %
567 28-03-2015 17:20:17 8.4 C 87 %
568 28-03-2015 17:31:17 8.4 C 87 %
569 28-03-2015 17:43:17 8.5 C 87 %
570 28-03-2015 17:55:17 8.6 C 86 %
571 28-03-2015 18:07:17 8.7 C 86 %
572 28-03-2015 18:19:17 9 C 82 %
573 28-03-2015 18:31:17 9.1 C 79 %
574 28-03-2015 18:43:17 9.2 C 77 %
575 28-03-2015 18:56:17 9.4 C 75 %
Sensor: Nr:Datum:Temp:Feuchte:
Aussen-T/F 576 28-03-2015 19:07:17 9 C 75 %
577 28-03-2015 19:19:17 8.6 C 77 %
578 28-03-2015 19:31:17 8.3 C 79 %
579 28-03-2015 19:43:17 8.7 C 81 %
580 28-03-2015 19:56:17 8.7 C 81 %
581 28-03-2015 20:07:17 9.1 C 80 %
582 28-03-2015 20:20:17 9.4 C 80 %
583 28-03-2015 20:32:17 9.6 C 79 %
584 28-03-2015 20:44:17 9.4 C 79 %
585 28-03-2015 20:55:17 9.3 C 81 %
586 28-03-2015 21:07:18 9.4 C 82 %
587 28-03-2015 21:20:17 9.6 C 82 %
588 28-03-2015 21:32:17 9.7 C 82 %
589 28-03-2015 21:44:17 9.6 C 83 %
590 28-03-2015 21:55:17 9.9 C 83 %
591 28-03-2015 22:07:17 9.9 C 83 %
592 28-03-2015 22:20:17 10.1 C 81 %
593 28-03-2015 22:31:17 10.3 C 81 %
594 28-03-2015 22:43:17 10.5 C 80 %
595 28-03-2015 22:56:17 10.9 C 79 %
596 28-03-2015 23:08:17 11.2 C 77 %
597 28-03-2015 23:20:17 11.4 C 76 %
598 28-03-2015 23:32:17 11.7 C 75 %
599 28-03-2015 23:44:17 11.7 C 74 %
600 28-03-2015 23:56:17 11.9 C 72 %
Sensor: Nr:Datum:Temp:Feuchte:
Aussen-T/F 601 29-03-2015 00:08:17 12.1 C 71 %
602 29-03-2015 00:19:17 12 C 70 %
603 29-03-2015 00:32:17 12.1 C 70 %
604 29-03-2015 00:44:17 12.1 C 70 %
605 29-03-2015 00:56:17 12.1 C 70 %
606 29-03-2015 01:08:17 11.8 C 71 %
607 29-03-2015 01:20:17 12.1 C 70 %
608 29-03-2015 01:32:17 12.1 C 70 %
609 29-03-2015 01:44:17 12.1 C 70 %
610 29-03-2015 01:56:17 12.1 C 70 %
611 29-03-2015 02:08:17 11.4 C 74 %
612 29-03-2015 02:20:17 11.3 C 77 %
613 29-03-2015 02:32:17 11.3 C 77 %
614 29-03-2015 02:44:17 11.5 C 74 %
615 29-03-2015 02:56:17 11.7 C 72 %
616 29-03-2015 04:08:17 11.7 C 71 %
617 29-03-2015 04:20:17 11.7 C 70 %
618 29-03-2015 04:32:17 11.5 C 72 %
619 29-03-2015 04:44:17 11.4 C 74 %
620 29-03-2015 04:56:17 11.5 C 73 %
621 29-03-2015 05:08:17 11.3 C 72 %
622 29-03-2015 05:20:17 11.3 C 72 %
623 29-03-2015 05:32:17 11.4 C 71 %
624 29-03-2015 05:44:17 11.4 C 72 %
625 29-03-2015 05:56:17 11.5 C 70 %
Sensor: Nr:Datum:Temp:Feuchte:
Aussen-T/F 626 29-03-2015 06:08:18 11.3 C 69 %
627 29-03-2015 06:20:17 11.4 C 67 %
628 29-03-2015 06:32:17 11.3 C 66 %
629 29-03-2015 06:44:17 11.3 C 65 %
630 29-03-2015 06:56:16 11.2 C 65 %
631 29-03-2015 07:08:17 11.1 C 65 %
632 29-03-2015 07:20:17 10.9 C 67 %
633 29-03-2015 07:32:17 11 C 66 %
634 29-03-2015 07:44:17 11.1 C 66 %
635 29-03-2015 07:56:17 11.1 C 65 %
636 29-03-2015 08:08:17 11.3 C 61 %
637 29-03-2015 08:20:17 11.3 C 61 %
638 29-03-2015 08:32:17 11.2 C 61 %
639 29-03-2015 08:44:17 11.1 C 61 %
640 29-03-2015 08:56:17 11 C 61 %
641 29-03-2015 09:08:17 11 C 60 %
642 29-03-2015 09:20:17 10.9 C 59 %
643 29-03-2015 09:32:17 11 C 59 %
644 29-03-2015 09:44:17 11 C 59 %
645 29-03-2015 09:56:16 10.8 C 60 %
646 29-03-2015 10:08:17 10.8 C 60 %
647 29-03-2015 10:20:17 10.7 C 61 %
648 29-03-2015 10:32:17 10.7 C 63 %
649 29-03-2015 10:44:17 10.8 C 63 %
650 29-03-2015 10:56:17 10.7 C 65 %
Sensor: Nr:Datum:Temp:Feuchte:
Aussen-T/F 651 29-03-2015 11:08:17 10.7 C 65 %
652 29-03-2015 11:20:16 10.7 C 64 %
653 29-03-2015 11:32:17 10.8 C 64 %
654 29-03-2015 11:44:17 10.9 C 66 %
655 29-03-2015 11:56:17 10.9 C 67 %
656 29-03-2015 12:08:17 11.1 C 66 %
657 29-03-2015 12:20:17 11.1 C 67 %
658 29-03-2015 12:32:16 10.8 C 69 %
659 29-03-2015 12:44:17 10.7 C 72 %
660 29-03-2015 12:56:17 10.7 C 73 %
661 29-03-2015 13:08:17 10.6 C 74 %
662 29-03-2015 13:20:17 10.7 C 74 %
663 29-03-2015 13:32:17 10.8 C 74 %
664 29-03-2015 13:44:17 11.3 C 73 %
665 29-03-2015 13:56:16 11.3 C 71 %
666 29-03-2015 14:08:17 11.5 C 71 %
667 29-03-2015 14:20:17 11.1 C 72 %
668 29-03-2015 14:32:16 11.2 C 72 %
669 29-03-2015 14:44:16 11.5 C 71 %
670 29-03-2015 14:56:17 11.3 C 71 %
671 29-03-2015 15:08:17 11.3 C 71 %
672 29-03-2015 15:20:17 11.7 C 70 %
673 29-03-2015 15:32:17 11.9 C 69 %
674 29-03-2015 15:44:17 11.8 C 68 %
675 29-03-2015 15:56:17 11.6 C 70 %
Sensor: Nr:Datum:Temp:Feuchte:
Aussen-T/F 676 29-03-2015 16:08:17 11.5 C 72 %
677 29-03-2015 16:20:16 11.8 C 72 %
678 29-03-2015 16:32:17 11.8 C 71 %
679 29-03-2015 16:44:17 11.8 C 71 %
680 29-03-2015 16:56:17 11.7 C 72 %
681 29-03-2015 17:08:17 11.6 C 73 %
682 29-03-2015 17:20:16 11.5 C 74 %
683 29-03-2015 17:32:17 11.7 C 74 %
684 29-03-2015 17:44:17 11.4 C 76 %
685 29-03-2015 17:56:17 11.4 C 78 %
686 29-03-2015 18:08:17 11.3 C 79 %
687 29-03-2015 18:20:17 11.4 C 80 %
688 29-03-2015 18:32:17 11.3 C 80 %
689 29-03-2015 18:44:18 11.3 C 80 %
690 29-03-2015 18:56:17 11.4 C 80 %
691 29-03-2015 19:08:17 11.5 C 79 %
692 29-03-2015 19:20:17 11.8 C 77 %
693 29-03-2015 19:32:17 11.8 C 76 %
694 29-03-2015 19:44:17 12.1 C 72 %
695 29-03-2015 19:56:17 12.2 C 70 %
696 29-03-2015 20:08:17 12 C 71 %
697 29-03-2015 20:20:17 12.1 C 71 %
698 29-03-2015 20:32:17 12.2 C 71 %
699 29-03-2015 20:44:17 11.6 C 73 %
700 29-03-2015 20:56:17 11.3 C 76 %
Sensor: Nr:Datum:Temp:Feuchte:
Aussen-T/F 701 29-03-2015 21:08:17 11.4 C 78 %
702 29-03-2015 21:20:17 11.2 C 78 %
703 29-03-2015 21:32:17 11.2 C 72 %
704 29-03-2015 21:44:17 11.8 C 66 %
705 29-03-2015 21:56:17 11.8 C 63 %
706 29-03-2015 22:08:17 11.9 C 58 %
707 29-03-2015 22:20:17 11.6 C 60 %
708 29-03-2015 22:32:17 10.8 C 66 %
709 29-03-2015 22:44:17 9.6 C 73 %
710 29-03-2015 22:56:17 8.6 C 73 %
711 29-03-2015 23:08:17 8.3 C 74 %
712 29-03-2015 23:20:17 8.2 C 74 %
713 29-03-2015 23:32:17 8.4 C 75 %
714 29-03-2015 23:44:17 8.3 C 74 %
715 29-03-2015 23:56:17 8.1 C 73 %
716 30-03-2015 00:08:17 8.2 C 74 %
717 30-03-2015 00:20:17 8.2 C 73 %
718 30-03-2015 00:32:17 7.8 C 78 %
719 30-03-2015 00:44:17 7.7 C 79 %
720 30-03-2015 00:56:17 7.5 C 82 %
721 30-03-2015 01:08:17 7.4 C 84 %
722 30-03-2015 01:20:17 7.4 C 84 %
723 30-03-2015 01:32:17 7.5 C 81 %
724 30-03-2015 01:44:17 7.9 C 76 %
725 30-03-2015 01:56:17 7.9 C 74 %
Sensor: Nr:Datum:Temp:Feuchte:
Aussen-T/F 726 30-03-2015 02:08:17 7.9 C 73 %
727 30-03-2015 02:20:17 7.9 C 73 %
728 30-03-2015 02:32:17 7.9 C 74 %
729 30-03-2015 02:44:18 7.7 C 76 %
730 30-03-2015 02:56:17 7.8 C 75 %
731 30-03-2015 03:08:17 8 C 73 %
732 30-03-2015 03:20:17 7.9 C 74 %
733 30-03-2015 03:32:17 7.3 C 79 %
734 30-03-2015 03:44:17 7 C 84 %
735 30-03-2015 03:56:17 7 C 85 %
736 30-03-2015 04:08:17 6.9 C 83 %
737 30-03-2015 04:20:17 6.8 C 82 %
738 30-03-2015 04:32:17 6.8 C 82 %
739 30-03-2015 04:44:17 6.8 C 82 %
740 30-03-2015 04:56:17 6.9 C 80 %
741 30-03-2015 05:08:17 6.9 C 79 %
742 30-03-2015 05:20:17 6.8 C 80 %
743 30-03-2015 05:32:17 6.7 C 81 %
744 30-03-2015 05:44:17 6.6 C 80 %
745 30-03-2015 05:56:17 6.9 C 79 %
746 30-03-2015 06:08:17 6.7 C 78 %
747 30-03-2015 06:20:17 6.3 C 78 %
748 30-03-2015 06:32:17 5.9 C 79 %
749 30-03-2015 06:44:17 5.9 C 79 %
750 30-03-2015 06:56:17 5.7 C 79 %
Sensor: Nr:Datum:Temp:Feuchte:
Aussen-T/F 751 30-03-2015 07:08:17 5.8 C 78 %
752 30-03-2015 07:20:17 6.2 C 73 %
753 30-03-2015 07:32:17 6.5 C 67 %
754 30-03-2015 07:44:17 6.4 C 65 %
755 30-03-2015 07:56:17 6.8 C 63 %
756 30-03-2015 08:08:17 6.8 C 63 %
757 30-03-2015 08:20:17 6.7 C 65 %
758 30-03-2015 08:32:17 6.7 C 66 %
759 30-03-2015 08:44:17 6.9 C 66 %
760 30-03-2015 08:56:17 7 C 66 %
761 30-03-2015 09:08:17 7.3 C 62 %
762 30-03-2015 09:20:17 7.7 C 60 %
763 30-03-2015 09:32:17 7.8 C 58 %
764 30-03-2015 09:44:17 7.9 C 57 %
765 30-03-2015 09:56:17 8 C 55 %
766 30-03-2015 10:08:17 7.5 C 60 %
767 30-03-2015 10:20:17 7.6 C 60 %
768 30-03-2015 10:32:17 7.9 C 59 %
769 30-03-2015 10:44:17 8.2 C 58 %
770 30-03-2015 10:56:17 8.5 C 53 %
771 30-03-2015 11:08:17 9 C 48 %
772 30-03-2015 11:20:17 9.1 C 44 %
773 30-03-2015 11:32:17 9.2 C 41 %
774 30-03-2015 11:44:17 7.5 C 49 %
775 30-03-2015 11:56:17 7.6 C 54 %
Sensor: Nr:Datum:Temp:Feuchte:
Aussen-T/F 776 30-03-2015 12:08:17 7.4 C 52 %
777 30-03-2015 12:20:17 8.3 C 50 %
778 30-03-2015 12:32:17 9 C 49 %
779 30-03-2015 12:44:17 9.4 C 45 %
780 30-03-2015 12:56:17 10.2 C 43 %
781 30-03-2015 13:08:18 9.7 C 41 %
782 30-03-2015 13:20:17 9.7 C 40 %
783 30-03-2015 13:32:17 10.2 C 40 %
784 30-03-2015 13:44:17 9.7 C 41 %
785 30-03-2015 13:56:17 8.5 C 48 %
786 30-03-2015 14:08:17 7.9 C 55 %
787 30-03-2015 14:20:17 8.9 C 51 %
788 30-03-2015 14:32:17 9.4 C 50 %
789 30-03-2015 14:44:17 9.2 C 47 %
790 30-03-2015 14:56:17 9.7 C 45 %
791 30-03-2015 15:08:17 9.9 C 45 %
792 30-03-2015 15:20:17 8.4 C 51 %
793 30-03-2015 15:32:17 9.2 C 49 %
794 30-03-2015 15:44:17 9.9 C 44 %
795 30-03-2015 15:56:17 10.2 C 40 %
796 30-03-2015 16:08:17 10.1 C 39 %
797 30-03-2015 16:20:17 10.1 C 39 %
798 30-03-2015 16:32:17 10.4 C 39 %
799 30-03-2015 16:44:17 11.2 C 38 %
800 30-03-2015 16:56:17 10.5 C 40 %
Sensor: Nr:Datum:Temp:Feuchte:
Aussen-T/F 801 30-03-2015 17:08:17 11.1 C 38 %
802 30-03-2015 17:20:17 10.6 C 36 %
803 30-03-2015 17:32:17 10 C 33 %
804 30-03-2015 17:44:17 10.4 C 34 %
805 30-03-2015 17:56:17 11.4 C 31 %
806 30-03-2015 18:08:17 9.8 C 34 %
807 30-03-2015 18:20:17 9.5 C 35 %
808 30-03-2015 18:32:17 9.1 C 35 %
809 30-03-2015 18:44:17 8.9 C 35 %
810 30-03-2015 18:56:17 9.1 C 35 %
811 30-03-2015 19:08:17 9.2 C 36 %
812 30-03-2015 19:20:17 9 C 35 %
813 30-03-2015 19:32:17 8.7 C 36 %
814 30-03-2015 19:44:17 8.2 C 36 %
815 30-03-2015 19:56:17 7.9 C 40 %
816 30-03-2015 20:08:17 7.9 C 40 %
817 30-03-2015 20:20:17 7.3 C 41 %
818 30-03-2015 20:32:17 6.8 C 45 %
819 30-03-2015 20:44:17 6.2 C 48 %
820 30-03-2015 20:56:17 5.9 C 51 %
821 30-03-2015 21:08:17 5.5 C 53 %
822 30-03-2015 21:20:17 5.1 C 56 %
823 30-03-2015 21:32:17 4.8 C 59 %
824 30-03-2015 21:44:17 4.5 C 63 %
825 30-03-2015 21:56:17 4.2 C 65 %
Sensor: Nr:Datum:Temp:Feuchte:
Aussen-T/F 826 30-03-2015 22:08:17 4.5 C 65 %
827 30-03-2015 22:20:17 4.6 C 66 %
828 30-03-2015 22:32:17 4.7 C 67 %
829 30-03-2015 22:44:17 4.7 C 64 %
830 30-03-2015 22:56:17 5.3 C 60 %
831 30-03-2015 23:08:17 5.4 C 60 %
832 30-03-2015 23:20:17 5.3 C 61 %
833 30-03-2015 23:32:17 5.3 C 62 %
834 30-03-2015 23:44:17 5.4 C 62 %
835 30-03-2015 23:56:17 5.6 C 61 %
836 31-03-2015 00:08:17 5.7 C 62 %
837 31-03-2015 00:20:17 5.6 C 69 %
838 31-03-2015 00:32:17 5.6 C 74 %
839 31-03-2015 00:44:17 5.6 C 76 %
840 31-03-2015 00:56:17 5.8 C 78 %
841 31-03-2015 01:08:17 5.9 C 77 %
842 31-03-2015 01:20:17 6.3 C 73 %
843 31-03-2015 01:32:17 7 C 70 %
844 31-03-2015 01:44:17 7.2 C 68 %
845 31-03-2015 01:56:17 7.5 C 67 %
846 31-03-2015 02:08:17 7.7 C 67 %
847 31-03-2015 02:20:17 7.9 C 67 %
848 31-03-2015 02:32:17 8 C 68 %
849 31-03-2015 02:44:17 8.2 C 69 %
850 31-03-2015 02:56:17 8.4 C 70 %
Sensor: Nr:Datum:Temp:Feuchte:
Aussen-T/F 851 31-03-2015 03:08:17 8.6 C 71 %
852 31-03-2015 03:20:17 8.9 C 72 %
853 31-03-2015 03:32:17 9.1 C 71 %
854 31-03-2015 03:44:17 9.2 C 72 %
855 31-03-2015 03:56:17 9.6 C 73 %
856 31-03-2015 04:08:17 9.8 C 73 %
857 31-03-2015 04:20:17 10.4 C 71 %
858 31-03-2015 04:32:17 10.7 C 70 %
859 31-03-2015 04:44:17 11.2 C 68 %
860 31-03-2015 04:56:17 11.5 C 67 %
861 31-03-2015 05:08:17 11.9 C 65 %
862 31-03-2015 05:20:17 12.3 C 63 %
863 31-03-2015 05:32:17 12.4 C 62 %
864 31-03-2015 05:44:17 12.5 C 62 %
865 31-03-2015 05:56:17 12.6 C 61 %
866 31-03-2015 06:08:17 12.8 C 60 %
867 31-03-2015 06:20:17 12.9 C 60 %
868 31-03-2015 06:32:17 13.1 C 58 %
869 31-03-2015 06:44:17 13.2 C 59 %
870 31-03-2015 06:56:17 12.6 C 64 %
871 31-03-2015 07:08:17 11.8 C 70 %
872 31-03-2015 07:20:17 11.3 C 77 %
873 31-03-2015 07:32:17 11 C 80 %
874 31-03-2015 07:44:17 11.4 C 80 %
875 31-03-2015 07:56:17 12.4 C 67 %
Sensor: Nr:Datum:Temp:Feuchte:
Aussen-T/F 876 31-03-2015 08:08:17 12.4 C 60 %
877 31-03-2015 08:20:17 12.2 C 59 %
878 31-03-2015 08:32:17 12.2 C 57 %
879 31-03-2015 08:44:17 12.1 C 57 %
880 31-03-2015 08:56:17 12 C 59 %
881 31-03-2015 09:08:17 11.5 C 62 %
882 31-03-2015 09:20:17 11.5 C 63 %
883 31-03-2015 09:32:17 11.8 C 59 %
884 31-03-2015 09:44:17 12.3 C 55 %
885 31-03-2015 09:56:17 12.7 C 53 %
886 31-03-2015 10:08:17 12.9 C 51 %
887 31-03-2015 10:20:17 12.9 C 51 %
888 31-03-2015 10:32:17 12.8 C 52 %
889 31-03-2015 10:44:17 12.9 C 51 %
890 31-03-2015 10:56:17 13 C 48 %
891 31-03-2015 11:08:17 13.1 C 46 %
892 31-03-2015 11:20:17 10.3 C 61 %
893 31-03-2015 11:32:17 9.9 C 69 %
894 31-03-2015 11:44:17 10.4 C 66 %
895 31-03-2015 11:56:17 11.3 C 57 %
896 31-03-2015 12:08:17 9.5 C 67 %
897 31-03-2015 12:20:17 8.6 C 72 %
898 31-03-2015 12:32:17 8.1 C 77 %
899 31-03-2015 12:44:17 8.6 C 79 %
900 31-03-2015 12:56:17 8.4 C 75 %
Sensor: Nr:Datum:Temp:Feuchte:
Aussen-T/F 901 31-03-2015 13:08:17 8.7 C 72 %
902 31-03-2015 13:20:17 9.1 C 71 %
903 31-03-2015 13:32:17 9.4 C 65 %
904 31-03-2015 13:44:17 9.6 C 62 %
905 31-03-2015 13:56:17 10.3 C 57 %
906 31-03-2015 14:08:17 11.2 C 58 %
907 31-03-2015 14:20:17 10.9 C 57 %
908 31-03-2015 14:32:17 9.1 C 64 %
909 31-03-2015 14:44:17 8.5 C 63 %
910 31-03-2015 14:56:17 7.9 C 66 %
911 31-03-2015 15:08:17 8.3 C 68 %
912 31-03-2015 15:20:17 9.7 C 63 %
913 31-03-2015 15:32:17 10.6 C 56 %
914 31-03-2015 15:44:17 11 C 52 %
915 31-03-2015 15:56:17 10.6 C 51 %
916 31-03-2015 16:08:17 11.1 C 49 %
917 31-03-2015 16:20:17 12.1 C 44 %
918 31-03-2015 16:32:17 13.1 C 41 %
919 31-03-2015 16:44:17 12.8 C 38 %
920 31-03-2015 16:56:17 12.4 C 37 %
921 31-03-2015 17:08:17 13.2 C 33 %
922 31-03-2015 17:20:17 12.1 C 31 %
923 31-03-2015 17:32:17 12.7 C 33 %
924 31-03-2015 17:44:17 13.2 C 30 %
925 31-03-2015 17:56:17 11.8 C 35 %
Sensor: Nr:Datum:Temp:Feuchte:
Aussen-T/F 926 31-03-2015 18:08:17 12.4 C 34 %
927 31-03-2015 18:20:17 10.9 C 36 %
928 31-03-2015 18:32:18 10.8 C 38 %
929 31-03-2015 18:44:18 10.1 C 37 %
930 31-03-2015 18:56:17 11.1 C 37 %
931 31-03-2015 19:08:17 9.4 C 41 %
932 31-03-2015 19:20:17 9.3 C 41 %
933 31-03-2015 19:32:17 8.8 C 44 %
934 31-03-2015 19:44:17 8.7 C 45 %
935 31-03-2015 19:56:17 8.2 C 46 %
936 31-03-2015 20:08:17 7.8 C 49 %
937 31-03-2015 20:20:17 7.5 C 50 %
938 31-03-2015 20:32:17 7.4 C 52 %
939 31-03-2015 20:44:17 7.6 C 52 %
940 31-03-2015 20:56:17 7.5 C 52 %
941 31-03-2015 21:08:17 7.8 C 52 %
942 31-03-2015 21:20:17 5.2 C 67 %
943 31-03-2015 21:32:17 4.4 C 78 %
944 31-03-2015 21:44:17 4.6 C 82 %
945 31-03-2015 21:56:17 4.5 C 83 %
946 31-03-2015 22:08:17 4.4 C 84 %
947 31-03-2015 22:20:17 4.5 C 84 %
948 31-03-2015 22:32:17 4.6 C 84 %
949 31-03-2015 22:44:17 5 C 81 %
950 31-03-2015 22:56:17 4.7 C 81 %
Sensor: Nr:Datum:Temp:Feuchte:
Aussen-T/F 951 31-03-2015 23:08:17 4.6 C 81 %
952 31-03-2015 23:20:17 4.7 C 81 %
953 31-03-2015 23:32:17 5.3 C 76 %
954 31-03-2015 23:44:17 5.3 C 69 %
955 31-03-2015 23:56:17 3 C 77 %
956 01-04-2015 00:08:17 3 C 83 %
957 01-04-2015 00:20:17 3.2 C 85 %
958 01-04-2015 00:32:17 3.5 C 86 %
959 01-04-2015 00:44:17 3.6 C 85 %
960 01-04-2015 00:56:17 3.9 C 83 %
961 01-04-2015 01:08:17 4.3 C 79 %
962 01-04-2015 01:20:17 4.4 C 75 %
963 01-04-2015 01:32:17 4.4 C 74 %
964 01-04-2015 01:44:17 4.4 C 72 %
965 01-04-2015 01:56:17 4.5 C 69 %
966 01-04-2015 02:08:17 4.5 C 68 %
967 01-04-2015 02:20:17 4.4 C 67 %
968 01-04-2015 02:32:17 4.2 C 67 %
969 01-04-2015 02:44:17 4.2 C 68 %
970 01-04-2015 02:56:17 4.4 C 68 %
971 01-04-2015 03:08:17 4.4 C 66 %
972 01-04-2015 03:20:17 4.5 C 63 %
973 01-04-2015 03:32:17 4.4 C 61 %
974 01-04-2015 03:44:17 4.3 C 62 %
975 01-04-2015 03:56:17 4.5 C 61 %
Sensor: Nr:Datum:Temp:Feuchte:
Aussen-T/F 976 01-04-2015 04:08:17 4.6 C 59 %
977 01-04-2015 04:20:17 4.4 C 59 %
978 01-04-2015 04:32:18 4.1 C 61 %
979 01-04-2015 04:44:18 4.2 C 63 %
980 01-04-2015 04:56:17 4.5 C 61 %
981 01-04-2015 05:08:17 4.2 C 62 %
982 01-04-2015 05:20:17 3.7 C 65 %
983 01-04-2015 05:32:17 4.3 C 59 %
984 01-04-2015 05:44:17 3.9 C 60 %
985 01-04-2015 05:56:17 3.8 C 60 %
986 01-04-2015 06:08:17 4.3 C 57 %
987 01-04-2015 06:20:17 4.1 C 56 %
988 01-04-2015 06:32:17 4 C 56 %
989 01-04-2015 06:44:17 4 C 58 %
990 01-04-2015 06:56:17 4 C 61 %
991 01-04-2015 07:08:17 3.4 C 65 %
992 01-04-2015 07:20:17 3.5 C 65 %
993 01-04-2015 07:32:17 3.5 C 65 %
994 01-04-2015 07:44:17 3.6 C 66 %
995 01-04-2015 07:56:17 3.5 C 68 %
996 01-04-2015 08:08:17 3.5 C 70 %
997 01-04-2015 08:20:17 3.7 C 69 %
998 01-04-2015 08:32:17 3.6 C 71 %
999 01-04-2015 08:44:17 3.7 C 71 %
1000 01-04-2015 08:56:17 3.7 C 71 %
Sensor: Nr:Datum:Temp:Feuchte:
Aussen-T/F 1001 01-04-2015 09:08:17 4.1 C 69 %
1002 01-04-2015 09:20:17 4.5 C 66 %
1003 01-04-2015 09:32:18 4.7 C 63 %
1004 01-04-2015 09:44:18 5.1 C 59 %
1005 01-04-2015 09:56:17 5.4 C 58 %
1006 01-04-2015 10:08:17 5.7 C 56 %
1007 01-04-2015 10:20:17 5.7 C 55 %
1008 01-04-2015 10:32:17 6 C 53 %
1009 01-04-2015 10:44:17 6.1 C 54 %
1010 01-04-2015 10:56:17 6.7 C 52 %
1011 01-04-2015 11:08:17 6.7 C 51 %
1012 01-04-2015 11:20:17 7.4 C 50 %
1013 01-04-2015 11:32:17 7.1 C 49 %
1014 01-04-2015 11:44:17 7.1 C 48 %
1015 01-04-2015 11:56:17 7.1 C 48 %
1016 01-04-2015 12:08:17 7.7 C 48 %
1017 01-04-2015 12:20:17 8 C 46 %
1018 01-04-2015 12:32:17 8.2 C 44 %
1019 01-04-2015 12:44:17 7.6 C 46 %
1020 01-04-2015 12:56:17 7.5 C 46 %
1021 01-04-2015 13:08:17 7 C 47 %
1022 01-04-2015 13:20:17 8.1 C 45 %
1023 01-04-2015 13:32:17 7.8 C 44 %
1024 01-04-2015 13:44:17 7 C 51 %
1025 01-04-2015 13:56:17 5 C 69 %
Sensor: Nr:Datum:Temp:Feuchte:
Aussen-T/F 1026 01-04-2015 14:08:17 5.6 C 69 %
1027 01-04-2015 14:20:17 6.8 C 66 %
1028 01-04-2015 14:32:17 6.6 C 57 %
1029 01-04-2015 14:44:17 7.7 C 55 %
1030 01-04-2015 14:56:17 8.4 C 50 %
1031 01-04-2015 15:08:17 7.9 C 48 %
1032 01-04-2015 15:20:17 4.1 C 69 %
1033 01-04-2015 15:32:17 5.1 C 74 %
1034 01-04-2015 15:44:17 6.2 C 70 %
1035 01-04-2015 15:56:17 7 C 60 %
1036 01-04-2015 16:08:17 7.3 C 56 %
1037 01-04-2015 16:20:17 8 C 54 %
1038 01-04-2015 16:32:17 7.6 C 50 %
1039 01-04-2015 16:44:17 8.8 C 46 %
1040 01-04-2015 16:56:17 8.3 C 42 %
1041 01-04-2015 17:08:17 8.3 C 43 %
1042 01-04-2015 17:20:17 7.6 C 45 %
1043 01-04-2015 17:32:17 7.6 C 45 %
1044 01-04-2015 17:44:17 7.9 C 42 %
1045 01-04-2015 17:56:17 7.9 C 43 %
1046 01-04-2015 18:08:17 8.5 C 41 %
1047 01-04-2015 18:20:17 8.7 C 41 %
1048 01-04-2015 18:32:17 9.4 C 38 %
1049 01-04-2015 18:44:17 9.5 C 38 %
1050 01-04-2015 18:56:17 9.5 C 38 %
Sensor: Nr:Datum:Temp:Feuchte:
Aussen-T/F 1051 01-04-2015 19:08:17 8.5 C 40 %
1052 01-04-2015 19:20:17 8 C 41 %
1053 01-04-2015 19:32:17 7.7 C 42 %
1054 01-04-2015 19:44:17 7.4 C 44 %
1055 01-04-2015 19:56:17 7 C 45 %
1056 01-04-2015 20:08:17 6.7 C 46 %
1057 01-04-2015 20:20:17 6.8 C 46 %
1058 01-04-2015 20:32:17 6.2 C 50 %
1059 01-04-2015 20:44:17 6.7 C 48 %
1060 01-04-2015 20:56:17 6.5 C 50 %
1061 01-04-2015 21:08:17 6.5 C 49 %
1062 01-04-2015 21:20:17 6.4 C 50 %
1063 01-04-2015 21:32:17 5.9 C 54 %
1064 01-04-2015 21:44:17 6 C 54 %
1065 01-04-2015 21:56:17 5.8 C 55 %
1066 01-04-2015 22:08:17 5.7 C 57 %
1067 01-04-2015 22:20:17 5.7 C 58 %
1068 01-04-2015 22:32:18 5.5 C 60 %
1069 01-04-2015 22:44:18 5.4 C 60 %
1070 01-04-2015 22:56:17 5.4 C 60 %
1071 01-04-2015 23:08:17 5.3 C 61 %
1072 01-04-2015 23:20:17 5.4 C 60 %
1073 01-04-2015 23:32:17 5.5 C 61 %
1074 01-04-2015 23:44:17 5.3 C 61 %
1075 01-04-2015 23:56:17 5.2 C 63 %
Sensor: Nr:Datum:Temp:Feuchte:
Aussen-T/F 1076 02-04-2015 00:08:17 5.1 C 63 %
1077 02-04-2015 00:20:17 5 C 65 %
1078 02-04-2015 00:32:17 4.9 C 67 %
1079 02-04-2015 00:44:17 5 C 66 %
1080 02-04-2015 00:56:17 5 C 66 %
1081 02-04-2015 01:08:17 5.1 C 66 %
1082 02-04-2015 01:20:17 5 C 66 %
1083 02-04-2015 01:32:17 5 C 66 %
1084 02-04-2015 01:44:17 5 C 66 %
1085 02-04-2015 01:56:16 5 C 67 %
1086 02-04-2015 02:08:17 5 C 67 %
1087 02-04-2015 02:20:17 5.2 C 66 %
1088 02-04-2015 02:32:17 5.2 C 66 %
1089 02-04-2015 02:44:17 5.1 C 67 %
1090 02-04-2015 02:56:17 5.1 C 68 %
1091 02-04-2015 03:08:17 5.1 C 68 %
1092 02-04-2015 03:20:17 5.1 C 68 %
1093 02-04-2015 03:32:17 5.1 C 68 %
1094 02-04-2015 03:44:17 4.9 C 71 %
1095 02-04-2015 03:56:17 4.8 C 74 %
1096 02-04-2015 04:08:17 4.8 C 74 %
1097 02-04-2015 04:20:17 4.8 C 75 %
1098 02-04-2015 04:32:17 4.8 C 75 %
1099 02-04-2015 04:44:17 4.8 C 75 %
1100 02-04-2015 04:56:16 4.8 C 75 %
Sensor: Nr:Datum:Temp:Feuchte:
Aussen-T/F 1101 02-04-2015 05:08:17 4.7 C 76 %
1102 02-04-2015 05:20:17 4.6 C 77 %
1103 02-04-2015 05:32:17 4.4 C 79 %
1104 02-04-2015 05:44:17 4.5 C 79 %
1105 02-04-2015 05:56:17 4.3 C 81 %
1106 02-04-2015 06:08:17 4.3 C 81 %
1107 02-04-2015 06:20:17 4.2 C 82 %
1108 02-04-2015 06:32:17 4.3 C 82 %
1109 02-04-2015 06:44:17 4.3 C 83 %
1110 02-04-2015 06:56:17 4.2 C 84 %
1111 02-04-2015 07:08:17 4.1 C 85 %
1112 02-04-2015 07:20:17 4.1 C 85 %
1113 02-04-2015 07:32:17 4.2 C 85 %
1114 02-04-2015 07:44:17 4.2 C 85 %
1115 02-04-2015 07:56:17 4.2 C 86 %
1116 02-04-2015 08:08:17 4.3 C 86 %
1117 02-04-2015 08:20:17 4.3 C 86 %
1118 02-04-2015 08:32:17 4.5 C 86 %
1119 02-04-2015 08:44:17 4.5 C 87 %
1120 02-04-2015 08:56:17 4.5 C 87 %
1121 02-04-2015 09:08:17 4.7 C 86 %
1122 02-04-2015 09:20:17 4.9 C 85 %
1123 02-04-2015 09:32:17 5.1 C 84 %
1124 02-04-2015 09:44:17 5.2 C 83 %
1125 02-04-2015 09:56:17 5.2 C 83 %
Sensor: Nr:Datum:Temp:Feuchte:
Aussen-T/F 1126 02-04-2015 10:08:17 5.3 C 83 %
1127 02-04-2015 10:20:17 5.5 C 82 %
1128 02-04-2015 10:32:17 5.2 C 80 %
1129 02-04-2015 10:44:17 5.2 C 80 %
1130 02-04-2015 10:56:17 5.1 C 77 %
1131 02-04-2015 11:08:17 5.1 C 77 %
1132 02-04-2015 11:20:17 5.6 C 77 %
1133 02-04-2015 11:32:17 5.9 C 74 %
1134 02-04-2015 11:44:17 5.9 C 70 %
1135 02-04-2015 11:56:17 6.2 C 66 %
1136 02-04-2015 12:08:17 6.1 C 62 %
1137 02-04-2015 12:20:17 5.9 C 61 %
1138 02-04-2015 12:32:17 6.1 C 60 %
1139 02-04-2015 12:44:17 6.4 C 58 %
1140 02-04-2015 12:56:17 7.1 C 54 %
1141 02-04-2015 13:08:17 6.7 C 51 %
1142 02-04-2015 13:20:17 7 C 52 %
1143 02-04-2015 13:32:17 7.6 C 48 %
1144 02-04-2015 13:44:17 7.9 C 46 %
1145 02-04-2015 13:56:17 8.1 C 47 %
1146 02-04-2015 14:08:17 7.7 C 49 %
1147 02-04-2015 14:20:17 8.1 C 47 %
1148 02-04-2015 14:32:17 8 C 47 %
1149 02-04-2015 14:44:18 7.4 C 50 %
1150 02-04-2015 14:56:17 7.9 C 49 %
Sensor: Nr:Datum:Temp:Feuchte:
Aussen-T/F 1151 02-04-2015 15:08:17 7.9 C 46 %
1152 02-04-2015 15:20:17 8.7 C 45 %
1153 02-04-2015 15:32:17 8.8 C 43 %
1154 02-04-2015 15:44:17 9.2 C 40 %
1155 02-04-2015 15:56:17 9 C 37 %
1156 02-04-2015 16:08:17 9.1 C 36 %
1157 02-04-2015 16:20:17 9.3 C 39 %
1158 02-04-2015 16:32:17 8.9 C 38 %
1159 02-04-2015 16:44:17 9.1 C 36 %
1160 02-04-2015 16:56:17 9 C 38 %
1161 02-04-2015 17:08:17 9.8 C 36 %
1162 02-04-2015 17:20:17 8.7 C 37 %
1163 02-04-2015 17:32:17 8.7 C 38 %
1164 02-04-2015 17:44:17 8.5 C 37 %
1165 02-04-2015 17:56:17 9.5 C 36 %
1166 02-04-2015 18:08:17 9.9 C 36 %
1167 02-04-2015 18:20:17 9.7 C 36 %
1168 02-04-2015 18:32:17 9 C 36 %
1169 02-04-2015 18:44:17 10.3 C 33 %
1170 02-04-2015 18:56:17 11.4 C 32 %
1171 02-04-2015 19:08:17 8.8 C 36 %
1172 02-04-2015 19:20:17 7.8 C 40 %
1173 02-04-2015 19:32:17 7.3 C 41 %
1174 02-04-2015 19:44:17 6.9 C 42 %
1175 02-04-2015 19:56:17 6.8 C 43 %
Sensor: Nr:Datum:Temp:Feuchte:
Aussen-T/F 1176 02-04-2015 20:08:17 6.2 C 45 %
1177 02-04-2015 20:20:17 6.2 C 45 %
1178 02-04-2015 20:32:17 6 C 45 %
1179 02-04-2015 20:44:17 5.8 C 46 %
1180 02-04-2015 20:56:17 5.9 C 47 %
1181 02-04-2015 21:08:17 5.8 C 47 %
1182 02-04-2015 21:20:17 5.3 C 50 %
1183 02-04-2015 21:32:17 5.1 C 52 %
1184 02-04-2015 21:44:17 4.6 C 55 %
1185 02-04-2015 21:56:17 4.1 C 58 %
1186 02-04-2015 22:08:17 4 C 59 %
1187 02-04-2015 22:20:17 3.8 C 61 %
1188 02-04-2015 22:32:17 3.9 C 62 %
1189 02-04-2015 22:44:17 3.7 C 63 %
1190 02-04-2015 22:56:17 3.9 C 62 %
1191 02-04-2015 23:08:17 4.4 C 58 %
1192 02-04-2015 23:20:17 4.3 C 58 %
1193 02-04-2015 23:32:17 4.3 C 58 %
1194 02-04-2015 23:44:17 3.7 C 61 %
1195 02-04-2015 23:56:17 3.2 C 64 %
1196 03-04-2015 00:08:18 3.1 C 66 %
1197 03-04-2015 00:20:17 2.7 C 67 %
1198 03-04-2015 00:32:17 2.8 C 68 %
1199 03-04-2015 00:44:17 2.8 C 68 %
1200 03-04-2015 00:56:17 2.5 C 69 %
Sensor: Nr:Datum:Temp:Feuchte:
Aussen-T/F 1201 03-04-2015 01:08:17 2 C 71 %
1202 03-04-2015 01:20:17 1.7 C 75 %
1203 03-04-2015 01:32:17 1.6 C 76 %
1204 03-04-2015 01:44:17 1.4 C 77 %
1205 03-04-2015 01:56:17 1.6 C 78 %
1206 03-04-2015 02:08:17 2 C 76 %
1207 03-04-2015 02:20:17 2.3 C 76 %
1208 03-04-2015 02:32:17 2.5 C 73 %
1209 03-04-2015 02:44:17 2.6 C 71 %
1210 03-04-2015 02:56:17 2.6 C 69 %
1211 03-04-2015 03:08:17 2.6 C 69 %
1212 03-04-2015 03:20:17 2.5 C 68 %
1213 03-04-2015 03:32:17 2 C 70 %
1214 03-04-2015 03:44:17 1.6 C 72 %
1215 03-04-2015 03:56:17 1 C 74 %
1216 03-04-2015 04:08:17 0.5 C 77 %
1217 03-04-2015 04:20:17 0.5 C 79 %
1218 03-04-2015 04:32:17 0.4 C 81 %
1219 03-04-2015 04:44:17 0.3 C 81 %
1220 03-04-2015 04:56:17 0.2 C 82 %
1221 03-04-2015 05:08:18 0 C 82 %
1222 03-04-2015 05:20:17 -0.3 C 83 %
1223 03-04-2015 05:32:17 -0.5 C 84 %
1224 03-04-2015 05:44:17 -0.5 C 85 %
1225 03-04-2015 05:56:17 -0.7 C 86 %
Sensor: Nr:Datum:Temp:Feuchte:
Aussen-T/F 1226 03-04-2015 06:08:17 -0.8 C 86 %
1227 03-04-2015 06:20:17 -0.9 C 87 %
1228 03-04-2015 06:32:17 -0.8 C 87 %
1229 03-04-2015 06:44:17 -0.8 C 87 %
1230 03-04-2015 06:56:17 -1 C 87 %
1231 03-04-2015 07:08:17 -0.8 C 88 %
1232 03-04-2015 07:20:17 -0.6 C 88 %
1233 03-04-2015 07:32:17 -0.7 C 88 %
1234 03-04-2015 07:44:17 -0.6 C 88 %
1235 03-04-2015 07:56:17 -0.6 C 88 %
1236 03-04-2015 08:08:17 -0.5 C 88 %
1237 03-04-2015 08:20:17 -0.5 C 87 %
1238 03-04-2015 08:32:17 -0.3 C 87 %
1239 03-04-2015 08:44:17 -0.3 C 87 %
1240 03-04-2015 08:56:17 -0.2 C 87 %
1241 03-04-2015 09:08:17 0.1 C 87 %
1242 03-04-2015 09:20:17 0.4 C 87 %
1243 03-04-2015 09:32:17 1.4 C 87 %
1244 03-04-2015 09:44:17 1.9 C 85 %
1245 03-04-2015 09:56:17 2 C 80 %
1246 03-04-2015 10:08:17 2.2 C 78 %
1247 03-04-2015 10:20:16 3.2 C 75 %
1248 03-04-2015 10:32:17 4.1 C 69 %
1249 03-04-2015 10:44:17 4.6 C 65 %
1250 03-04-2015 10:56:17 4.8 C 62 %
Sensor: Nr:Datum:Temp:Feuchte:
Aussen-T/F 1251 03-04-2015 11:08:17 5.2 C 61 %
1252 03-04-2015 11:20:17 6 C 59 %
1253 03-04-2015 11:32:17 6.7 C 54 %
1254 03-04-2015 11:44:17 7 C 50 %
1255 03-04-2015 11:56:17 7.3 C 48 %
1256 03-04-2015 12:08:17 7.7 C 46 %
1257 03-04-2015 12:20:17 8 C 46 %
1258 03-04-2015 12:32:17 8.8 C 45 %
1259 03-04-2015 12:44:17 9 C 43 %
1260 03-04-2015 12:56:17 9 C 42 %
1261 03-04-2015 13:08:17 9.1 C 43 %
1262 03-04-2015 13:20:17 9.2 C 42 %
1263 03-04-2015 13:32:17 9.3 C 40 %
1264 03-04-2015 13:44:17 9.4 C 41 %
1265 03-04-2015 13:56:17 9.7 C 39 %
1266 03-04-2015 14:08:17 10.2 C 37 %
1267 03-04-2015 14:20:17 10.4 C 36 %
1268 03-04-2015 14:32:17 10.8 C 36 %
1269 03-04-2015 14:44:17 10.8 C 34 %
1270 03-04-2015 14:56:17 10.8 C 34 %
1271 03-04-2015 15:08:17 11 C 35 %
1272 03-04-2015 15:20:17 11.1 C 32 %
1273 03-04-2015 15:32:17 11.4 C 33 %
1274 03-04-2015 15:44:17 11.5 C 33 %
1275 03-04-2015 15:56:17 11.8 C 33 %
Sensor: Nr:Datum:Temp:Feuchte:
Aussen-T/F 1276 03-04-2015 16:08:17 12 C 31 %
1277 03-04-2015 16:20:17 12.5 C 30 %
1278 03-04-2015 16:32:17 12.5 C 30 %
1279 03-04-2015 16:44:17 12.6 C 30 %
1280 03-04-2015 16:56:17 13.1 C 29 %
1281 03-04-2015 17:08:17 13 C 29 %
1282 03-04-2015 17:20:17 13 C 30 %
1283 03-04-2015 17:32:17 12.8 C 29 %
1284 03-04-2015 17:44:17 12.8 C 30 %
1285 03-04-2015 17:56:17 13 C 28 %
1286 03-04-2015 18:08:17 12.5 C 28 %
1287 03-04-2015 18:20:17 12.2 C 30 %
1288 03-04-2015 18:32:17 11.7 C 30 %
1289 03-04-2015 18:44:17 11.3 C 33 %
1290 03-04-2015 18:56:17 11 C 36 %
1291 03-04-2015 19:08:17 10.2 C 42 %
1292 03-04-2015 19:20:17 10.1 C 37 %
1293 03-04-2015 19:32:17 9.3 C 47 %
1294 03-04-2015 19:44:17 8.6 C 51 %
1295 03-04-2015 19:56:17 8 C 52 %
1296 03-04-2015 20:08:17 7.7 C 55 %
1297 03-04-2015 20:20:17 7.6 C 56 %
1298 03-04-2015 20:32:17 7.4 C 56 %
1299 03-04-2015 20:44:17 7.2 C 56 %
1300 03-04-2015 20:56:17 7.1 C 56 %
Sensor: Nr:Datum:Temp:Feuchte:
Aussen-T/F 1301 03-04-2015 21:08:17 7 C 56 %
1302 03-04-2015 21:20:17 6.8 C 58 %
1303 03-04-2015 21:32:17 6.6 C 58 %
1304 03-04-2015 21:44:17 6.7 C 56 %
1305 03-04-2015 21:56:17 6.5 C 57 %
1306 03-04-2015 22:08:17 6.3 C 59 %
1307 03-04-2015 22:20:17 6.3 C 61 %
1308 03-04-2015 22:32:17 6.3 C 62 %
1309 03-04-2015 22:44:17 6.4 C 62 %
1310 03-04-2015 22:56:17 6.3 C 62 %
1311 03-04-2015 23:08:17 6.7 C 60 %
1312 03-04-2015 23:20:17 6.5 C 61 %
1313 03-04-2015 23:32:17 6.5 C 61 %
1314 03-04-2015 23:44:17 6.7 C 61 %
1315 03-04-2015 23:56:17 6.4 C 62 %
1316 04-04-2015 00:08:17 6.5 C 61 %
1317 04-04-2015 00:20:17 6.6 C 61 %
1318 04-04-2015 00:32:17 6.7 C 61 %
1319 04-04-2015 00:44:17 6.7 C 61 %
1320 04-04-2015 00:56:17 6.6 C 62 %
1321 04-04-2015 01:08:17 6.5 C 63 %
1322 04-04-2015 01:20:17 6.4 C 63 %
1323 04-04-2015 01:32:17 6.2 C 63 %
1324 04-04-2015 01:44:17 5.8 C 65 %
1325 04-04-2015 01:56:17 5.8 C 66 %
Sensor: Nr:Datum:Temp:Feuchte:
Aussen-T/F 1326 04-04-2015 02:08:17 5.7 C 68 %
1327 04-04-2015 02:20:17 5.6 C 69 %
1328 04-04-2015 02:32:17 5.6 C 70 %
1329 04-04-2015 02:44:17 5.6 C 70 %
1330 04-04-2015 02:56:17 5.5 C 71 %
1331 04-04-2015 03:08:17 5.5 C 72 %
1332 04-04-2015 03:20:17 5.5 C 72 %
1333 04-04-2015 03:32:17 5.6 C 72 %
1334 04-04-2015 03:44:17 5.6 C 72 %
1335 04-04-2015 03:56:17 5.6 C 72 %
1336 04-04-2015 04:08:17 5.6 C 71 %
1337 04-04-2015 04:20:17 5.7 C 71 %
1338 04-04-2015 04:32:17 5.5 C 72 %
1339 04-04-2015 04:44:17 5.3 C 73 %
1340 04-04-2015 04:56:17 5.3 C 74 %
1341 04-04-2015 05:08:17 5.3 C 74 %
1342 04-04-2015 05:20:17 5.3 C 75 %
1343 04-04-2015 05:32:17 5.2 C 75 %
1344 04-04-2015 05:44:17 5.2 C 76 %
1345 04-04-2015 05:56:17 5.2 C 76 %
1346 04-04-2015 06:08:17 5.2 C 75 %
1347 04-04-2015 06:20:17 5.2 C 76 %
1348 04-04-2015 06:32:17 5.2 C 78 %
1349 04-04-2015 06:44:17 5 C 81 %
1350 04-04-2015 06:56:17 5 C 83 %
Sensor: Nr:Datum:Temp:Feuchte:
Aussen-T/F 1351 04-04-2015 07:08:17 4.9 C 85 %
1352 04-04-2015 07:20:17 4.8 C 87 %
1353 04-04-2015 07:32:17 4.7 C 87 %
1354 04-04-2015 07:44:17 4.6 C 87 %
1355 04-04-2015 07:56:17 4.5 C 88 %
1356 04-04-2015 08:08:17 4.5 C 88 %
1357 04-04-2015 08:20:17 4.3 C 88 %
1358 04-04-2015 08:32:17 4.3 C 88 %
1359 04-04-2015 08:44:17 4.3 C 88 %
1360 04-04-2015 08:56:17 4.4 C 89 %
1361 04-04-2015 09:08:17 4.4 C 89 %
1362 04-04-2015 09:20:17 4.4 C 89 %
1363 04-04-2015 09:32:17 4.2 C 88 %
1364 04-04-2015 09:44:17 4.3 C 88 %
1365 04-04-2015 09:56:17 4.2 C 89 %
1366 04-04-2015 10:08:17 4.2 C 89 %
1367 04-04-2015 10:20:17 4.1 C 88 %
1368 04-04-2015 10:32:17 4.2 C 88 %
1369 04-04-2015 10:44:17 4.2 C 88 %
1370 04-04-2015 10:56:17 4.3 C 89 %
1371 04-04-2015 11:08:17 4.4 C 89 %
1372 04-04-2015 11:20:17 4.3 C 89 %
1373 04-04-2015 11:32:17 4.5 C 89 %
1374 04-04-2015 11:44:17 4.7 C 89 %
1375 04-04-2015 11:56:17 4.7 C 87 %
Sensor: Nr:Datum:Temp:Feuchte:
Aussen-T/F 1376 04-04-2015 12:08:17 4.8 C 85 %
1377 04-04-2015 12:20:17 5.1 C 83 %
1378 04-04-2015 12:32:17 5.5 C 83 %
1379 04-04-2015 12:44:17 5.8 C 81 %
1380 04-04-2015 12:56:17 5.9 C 79 %
1381 04-04-2015 13:08:17 6.3 C 74 %
1382 04-04-2015 13:20:17 6.5 C 67 %
1383 04-04-2015 13:32:17 7.3 C 65 %
1384 04-04-2015 13:44:17 8 C 60 %
1385 04-04-2015 13:56:17 7.9 C 57 %
1386 04-04-2015 14:08:17 8 C 54 %
1387 04-04-2015 14:20:17 8.1 C 55 %
1388 04-04-2015 14:32:17 7.2 C 58 %
1389 04-04-2015 14:44:17 7.5 C 63 %
1390 04-04-2015 14:56:17 8.4 C 59 %
1391 04-04-2015 15:08:17 8.2 C 58 %
1392 04-04-2015 15:20:17 7.6 C 58 %
1393 04-04-2015 15:32:17 7.5 C 59 %
1394 04-04-2015 15:44:17 8.1 C 56 %
1395 04-04-2015 15:56:17 9 C 52 %
1396 04-04-2015 16:08:17 8.6 C 45 %
1397 04-04-2015 16:20:17 9.1 C 37 %
1398 04-04-2015 16:32:17 10.3 C 35 %
1399 04-04-2015 16:44:17 10.4 C 33 %
1400 04-04-2015 16:56:17 10.2 C 30 %
Sensor: Nr:Datum:Temp:Feuchte:
Aussen-T/F 1401 04-04-2015 17:08:17 10.8 C 31 %
1402 04-04-2015 17:20:17 11.4 C 28 %
1403 04-04-2015 17:32:17 10.8 C 30 %
1404 04-04-2015 17:44:17 10.1 C 30 %
1405 04-04-2015 17:56:16 10.5 C 28 %
1406 04-04-2015 18:08:17 11.1 C 29 %
1407 04-04-2015 18:20:17 10.2 C 30 %
1408 04-04-2015 18:32:17 10 C 30 %
1409 04-04-2015 18:44:17 10.7 C 28 %
1410 04-04-2015 18:56:17 10.3 C 26 %
1411 04-04-2015 19:08:17 8.6 C 31 %
1412 04-04-2015 19:20:17 7.7 C 34 %
1413 04-04-2015 19:32:17 7.4 C 34 %
1414 04-04-2015 19:44:17 7 C 35 %
1415 04-04-2015 19:56:17 6.7 C 36 %
1416 04-04-2015 20:08:17 6.4 C 36 %
1417 04-04-2015 20:20:17 6.1 C 38 %
1418 04-04-2015 20:32:17 5.7 C 41 %
1419 04-04-2015 20:44:17 5.1 C 45 %
1420 04-04-2015 20:56:17 4.3 C 51 %
1421 04-04-2015 21:08:17 3.6 C 56 %
1422 04-04-2015 21:20:17 3 C 61 %
1423 04-04-2015 21:32:17 2.5 C 62 %
1424 04-04-2015 21:44:17 2.4 C 63 %
1425 04-04-2015 21:56:17 2.6 C 65 %
Sensor: Nr:Datum:Temp:Feuchte:
Aussen-T/F 1426 04-04-2015 22:08:18 2.2 C 67 %
1427 04-04-2015 22:20:17 2.1 C 67 %
1428 04-04-2015 22:32:17 2.2 C 66 %
1429 04-04-2015 22:44:17 2.3 C 65 %
1430 04-04-2015 22:56:16 1.8 C 68 %
1431 04-04-2015 23:08:17 1.3 C 68 %
1432 04-04-2015 23:20:17 1.3 C 69 %
1433 04-04-2015 23:32:17 1 C 71 %
1434 04-04-2015 23:44:17 1.1 C 73 %
1435 04-04-2015 23:56:17 1 C 74 %
1436 05-04-2015 00:08:17 1 C 75 %
1437 05-04-2015 00:20:17 0.7 C 76 %
1438 05-04-2015 00:32:17 1.2 C 74 %
1439 05-04-2015 00:44:17 1.3 C 74 %
1440 05-04-2015 00:56:17 1.3 C 73 %
1441 05-04-2015 01:08:17 1.2 C 74 %
1442 05-04-2015 01:20:17 1.1 C 74 %
1443 05-04-2015 01:32:17 1.1 C 73 %
1444 05-04-2015 01:44:17 1.1 C 73 %
1445 05-04-2015 01:56:17 0.8 C 76 %
1446 05-04-2015 02:08:17 0.6 C 75 %
1447 05-04-2015 02:20:17 0.6 C 76 %
1448 05-04-2015 02:32:17 0.3 C 78 %
1449 05-04-2015 02:44:17 0.2 C 79 %
1450 05-04-2015 02:56:17 0.5 C 81 %
Sensor: Nr:Datum:Temp:Feuchte:
Aussen-T/F 1451 05-04-2015 03:08:17 0.7 C 83 %
1452 05-04-2015 03:20:17 0.8 C 83 %
1453 05-04-2015 03:32:17 0.9 C 84 %
1454 05-04-2015 03:44:17 1 C 83 %
1455 05-04-2015 03:56:17 0.8 C 84 %
1456 05-04-2015 04:08:17 0.6 C 84 %
1457 05-04-2015 04:20:17 0.6 C 84 %
1458 05-04-2015 04:32:17 0.7 C 85 %
1459 05-04-2015 04:44:17 0.8 C 84 %
1460 05-04-2015 04:56:17 0.8 C 85 %
1461 05-04-2015 05:08:17 0.7 C 84 %
1462 05-04-2015 05:20:17 0.6 C 84 %
1463 05-04-2015 05:32:17 0.8 C 85 %
1464 05-04-2015 05:44:17 1 C 84 %
1465 05-04-2015 05:56:17 1 C 83 %
1466 05-04-2015 06:08:17 0.5 C 83 %
1467 05-04-2015 06:20:17 0.3 C 84 %
1468 05-04-2015 06:32:17 0.2 C 84 %
1469 05-04-2015 06:44:17 0.2 C 85 %
1470 05-04-2015 06:56:17 0.1 C 85 %
1471 05-04-2015 07:08:17 0.1 C 85 %
1472 05-04-2015 07:20:17 0.3 C 86 %
1473 05-04-2015 07:32:17 0.3 C 86 %
1474 05-04-2015 07:44:17 0.3 C 86 %
1475 05-04-2015 07:56:17 0.4 C 86 %
Sensor: Nr:Datum:Temp:Feuchte:
Aussen-T/F 1476 05-04-2015 08:08:17 0.5 C 87 %
1477 05-04-2015 08:20:17 0.4 C 87 %
1478 05-04-2015 08:32:16 0.6 C 87 %
1479 05-04-2015 08:44:16 0.8 C 87 %
1480 05-04-2015 08:56:17 0.8 C 87 %
1481 05-04-2015 09:08:17 1 C 86 %
1482 05-04-2015 09:20:17 1.2 C 86 %
1483 05-04-2015 09:32:17 1.4 C 86 %
1484 05-04-2015 09:44:17 1.6 C 86 %
1485 05-04-2015 09:56:17 1.9 C 85 %
1486 05-04-2015 10:08:17 2.2 C 84 %
1487 05-04-2015 10:20:17 2.6 C 83 %
1488 05-04-2015 10:32:17 3.2 C 79 %
1489 05-04-2015 10:44:17 3.7 C 76 %
1490 05-04-2015 10:56:17 4.6 C 68 %
1491 05-04-2015 11:08:17 5.3 C 61 %
1492 05-04-2015 11:20:17 5.9 C 57 %
1493 05-04-2015 11:32:17 5.9 C 55 %
1494 05-04-2015 11:44:17 5.2 C 61 %
1495 05-04-2015 11:56:16 5.7 C 62 %
1496 05-04-2015 12:08:17 7 C 48 %
1497 05-04-2015 12:20:17 7.1 C 47 %
1498 05-04-2015 12:32:17 7.4 C 47 %
1499 05-04-2015 12:44:17 7.7 C 45 %
1500 05-04-2015 12:56:17 7.6 C 44 %
Sensor: Nr:Datum:Temp:Feuchte:
Aussen-T/F 1501 05-04-2015 13:08:17 8.2 C 40 %
1502 05-04-2015 13:20:17 9.1 C 38 %
1503 05-04-2015 13:32:17 8.8 C 39 %
1504 05-04-2015 13:44:17 8.8 C 38 %
1505 05-04-2015 13:56:17 9 C 34 %
1506 05-04-2015 14:08:17 8.9 C 32 %
1507 05-04-2015 14:20:17 9.8 C 30 %
1508 05-04-2015 14:32:17 9.7 C 32 %
1509 05-04-2015 14:44:17 10 C 30 %
1510 05-04-2015 14:56:17 10 C 28 %
1511 05-04-2015 15:08:17 10 C 26 %
1512 05-04-2015 15:20:17 11.2 C 25 %
1513 05-04-2015 15:32:17 10.6 C 20 %
1514 05-04-2015 15:44:17 10.8 C 23 %
1515 05-04-2015 15:56:17 11.8 C 20 %
1516 05-04-2015 16:08:17 11 C 20 %
1517 05-04-2015 16:20:17 10.4 C 25 %
1518 05-04-2015 16:32:17 10.3 C 25 %
1519 05-04-2015 16:44:17 10.4 C 21 %
1520 05-04-2015 16:56:17 12.2 C 20 %
1521 05-04-2015 17:08:17 11.5 C 24 %
1522 05-04-2015 17:20:17 13.8 C 20 %
1523 05-04-2015 17:32:17 13.6 C 20 %
1524 05-04-2015 17:44:17 11.3 C 20 %
1525 05-04-2015 17:56:17 11.2 C 23 %
Sensor: Nr:Datum:Temp:Feuchte:
Aussen-T/F 1526 05-04-2015 18:08:17 11.3 C 20 %
1527 05-04-2015 18:20:17 10.4 C 25 %
1528 05-04-2015 18:32:17 10.2 C 25 %
1529 05-04-2015 18:44:17 11.8 C 23 %
1530 05-04-2015 18:56:17 13.5 C 20 %
1531 05-04-2015 19:08:17 10.8 C 23 %
1532 05-04-2015 19:20:17 10 C 26 %
1533 05-04-2015 19:32:17 9.5 C 29 %
1534 05-04-2015 19:44:17 9.2 C 30 %
1535 05-04-2015 19:56:17 8.9 C 28 %
1536 05-04-2015 20:08:17 8.7 C 29 %
1537 05-04-2015 20:20:17 8.1 C 34 %
1538 05-04-2015 20:32:17 6.7 C 43 %
1539 05-04-2015 20:44:17 5.9 C 48 %
1540 05-04-2015 20:56:16 5 C 49 %
1541 05-04-2015 21:08:17 4.5 C 51 %
1542 05-04-2015 21:20:17 4.2 C 55 %
1543 05-04-2015 21:32:17 3.9 C 56 %
1544 05-04-2015 21:44:17 3.7 C 58 %
1545 05-04-2015 21:56:17 3.5 C 60 %
1546 05-04-2015 22:08:17 3.4 C 60 %
1547 05-04-2015 22:20:17 3 C 62 %
1548 05-04-2015 22:32:17 2.8 C 62 %
1549 05-04-2015 22:44:17 2.6 C 62 %
1550 05-04-2015 22:56:17 2.6 C 62 %
Sensor: Nr:Datum:Temp:Feuchte:
Aussen-T/F 1551 05-04-2015 23:08:17 2.5 C 65 %
1552 05-04-2015 23:20:17 2.2 C 67 %
1553 05-04-2015 23:32:17 1.7 C 69 %
1554 05-04-2015 23:44:17 1.4 C 70 %
1555 05-04-2015 23:56:17 1 C 71 %
1556 06-04-2015 00:08:17 0.9 C 72 %
1557 06-04-2015 00:20:17 0.6 C 72 %
1558 06-04-2015 00:32:17 0.5 C 72 %
1559 06-04-2015 00:44:17 0.4 C 73 %
1560 06-04-2015 00:56:17 0.7 C 74 %
1561 06-04-2015 01:08:17 0.7 C 74 %
1562 06-04-2015 01:20:17 0.4 C 73 %
1563 06-04-2015 01:32:17 0.2 C 73 %
1564 06-04-2015 01:44:17 0.2 C 74 %
1565 06-04-2015 01:56:17 0.2 C 74 %
1566 06-04-2015 02:08:17 0.1 C 74 %
1567 06-04-2015 02:20:17 0.2 C 74 %
1568 06-04-2015 02:32:17 0.4 C 75 %
1569 06-04-2015 02:44:18 0.2 C 75 %
1570 06-04-2015 02:56:17 0.7 C 74 %
1571 06-04-2015 03:08:17 1 C 73 %
1572 06-04-2015 03:20:17 1.1 C 73 %
1573 06-04-2015 03:32:17 1.2 C 71 %
1574 06-04-2015 03:44:17 1.1 C 71 %
1575 06-04-2015 03:56:17 1.1 C 71 %
Sensor: Nr:Datum:Temp:Feuchte:
Aussen-T/F 1576 06-04-2015 04:08:18 1.1 C 71 %
1577 06-04-2015 04:20:17 1.1 C 70 %
1578 06-04-2015 04:32:17 1.1 C 70 %
1579 06-04-2015 04:44:17 1.2 C 69 %
1580 06-04-2015 04:56:17 1.2 C 69 %
1581 06-04-2015 05:08:17 1.3 C 68 %
1582 06-04-2015 05:20:17 1 C 69 %
1583 06-04-2015 05:32:17 0.8 C 71 %
1584 06-04-2015 05:44:17 0.5 C 72 %
1585 06-04-2015 05:56:17 0.6 C 75 %
1586 06-04-2015 06:08:17 0.8 C 76 %
1587 06-04-2015 06:20:17 0.9 C 75 %
1588 06-04-2015 06:32:17 1 C 74 %
1589 06-04-2015 06:44:17 1.1 C 73 %
1590 06-04-2015 06:56:17 1.1 C 72 %
1591 06-04-2015 07:08:17 1.2 C 72 %
1592 06-04-2015 07:20:17 1.2 C 72 %
1593 06-04-2015 07:32:17 1.3 C 72 %
1594 06-04-2015 07:44:17 1.4 C 72 %
1595 06-04-2015 07:56:17 1.5 C 72 %
1596 06-04-2015 08:08:17 1.6 C 71 %
1597 06-04-2015 08:20:17 1.8 C 71 %
1598 06-04-2015 08:32:17 1.9 C 69 %
1599 06-04-2015 08:44:17 2 C 68 %
1600 06-04-2015 08:56:17 2.3 C 69 %
Sensor: Nr:Datum:Temp:Feuchte:
Aussen-T/F 1601 06-04-2015 09:08:17 2.5 C 68 %
1602 06-04-2015 09:20:17 2.5 C 68 %
1603 06-04-2015 09:32:17 2.8 C 68 %
1604 06-04-2015 09:44:17 3.4 C 67 %
1605 06-04-2015 09:56:17 3.8 C 65 %
1606 06-04-2015 10:08:17 4.1 C 64 %
1607 06-04-2015 10:20:16 4.4 C 63 %
1608 06-04-2015 10:32:17 4.6 C 62 %
1609 06-04-2015 10:44:17 4.9 C 62 %
1610 06-04-2015 10:56:17 5.2 C 61 %
1611 06-04-2015 11:08:17 5.4 C 61 %
1612 06-04-2015 11:20:17 5.6 C 60 %
1613 06-04-2015 11:32:17 6 C 60 %
1614 06-04-2015 11:44:17 6.5 C 57 %
1615 06-04-2015 11:56:17 7.4 C 53 %
1616 06-04-2015 12:08:17 7.9 C 52 %
1617 06-04-2015 12:20:17 7.9 C 52 %
1618 06-04-2015 12:32:17 8.3 C 51 %
1619 06-04-2015 12:44:17 8.5 C 49 %
1620 06-04-2015 12:56:17 8.7 C 50 %
1621 06-04-2015 13:08:17 8.9 C 49 %
1622 06-04-2015 13:20:17 8.9 C 47 %
1623 06-04-2015 13:32:17 9.1 C 45 %
1624 06-04-2015 13:44:17 9.2 C 45 %
1625 06-04-2015 13:56:17 9.2 C 45 %
Sensor: Nr:Datum:Temp:Feuchte:
Aussen-T/F 1626 06-04-2015 14:08:17 8.8 C 46 %
1627 06-04-2015 14:20:17 8.8 C 46 %
1628 06-04-2015 14:32:17 9 C 46 %
1629 06-04-2015 14:44:18 9.7 C 46 %
1630 06-04-2015 14:56:17 10.1 C 45 %
1631 06-04-2015 15:08:17 9.8 C 46 %
1632 06-04-2015 15:20:17 9.6 C 47 %
1633 06-04-2015 15:32:17 9.7 C 47 %
1634 06-04-2015 15:44:17 10.5 C 46 %
1635 06-04-2015 15:56:17 11.3 C 44 %
1636 06-04-2015 16:08:17 11.4 C 43 %
1637 06-04-2015 16:20:17 11.6 C 42 %
1638 06-04-2015 16:32:17 12.7 C 40 %
1639 06-04-2015 16:44:17 12.2 C 40 %
1640 06-04-2015 16:56:17 12.9 C 41 %
1641 06-04-2015 17:08:17 12.5 C 38 %
1642 06-04-2015 17:20:17 12.4 C 40 %
1643 06-04-2015 17:32:17 13.2 C 37 %
1644 06-04-2015 17:44:17 12.5 C 38 %
1645 06-04-2015 17:56:17 11.4 C 43 %
1646 06-04-2015 18:08:17 10.8 C 45 %
1647 06-04-2015 18:20:17 12.2 C 40 %
1648 06-04-2015 18:32:17 11 C 43 %
1649 06-04-2015 18:44:17 10.4 C 46 %
1650 06-04-2015 18:56:17 9.9 C 47 %
Sensor: Nr:Datum:Temp:Feuchte:
Aussen-T/F 1651 06-04-2015 19:08:17 9.6 C 48 %
1652 06-04-2015 19:20:17 9.7 C 48 %
1653 06-04-2015 19:32:17 9.5 C 48 %
1654 06-04-2015 19:44:17 9.2 C 50 %
1655 06-04-2015 19:56:17 8.8 C 53 %
1656 06-04-2015 20:08:17 8.4 C 57 %
1657 06-04-2015 20:20:17 7.5 C 59 %
1658 06-04-2015 20:32:17 7.1 C 61 %
1659 06-04-2015 20:44:17 5.5 C 67 %
1660 06-04-2015 20:56:17 5.2 C 70 %
1661 06-04-2015 21:08:17 5.2 C 71 %
1662 06-04-2015 21:20:17 4.8 C 73 %
1663 06-04-2015 21:32:17 4.6 C 75 %
1664 06-04-2015 21:44:17 4.5 C 76 %
1665 06-04-2015 21:56:17 4.5 C 77 %
1666 06-04-2015 22:08:17 4.3 C 77 %
1667 06-04-2015 22:20:17 4.1 C 78 %
1668 06-04-2015 22:32:17 4 C 78 %
1669 06-04-2015 22:44:17 3.9 C 80 %
1670 06-04-2015 22:56:17 3.7 C 80 %
1671 06-04-2015 23:08:17 3.6 C 81 %
1672 06-04-2015 23:20:17 3.3 C 81 %
1673 06-04-2015 23:32:17 2.9 C 82 %
1674 06-04-2015 23:44:17 2.5 C 83 %
1675 06-04-2015 23:56:17 2.2 C 83 %
Sensor: Nr:Datum:Temp:Feuchte:
Aussen-T/F 1676 07-04-2015 00:08:17 2 C 84 %
1677 07-04-2015 00:20:17 1.7 C 85 %
1678 07-04-2015 00:32:17 1.5 C 86 %
1679 07-04-2015 00:44:17 1.5 C 87 %
1680 07-04-2015 00:56:17 1.3 C 87 %
1681 07-04-2015 01:08:17 1.3 C 87 %
1682 07-04-2015 01:20:17 1.1 C 87 %
1683 07-04-2015 01:32:17 0.8 C 88 %
1684 07-04-2015 01:44:17 0.7 C 89 %
1685 07-04-2015 01:56:17 0.6 C 89 %
1686 07-04-2015 02:08:17 0.6 C 89 %
1687 07-04-2015 02:20:17 0.5 C 90 %
1688 07-04-2015 02:32:17 0.5 C 90 %
1689 07-04-2015 02:44:17 0.5 C 90 %
1690 07-04-2015 02:56:17 0.3 C 90 %
1691 07-04-2015 03:08:17 0.1 C 90 %
1692 07-04-2015 03:20:17 0 C 90 %
1693 07-04-2015 03:32:17 -0.3 C 91 %
1694 07-04-2015 03:44:17 0.1 C 91 %
1695 07-04-2015 03:56:17 0.1 C 92 %
1696 07-04-2015 04:08:17 -0.1 C 92 %
1697 07-04-2015 04:20:17 -0.4 C 92 %
1698 07-04-2015 04:32:17 -0.5 C 92 %
1699 07-04-2015 04:44:17 -0.3 C 92 %
1700 07-04-2015 04:56:17 -0.4 C 92 %
Sensor: Nr:Datum:Temp:Feuchte:
Aussen-T/F 1701 07-04-2015 05:08:17 -0.6 C 92 %
1702 07-04-2015 05:20:17 -0.6 C 92 %
1703 07-04-2015 05:32:17 -0.7 C 93 %
1704 07-04-2015 05:44:17 -0.8 C 93 %
1705 07-04-2015 05:56:16 -0.8 C 93 %
1706 07-04-2015 06:08:17 -0.7 C 93 %
1707 07-04-2015 06:20:17 -0.9 C 93 %
1708 07-04-2015 06:32:17 -0.9 C 93 %
1709 07-04-2015 06:44:17 -0.5 C 94 %
1710 07-04-2015 06:56:17 -0.3 C 94 %
1711 07-04-2015 07:08:17 -0.2 C 94 %
1712 07-04-2015 07:20:17 -0.5 C 94 %
1713 07-04-2015 07:32:17 -0.3 C 94 %
1714 07-04-2015 07:44:17 -0.4 C 94 %
1715 07-04-2015 07:56:17 -0.2 C 94 %
1716 07-04-2015 08:08:17 -0.1 C 94 %
1717 07-04-2015 08:20:17 0 C 94 %
1718 07-04-2015 08:32:17 0 C 94 %
1719 07-04-2015 08:44:17 0.1 C 94 %
1720 07-04-2015 08:56:17 0.4 C 94 %
1721 07-04-2015 09:08:17 0.4 C 94 %
1722 07-04-2015 09:20:17 0.8 C 94 %
1723 07-04-2015 09:32:17 1.2 C 93 %
1724 07-04-2015 09:44:17 1.1 C 92 %
1725 07-04-2015 09:56:17 2 C 92 %
Sensor: Nr:Datum:Temp:Feuchte:
Aussen-T/F 1726 07-04-2015 10:08:17 2 C 90 %
1727 07-04-2015 10:20:17 2.4 C 90 %
1728 07-04-2015 10:32:17 2.8 C 88 %
1729 07-04-2015 10:44:17 3.1 C 85 %
1730 07-04-2015 10:56:17 3.9 C 84 %
1731 07-04-2015 11:08:17 4.5 C 81 %
1732 07-04-2015 11:20:17 5.7 C 73 %
1733 07-04-2015 11:32:17 6.1 C 69 %
1734 07-04-2015 11:44:17 6.5 C 65 %
1735 07-04-2015 11:56:17 7.2 C 61 %
1736 07-04-2015 12:08:17 7.7 C 58 %
1737 07-04-2015 12:20:17 8.4 C 47 %
1738 07-04-2015 12:32:17 8.9 C 44 %
1739 07-04-2015 12:44:17 9.3 C 40 %
1740 07-04-2015 12:56:17 9.5 C 40 %
1741 07-04-2015 13:08:17 10.1 C 40 %
1742 07-04-2015 13:20:17 10.2 C 40 %
1743 07-04-2015 13:32:17 10.6 C 39 %
1744 07-04-2015 13:44:17 10.5 C 38 %
1745 07-04-2015 13:56:17 10.9 C 40 %
1746 07-04-2015 14:08:17 11.4 C 36 %
1747 07-04-2015 14:20:17 12.4 C 35 %
1748 07-04-2015 14:32:17 12.7 C 33 %
1749 07-04-2015 14:44:17 12.8 C 32 %
1750 07-04-2015 14:56:17 13.2 C 31 %
Sensor: Nr:Datum:Temp:Feuchte:
Aussen-T/F 1751 07-04-2015 15:08:17 13.3 C 30 %
1752 07-04-2015 15:20:17 13.4 C 30 %
1753 07-04-2015 15:32:17 13.5 C 30 %
1754 07-04-2015 15:44:17 13.8 C 29 %
1755 07-04-2015 15:56:17 14.4 C 26 %
1756 07-04-2015 16:08:17 14.4 C 28 %
1757 07-04-2015 16:20:17 14.2 C 27 %
1758 07-04-2015 16:32:17 15.2 C 27 %
1759 07-04-2015 16:44:17 14.9 C 28 %
1760 07-04-2015 16:56:17 14.8 C 30 %
1761 07-04-2015 17:08:17 14.2 C 29 %
1762 07-04-2015 17:20:17 14 C 29 %
1763 07-04-2015 17:32:17 13.8 C 30 %
1764 07-04-2015 17:44:17 14.1 C 30 %
1765 07-04-2015 17:56:17 14.1 C 30 %
1766 07-04-2015 18:08:17 13.9 C 31 %
1767 07-04-2015 18:20:17 13.6 C 31 %
1768 07-04-2015 18:32:17 13.4 C 34 %
1769 07-04-2015 18:44:17 13.2 C 35 %
1770 07-04-2015 18:56:17 12.6 C 40 %
1771 07-04-2015 19:08:17 12.2 C 40 %
1772 07-04-2015 19:20:17 12.1 C 37 %
1773 07-04-2015 19:32:17 11.8 C 40 %
1774 07-04-2015 19:44:17 11.7 C 40 %
1775 07-04-2015 19:56:17 10.1 C 47 %
Sensor: Nr:Datum:Temp:Feuchte:
Aussen-T/F 1776 07-04-2015 20:08:17 9.3 C 50 %
1777 07-04-2015 20:20:17 8.9 C 51 %
1778 07-04-2015 20:32:17 8.8 C 50 %
1779 07-04-2015 20:44:17 8.6 C 52 %
1780 07-04-2015 20:56:17 7.7 C 56 %
1781 07-04-2015 21:08:17 7.3 C 57 %
1782 07-04-2015 21:20:17 7.1 C 58 %
1783 07-04-2015 21:32:17 6.6 C 61 %
1784 07-04-2015 21:44:17 6.4 C 62 %
1785 07-04-2015 21:56:17 6.1 C 63 %
1786 07-04-2015 22:08:17 5.7 C 66 %
1787 07-04-2015 22:20:17 5.4 C 67 %
1788 07-04-2015 22:32:17 5.2 C 68 %
1789 07-04-2015 22:44:17 4.9 C 70 %
1790 07-04-2015 22:56:17 4.6 C 71 %
1791 07-04-2015 23:08:17 4.4 C 71 %
1792 07-04-2015 23:20:17 4.4 C 71 %
1793 07-04-2015 23:32:17 4.2 C 71 %
1794 07-04-2015 23:44:17 3.7 C 72 %
1795 07-04-2015 23:56:17 3.4 C 73 %
1796 08-04-2015 00:08:17 3.3 C 74 %
1797 08-04-2015 00:20:17 3.2 C 75 %
1798 08-04-2015 00:32:17 3.1 C 77 %
1799 08-04-2015 00:44:17 3 C 77 %
1800 08-04-2015 00:56:17 2.9 C 78 %
Sensor: Nr:Datum:Temp:Feuchte:
Aussen-T/F 1801 08-04-2015 01:08:17 2.9 C 79 %
1802 08-04-2015 01:20:17 2.7 C 79 %
1803 08-04-2015 01:32:17 2.9 C 80 %
1804 08-04-2015 01:44:17 2.9 C 80 %
1805 08-04-2015 01:56:17 3 C 79 %
1806 08-04-2015 02:08:17 3 C 78 %
1807 08-04-2015 02:20:17 2.8 C 79 %
1808 08-04-2015 02:32:17 2.6 C 79 %
1809 08-04-2015 02:44:17 2.8 C 80 %
1810 08-04-2015 02:56:17 2.6 C 80 %
1811 08-04-2015 03:08:17 2.4 C 80 %
1812 08-04-2015 03:20:17 2.1 C 81 %
1813 08-04-2015 03:32:17 2 C 81 %
1814 08-04-2015 03:44:17 2.2 C 82 %
1815 08-04-2015 03:56:17 2.2 C 82 %
1816 08-04-2015 04:08:17 2.1 C 82 %
1817 08-04-2015 04:20:17 1.9 C 83 %
1818 08-04-2015 04:32:17 2 C 83 %
1819 08-04-2015 04:44:17 1.9 C 84 %
1820 08-04-2015 04:56:17 1.7 C 84 %
1821 08-04-2015 05:08:17 1.7 C 84 %
1822 08-04-2015 05:20:17 1.5 C 85 %
1823 08-04-2015 05:32:17 1.5 C 85 %
1824 08-04-2015 05:44:17 1 C 84 %
1825 08-04-2015 05:56:17 1 C 85 %
Sensor: Nr:Datum:Temp:Feuchte:
Aussen-T/F 1826 08-04-2015 06:08:17 0.9 C 86 %
1827 08-04-2015 06:20:17 0.9 C 87 %
1828 08-04-2015 06:32:17 0.8 C 87 %
1829 08-04-2015 06:44:17 0.7 C 87 %
1830 08-04-2015 06:56:17 0.7 C 88 %
1831 08-04-2015 07:08:17 0.5 C 88 %
1832 08-04-2015 07:20:17 0.6 C 88 %
1833 08-04-2015 07:32:17 1 C 88 %
1834 08-04-2015 07:44:17 1.2 C 89 %
1835 08-04-2015 07:56:17 1.2 C 89 %
1836 08-04-2015 08:08:17 1.5 C 89 %
1837 08-04-2015 08:20:17 1.9 C 89 %
1838 08-04-2015 08:32:17 2.2 C 89 %
1839 08-04-2015 08:44:17 2.4 C 88 %
1840 08-04-2015 08:56:17 2.8 C 87 %
1841 08-04-2015 09:08:17 3.2 C 85 %
1842 08-04-2015 09:20:17 3.6 C 83 %
1843 08-04-2015 09:32:17 4 C 80 %
1844 08-04-2015 09:44:17 4.3 C 77 %
1845 08-04-2015 09:56:17 4.6 C 75 %
1846 08-04-2015 10:08:17 5 C 72 %
1847 08-04-2015 10:20:17 5.1 C 71 %
1848 08-04-2015 10:32:17 6.1 C 68 %
1849 08-04-2015 10:44:17 7.1 C 65 %
1850 08-04-2015 10:56:17 7.9 C 65 %
Sensor: Nr:Datum:Temp:Feuchte:
Aussen-T/F 1851 08-04-2015 11:08:18 8.8 C 61 %
1852 08-04-2015 11:20:17 9 C 59 %
1853 08-04-2015 11:32:17 9.1 C 58 %
1854 08-04-2015 11:44:17 9.3 C 58 %
1855 08-04-2015 11:56:17 9.8 C 58 %
1856 08-04-2015 12:08:17 10.1 C 56 %
1857 08-04-2015 12:20:17 10.6 C 56 %
1858 08-04-2015 12:32:17 10.8 C 54 %
1859 08-04-2015 12:44:17 11 C 54 %
1860 08-04-2015 12:56:17 11.3 C 54 %
1861 08-04-2015 13:08:17 11.4 C 53 %
1862 08-04-2015 13:20:17 11.6 C 53 %
1863 08-04-2015 13:32:17 12.1 C 52 %
1864 08-04-2015 13:44:17 12.3 C 50 %
1865 08-04-2015 13:56:17 12.9 C 49 %
1866 08-04-2015 14:08:17 13.1 C 47 %
1867 08-04-2015 14:20:17 13.2 C 47 %
1868 08-04-2015 14:32:17 13.9 C 46 %
1869 08-04-2015 14:44:17 14.3 C 43 %
1870 08-04-2015 14:56:17 14.6 C 43 %
1871 08-04-2015 15:08:18 14.7 C 43 %
1872 08-04-2015 15:20:17 15.4 C 41 %
1873 08-04-2015 15:32:17 15.2 C 41 %
1874 08-04-2015 15:44:17 16.2 C 41 %
1875 08-04-2015 15:56:17 16.4 C 40 %
Sensor: Nr:Datum:Temp:Feuchte:
Aussen-T/F 1876 08-04-2015 16:08:17 16.5 C 38 %
1877 08-04-2015 16:20:17 16.9 C 37 %
1878 08-04-2015 16:32:17 16.9 C 36 %
1879 08-04-2015 16:44:17 17 C 36 %
1880 08-04-2015 16:56:17 17.1 C 35 %
1881 08-04-2015 17:08:17 17.5 C 35 %
1882 08-04-2015 17:20:17 18.9 C 33 %
1883 08-04-2015 17:32:17 19.1 C 32 %
1884 08-04-2015 17:44:17 18.9 C 34 %
1885 08-04-2015 17:56:17 18.6 C 34 %
1886 08-04-2015 18:08:17 18.2 C 33 %
1887 08-04-2015 18:20:17 18.5 C 34 %
1888 08-04-2015 18:32:17 18.7 C 35 %
1889 08-04-2015 18:44:17 19.2 C 33 %
1890 08-04-2015 18:56:17 19.3 C 32 %
1891 08-04-2015 19:08:17 16.5 C 38 %
1892 08-04-2015 19:20:17 15.2 C 42 %
1893 08-04-2015 19:32:17 14.6 C 44 %
1894 08-04-2015 19:44:17 14 C 46 %
1895 08-04-2015 19:56:17 13 C 49 %
1896 08-04-2015 20:08:17 11.8 C 55 %
1897 08-04-2015 20:20:17 11 C 58 %
1898 08-04-2015 20:32:17 10.9 C 59 %
1899 08-04-2015 20:44:17 10.8 C 60 %
1900 08-04-2015 20:56:17 10.1 C 60 %
Sensor: Nr:Datum:Temp:Feuchte:
Aussen-T/F 1901 08-04-2015 21:08:18 9.5 C 64 %
1902 08-04-2015 21:20:17 9.2 C 65 %
1903 08-04-2015 21:32:17 8.8 C 67 %
1904 08-04-2015 21:44:17 8.7 C 68 %
1905 08-04-2015 21:56:17 8.6 C 68 %
1906 08-04-2015 22:08:17 8.4 C 68 %
1907 08-04-2015 22:20:17 8.2 C 69 %
1908 08-04-2015 22:32:17 7.8 C 71 %
1909 08-04-2015 22:44:17 7.4 C 72 %
1910 08-04-2015 22:56:17 7.2 C 74 %
1911 08-04-2015 23:08:17 7.2 C 75 %
1912 08-04-2015 23:20:17 6.8 C 76 %
1913 08-04-2015 23:32:17 6.5 C 77 %
1914 08-04-2015 23:44:17 6.3 C 78 %
1915 08-04-2015 23:56:17 6 C 78 %
1916 09-04-2015 00:08:17 5.7 C 80 %
1917 09-04-2015 00:20:17 5.6 C 81 %
1918 09-04-2015 00:32:17 5.5 C 81 %
1919 09-04-2015 00:44:17 5.2 C 82 %
1920 09-04-2015 00:56:17 5.3 C 82 %
1921 09-04-2015 01:08:17 5.1 C 83 %
1922 09-04-2015 01:20:17 4.8 C 84 %
1923 09-04-2015 01:32:17 4.6 C 84 %
1924 09-04-2015 01:44:17 4.5 C 85 %
1925 09-04-2015 01:56:17 4.6 C 85 %
Sensor: Nr:Datum:Temp:Feuchte:
Aussen-T/F 1926 09-04-2015 02:08:18 4.6 C 86 %
1927 09-04-2015 02:20:17 4.3 C 86 %
1928 09-04-2015 02:32:17 4 C 86 %
1929 09-04-2015 02:44:17 4 C 87 %
1930 09-04-2015 02:56:17 3.9 C 88 %
1931 09-04-2015 03:08:17 3.7 C 88 %
1932 09-04-2015 03:20:17 3.6 C 88 %
1933 09-04-2015 03:32:17 3.5 C 89 %
1934 09-04-2015 03:44:17 3.4 C 89 %
1935 09-04-2015 03:56:17 3.5 C 89 %
1936 09-04-2015 04:08:17 3.5 C 90 %
1937 09-04-2015 04:20:17 3.5 C 90 %
1938 09-04-2015 04:32:17 3.2 C 90 %
1939 09-04-2015 04:44:17 3 C 90 %
1940 09-04-2015 04:56:17 3.2 C 90 %
1941 09-04-2015 05:08:17 3 C 90 %
1942 09-04-2015 05:20:17 2.8 C 91 %
1943 09-04-2015 05:32:17 2.9 C 92 %
1944 09-04-2015 05:44:17 2.7 C 92 %
1945 09-04-2015 05:56:17 2.3 C 91 %
1946 09-04-2015 06:08:17 2.2 C 92 %
1947 09-04-2015 06:20:17 2.3 C 92 %
1948 09-04-2015 06:32:17 2.2 C 92 %
1949 09-04-2015 06:44:17 2.2 C 92 %
1950 09-04-2015 06:56:17 2.2 C 92 %
Sensor: Nr:Datum:Temp:Feuchte:
Aussen-T/F 1951 09-04-2015 07:08:17 2.1 C 92 %
1952 09-04-2015 07:20:16 2.6 C 93 %
1953 09-04-2015 07:32:17 2.8 C 93 %
1954 09-04-2015 07:44:17 2.7 C 93 %
1955 09-04-2015 07:56:17 2.9 C 94 %
1956 09-04-2015 08:08:17 3 C 93 %
1957 09-04-2015 08:20:17 3.2 C 93 %
1958 09-04-2015 08:32:17 3.4 C 93 %
1959 09-04-2015 08:44:17 3.6 C 93 %
1960 09-04-2015 08:56:17 4.1 C 93 %
1961 09-04-2015 09:08:17 4.2 C 93 %
1962 09-04-2015 09:20:17 4.6 C 93 %
1963 09-04-2015 09:32:17 5 C 93 %
1964 09-04-2015 09:44:17 5.5 C 93 %
1965 09-04-2015 09:56:17 5.8 C 93 %
1966 09-04-2015 10:08:17 6.3 C 91 %
1967 09-04-2015 10:20:17 6.9 C 91 %
1968 09-04-2015 10:32:17 7.4 C 88 %
1969 09-04-2015 10:44:17 8.4 C 84 %
1970 09-04-2015 10:56:17 9.1 C 79 %
1971 09-04-2015 11:08:17 9.9 C 76 %
1972 09-04-2015 11:20:17 10.6 C 70 %
1973 09-04-2015 11:32:17 11.3 C 68 %
1974 09-04-2015 11:44:17 11.7 C 65 %
1975 09-04-2015 11:56:17 12.4 C 59 %
Sensor: Nr:Datum:Temp:Feuchte:
Aussen-T/F 1976 09-04-2015 12:08:17 13.3 C 56 %
1977 09-04-2015 12:20:17 13.6 C 54 %
1978 09-04-2015 12:32:17 13.8 C 51 %
1979 09-04-2015 12:44:17 14.2 C 50 %
1980 09-04-2015 12:56:17 14.4 C 50 %
1981 09-04-2015 13:08:17 14.7 C 50 %
1982 09-04-2015 13:20:17 15.1 C 48 %
1983 09-04-2015 13:32:17 15.4 C 46 %
1984 09-04-2015 13:44:17 15.7 C 46 %
1985 09-04-2015 13:56:17 16.9 C 45 %
1986 09-04-2015 14:08:18 16.7 C 42 %
1987 09-04-2015 14:20:17 17.2 C 41 %
1988 09-04-2015 14:32:17 17.9 C 41 %
1989 09-04-2015 14:44:17 18.3 C 40 %
1990 09-04-2015 14:56:17 19 C 37 %
1991 09-04-2015 15:08:17 18.9 C 40 %
1992 09-04-2015 15:20:17 18.9 C 40 %
1993 09-04-2015 15:32:17 19.3 C 39 %
1994 09-04-2015 15:44:17 19.7 C 38 %
1995 09-04-2015 15:56:17 19.6 C 38 %
1996 09-04-2015 16:08:18 20 C 37 %
1997 09-04-2015 16:20:17 20.8 C 36 %
1998 09-04-2015 16:32:17 20.7 C 36 %
1999 09-04-2015 16:44:17 21.2 C 33 %
2000 09-04-2015 16:56:17 21.2 C 33 %
Sensor: Nr:Datum:Temp:Feuchte:
Aussen-T/F 2001 09-04-2015 17:08:17 22.1 C 31 %
2002 09-04-2015 17:20:17 23.2 C 30 %
2003 09-04-2015 17:32:17 23.3 C 29 %
2004 09-04-2015 17:44:17 22.5 C 30 %
2005 09-04-2015 17:56:16 22.4 C 30 %
2006 09-04-2015 18:08:17 22.8 C 30 %
2007 09-04-2015 18:20:17 22.6 C 29 %
2008 09-04-2015 18:32:17 22.7 C 28 %
2009 09-04-2015 18:44:17 24.1 C 25 %
2010 09-04-2015 18:56:17 23.8 C 26 %
2011 09-04-2015 19:08:17 21.8 C 29 %
2012 09-04-2015 19:20:17 20.1 C 35 %
2013 09-04-2015 19:32:17 17.9 C 42 %
2014 09-04-2015 19:44:17 16.5 C 46 %
2015 09-04-2015 19:56:17 15.3 C 48 %
2016 09-04-2015 20:08:17 14.6 C 50 %
2017 09-04-2015 20:20:17 13.9 C 51 %
2018 09-04-2015 20:32:17 13.4 C 52 %
2019 09-04-2015 20:44:17 13.2 C 53 %
2020 09-04-2015 20:56:17 13.1 C 55 %
2021 09-04-2015 21:08:17 13.3 C 54 %
2022 09-04-2015 21:20:17 13.2 C 54 %
2023 09-04-2015 21:32:17 13.3 C 54 %
2024 09-04-2015 21:44:17 12.9 C 56 %
2025 09-04-2015 21:56:17 12.8 C 56 %
Sensor: Nr:Datum:Temp:Feuchte:
Aussen-T/F 2026 09-04-2015 22:08:17 12.8 C 56 %
2027 09-04-2015 22:20:17 12.6 C 56 %
2028 09-04-2015 22:32:17 11.8 C 60 %
2029 09-04-2015 22:44:17 11.4 C 62 %
2030 09-04-2015 22:56:17 11.2 C 63 %
2031 09-04-2015 23:08:17 11 C 63 %
2032 09-04-2015 23:20:17 10.4 C 64 %
2033 09-04-2015 23:32:17 9.7 C 66 %
2034 09-04-2015 23:44:17 10 C 68 %
2035 09-04-2015 23:56:17 9.7 C 69 %
2036 10-04-2015 00:08:17 9.2 C 69 %
2037 10-04-2015 00:20:17 9.2 C 71 %
2038 10-04-2015 00:32:17 8.8 C 72 %
2039 10-04-2015 00:44:17 8.6 C 72 %
2040 10-04-2015 00:56:17 8.2 C 73 %
2041 10-04-2015 01:08:17 7.9 C 75 %
2042 10-04-2015 01:20:17 7.8 C 76 %
2043 10-04-2015 01:32:17 7.5 C 77 %
2044 10-04-2015 01:44:17 7.4 C 78 %
2045 10-04-2015 01:56:17 7.2 C 78 %
2046 10-04-2015 02:08:17 7.2 C 79 %
2047 10-04-2015 02:20:17 6.9 C 80 %
2048 10-04-2015 02:32:17 6.8 C 81 %
2049 10-04-2015 02:44:17 6.8 C 82 %
2050 10-04-2015 02:56:17 6.6 C 82 %
Sensor: Nr:Datum:Temp:Feuchte:
Aussen-T/F 2051 10-04-2015 03:08:17 6.3 C 81 %
2052 10-04-2015 03:20:17 6.1 C 82 %
2053 10-04-2015 03:32:17 5.9 C 83 %
2054 10-04-2015 03:44:17 5.7 C 84 %
2055 10-04-2015 03:56:17 5.7 C 85 %
2056 10-04-2015 04:08:18 5.5 C 85 %
2057 10-04-2015 04:20:17 5.6 C 86 %
2058 10-04-2015 04:32:17 5.3 C 86 %
2059 10-04-2015 04:44:17 5.5 C 87 %
2060 10-04-2015 04:56:17 5 C 86 %
2061 10-04-2015 05:08:17 4.8 C 87 %
2062 10-04-2015 05:20:17 4.8 C 88 %
2063 10-04-2015 05:32:17 4.7 C 88 %
2064 10-04-2015 05:44:17 4.6 C 88 %
2065 10-04-2015 05:56:17 4.4 C 88 %
2066 10-04-2015 06:08:17 4.6 C 89 %
2067 10-04-2015 06:20:17 4.6 C 90 %
2068 10-04-2015 06:32:17 4.4 C 90 %
2069 10-04-2015 06:44:17 4 C 89 %
2070 10-04-2015 06:56:17 3.9 C 90 %
2071 10-04-2015 07:08:17 3.8 C 91 %
2072 10-04-2015 07:20:17 3.9 C 91 %
2073 10-04-2015 07:32:17 4.1 C 91 %
2074 10-04-2015 07:44:17 4.1 C 91 %
2075 10-04-2015 07:56:17 4.4 C 91 %
Sensor: Nr:Datum:Temp:Feuchte:
Aussen-T/F 2076 10-04-2015 08:08:17 4.7 C 92 %
2077 10-04-2015 08:20:17 5 C 91 %
2078 10-04-2015 08:32:17 5.2 C 92 %
2079 10-04-2015 08:44:17 5.4 C 91 %
2080 10-04-2015 08:56:17 5.7 C 92 %
2081 10-04-2015 09:08:17 5.7 C 91 %
2082 10-04-2015 09:20:17 5.8 C 91 %
2083 10-04-2015 09:32:17 6.1 C 90 %
2084 10-04-2015 09:44:17 6.5 C 90 %
2085 10-04-2015 09:56:17 7.1 C 89 %
2086 10-04-2015 10:08:17 7.6 C 89 %
2087 10-04-2015 10:20:17 8.8 C 86 %
2088 10-04-2015 10:32:17 9.3 C 81 %
2089 10-04-2015 10:44:17 10.1 C 76 %
2090 10-04-2015 10:56:17 10.7 C 74 %
2091 10-04-2015 11:08:17 11.6 C 71 %
2092 10-04-2015 11:20:17 12.2 C 69 %
2093 10-04-2015 11:32:17 13 C 64 %
2094 10-04-2015 11:44:17 13.6 C 63 %
2095 10-04-2015 11:56:17 14.4 C 56 %
2096 10-04-2015 12:08:17 15.2 C 50 %
2097 10-04-2015 12:20:17 16 C 46 %
2098 10-04-2015 12:32:17 16.3 C 46 %
2099 10-04-2015 12:44:17 16.8 C 45 %
2100 10-04-2015 12:56:17 17.2 C 39 %
Sensor: Nr:Datum:Temp:Feuchte:
Aussen-T/F 2101 10-04-2015 13:08:17 17.9 C 37 %
2102 10-04-2015 13:20:17 18.1 C 35 %
2103 10-04-2015 13:32:17 18.6 C 34 %
2104 10-04-2015 13:44:17 19.3 C 34 %
2105 10-04-2015 13:56:17 19.7 C 33 %
2106 10-04-2015 14:08:17 19.9 C 33 %
2107 10-04-2015 14:20:17 20.4 C 32 %
2108 10-04-2015 14:32:17 21 C 29 %
2109 10-04-2015 14:44:17 21.6 C 27 %
2110 10-04-2015 14:57:17 22.3 C 25 %
2111 10-04-2015 15:08:17 22.4 C 23 %
2112 10-04-2015 15:20:17 23 C 21 %
2113 10-04-2015 15:32:17 23.4 C 20 %
2114 10-04-2015 15:44:17 23.6 C 20 %
2115 10-04-2015 15:56:17 24.1 C 20 %
2116 10-04-2015 16:08:17 24.5 C 20 %
2117 10-04-2015 16:20:17 24.9 C 20 %
2118 10-04-2015 16:32:17 24.9 C 20 %
2119 10-04-2015 16:44:17 24.9 C 20 %
2120 10-04-2015 16:57:17 25.1 C 20 %
2121 10-04-2015 17:08:17 25.9 C 20 %
2122 10-04-2015 17:20:17 26.5 C 20 %
2123 10-04-2015 17:32:17 26.4 C 20 %
2124 10-04-2015 17:44:17 25.7 C 20 %
2125 10-04-2015 17:57:16 25.1 C 20 %
Sensor: Nr:Datum:Temp:Feuchte:
Aussen-T/F 2126 10-04-2015 18:08:17 25.5 C 20 %
2127 10-04-2015 18:21:17 25 C 20 %
2128 10-04-2015 18:44:17 23.2 C 20 %
2129 10-04-2015 18:44:17 21.8 C 26 %
2130 10-04-2015 18:56:17 21.2 C 28 %
2131 10-04-2015 19:08:17 19.1 C 35 %
2132 10-04-2015 19:21:17 18.7 C 36 %
2133 10-04-2015 19:44:17 18 C 37 %
2134 10-04-2015 19:45:17 17.3 C 39 %
2135 10-04-2015 19:56:17 16.7 C 39 %
2136 10-04-2015 20:08:17 15.8 C 41 %
2137 10-04-2015 20:20:17 15.1 C 41 %
2138 10-04-2015 20:44:17 14.7 C 43 %
2139 10-04-2015 20:44:17 14.2 C 44 %
2140 10-04-2015 20:56:17 13.9 C 45 %
2141 10-04-2015 21:08:17 13.5 C 45 %
2142 10-04-2015 21:21:17 13.3 C 46 %
2143 10-04-2015 21:33:17 13 C 45 %
2144 10-04-2015 21:45:17 12.9 C 46 %
2145 10-04-2015 21:56:17 12.6 C 47 %
2146 10-04-2015 22:08:17 12.1 C 47 %
2147 10-04-2015 22:20:17 11.6 C 49 %
2148 10-04-2015 22:33:17 11.4 C 48 %
2149 10-04-2015 22:44:17 11.1 C 50 %
2150 10-04-2015 22:56:17 10.9 C 50 %
Sensor: Nr:Datum:Temp:Feuchte:
Aussen-T/F 2151 10-04-2015 23:08:17 10.9 C 50 %
2152 10-04-2015 23:21:17 10.5 C 50 %
2153 10-04-2015 23:32:17 10.2 C 52 %
2154 10-04-2015 23:44:17 10.2 C 51 %
2155 10-04-2015 23:57:17 10.3 C 51 %
2156 11-04-2015 00:09:17 10.1 C 51 %
2157 11-04-2015 00:21:17 10.2 C 50 %
2158 11-04-2015 00:44:17 10.1 C 51 %
2159 11-04-2015 00:45:17 10 C 51 %
2160 11-04-2015 00:57:17 9.8 C 52 %
2161 11-04-2015 01:09:17 10.2 C 48 %
2162 11-04-2015 01:20:17 10.1 C 49 %
2163 11-04-2015 01:33:17 9.7 C 52 %
2164 11-04-2015 01:45:17 9.4 C 54 %
2165 11-04-2015 01:57:17 8.8 C 55 %
2166 11-04-2015 02:09:17 8.5 C 57 %
2167 11-04-2015 02:21:17 8.4 C 57 %
2168 11-04-2015 02:33:17 8.2 C 59 %
2169 11-04-2015 02:45:17 8.2 C 58 %
2170 11-04-2015 02:57:17 8.1 C 58 %
2171 11-04-2015 03:09:17 8.1 C 58 %
2172 11-04-2015 03:21:17 8.1 C 56 %
2173 11-04-2015 03:33:18 7.8 C 58 %
2174 11-04-2015 03:45:17 7.9 C 61 %
2175 11-04-2015 03:57:17 8.4 C 57 %
Sensor: Nr:Datum:Temp:Feuchte:
Aussen-T/F 2176 11-04-2015 04:09:17 8.7 C 55 %
2177 11-04-2015 04:21:17 8.5 C 55 %
2178 11-04-2015 04:33:17 8.4 C 57 %
2179 11-04-2015 04:45:17 7.9 C 60 %
2180 11-04-2015 04:57:17 7.6 C 61 %
2181 11-04-2015 05:09:17 7.4 C 63 %
2182 11-04-2015 05:21:17 7.4 C 63 %
2183 11-04-2015 05:33:17 7.3 C 63 %
2184 11-04-2015 05:45:17 7 C 64 %
2185 11-04-2015 05:57:17 6.9 C 66 %
2186 11-04-2015 06:09:17 6.9 C 66 %
2187 11-04-2015 06:21:17 6.6 C 67 %
2188 11-04-2015 06:33:17 7.2 C 64 %
2189 11-04-2015 06:45:17 7.7 C 60 %
2190 11-04-2015 06:57:17 7.5 C 61 %
2191 11-04-2015 07:09:17 7.4 C 64 %
2192 11-04-2015 07:21:17 8.4 C 60 %
2193 11-04-2015 07:33:17 8.6 C 55 %
2194 11-04-2015 07:45:17 8.3 C 57 %
2195 11-04-2015 07:57:17 8.6 C 57 %
2196 11-04-2015 08:09:17 9 C 56 %
2197 11-04-2015 08:21:17 9.3 C 56 %
2198 11-04-2015 08:33:17 9.4 C 56 %
2199 11-04-2015 08:45:17 9.5 C 58 %
2200 11-04-2015 08:57:17 9.8 C 58 %
Sensor: Nr:Datum:Temp:Feuchte:
Aussen-T/F 2201 11-04-2015 09:09:17 10.7 C 58 %
2202 11-04-2015 09:21:17 12.4 C 53 %
2203 11-04-2015 09:33:17 13.6 C 50 %
2204 11-04-2015 09:45:17 14.4 C 47 %
2205 11-04-2015 09:57:17 14.7 C 48 %
2206 11-04-2015 10:09:17 15 C 47 %
2207 11-04-2015 10:21:17 14.6 C 49 %
2208 11-04-2015 10:33:17 14.5 C 50 %
2209 11-04-2015 10:45:17 15 C 49 %
2210 11-04-2015 10:57:17 15.5 C 48 %
2211 11-04-2015 11:09:17 15.6 C 47 %
2212 11-04-2015 11:21:17 15.6 C 47 %
2213 11-04-2015 11:33:17 15.4 C 47 %
2214 11-04-2015 11:45:17 16 C 46 %
2215 11-04-2015 11:57:17 16 C 47 %
2216 11-04-2015 12:09:17 15.9 C 48 %
2217 11-04-2015 12:21:17 15.7 C 49 %
2218 11-04-2015 12:33:17 16.2 C 47 %
2219 11-04-2015 12:45:17 16.8 C 46 %
2220 11-04-2015 12:57:17 16.4 C 47 %
2221 11-04-2015 13:09:17 16.4 C 47 %
2222 11-04-2015 13:21:17 15.6 C 51 %
2223 11-04-2015 13:33:17 16.5 C 49 %
2224 11-04-2015 13:45:17 16.3 C 49 %
2225 11-04-2015 13:57:17 15.3 C 51 %
Sensor: Nr:Datum:Temp:Feuchte:
Aussen-T/F 2226 11-04-2015 14:09:17 15.6 C 52 %
2227 11-04-2015 14:21:17 16.5 C 49 %
2228 11-04-2015 14:33:17 17.2 C 47 %
2229 11-04-2015 14:45:17 17.4 C 45 %
2230 11-04-2015 14:57:17 17.2 C 45 %
2231 11-04-2015 15:09:17 16.6 C 48 %
2232 11-04-2015 15:21:17 16 C 49 %
2233 11-04-2015 15:33:17 15.7 C 51 %
2234 11-04-2015 15:45:17 16 C 50 %
2235 11-04-2015 15:57:17 16.3 C 48 %
2236 11-04-2015 16:09:17 17.4 C 45 %
2237 11-04-2015 16:21:17 16.5 C 46 %
2238 11-04-2015 16:33:17 16.8 C 46 %
2239 11-04-2015 16:45:17 16.4 C 46 %
2240 11-04-2015 16:57:17 15.8 C 48 %
2241 11-04-2015 17:09:17 16 C 48 %
2242 11-04-2015 17:21:17 16.4 C 47 %
2243 11-04-2015 17:33:17 16.8 C 46 %
2244 11-04-2015 17:45:17 16 C 49 %
2245 11-04-2015 17:57:17 15.4 C 51 %
2246 11-04-2015 18:09:17 15.3 C 52 %
2247 11-04-2015 18:21:17 14.9 C 53 %
2248 11-04-2015 18:33:17 14.7 C 52 %
2249 11-04-2015 18:45:17 14.8 C 50 %
2250 11-04-2015 18:57:17 15 C 49 %
Sensor: Nr:Datum:Temp:Feuchte:
Aussen-T/F 2251 11-04-2015 19:09:17 14.8 C 50 %
2252 11-04-2015 19:21:17 14.5 C 51 %
2253 11-04-2015 19:33:17 14.3 C 51 %
2254 11-04-2015 19:45:17 14.3 C 51 %
2255 11-04-2015 19:57:17 13.9 C 54 %
2256 11-04-2015 20:09:17 13.7 C 55 %
2257 11-04-2015 20:21:17 13.7 C 56 %
2258 11-04-2015 20:33:17 13.5 C 56 %
2259 11-04-2015 20:45:17 13.5 C 57 %
2260 11-04-2015 20:57:17 13.3 C 58 %
2261 11-04-2015 21:09:17 13 C 61 %
2262 11-04-2015 21:21:17 12.9 C 62 %
2263 11-04-2015 21:33:17 13 C 62 %
2264 11-04-2015 21:45:17 11.5 C 73 %
2265 11-04-2015 21:57:17 10.4 C 77 %
2266 11-04-2015 22:09:17 10.2 C 81 %
2267 11-04-2015 22:21:17 10.1 C 83 %
2268 11-04-2015 22:33:17 9.7 C 78 %
2269 11-04-2015 22:45:17 9 C 72 %
2270 11-04-2015 22:57:17 9.1 C 70 %
2271 11-04-2015 23:09:17 8.9 C 74 %
2272 11-04-2015 23:21:17 8.8 C 75 %
2273 11-04-2015 23:33:17 9 C 74 %
2274 11-04-2015 23:45:17 9 C 73 %
2275 11-04-2015 23:57:17 8.8 C 74 %
Sensor: Nr:Datum:Temp:Feuchte:
Aussen-T/F 2276 12-04-2015 00:09:17 8.9 C 72 %
2277 12-04-2015 00:21:17 8.7 C 72 %
2278 12-04-2015 00:33:17 8.5 C 72 %
2279 12-04-2015 00:45:17 8.3 C 74 %
2280 12-04-2015 00:57:17 8.3 C 77 %
2281 12-04-2015 01:09:17 8.1 C 78 %
2282 12-04-2015 01:21:16 8.1 C 78 %
2283 12-04-2015 01:33:17 7.9 C 79 %
2284 12-04-2015 01:45:17 7.8 C 80 %
2285 12-04-2015 01:57:17 7.6 C 80 %
2286 12-04-2015 02:09:17 7.6 C 80 %
2287 12-04-2015 02:21:17 7.3 C 80 %
2288 12-04-2015 02:33:17 7.1 C 79 %
2289 12-04-2015 02:45:17 7.2 C 79 %
2290 12-04-2015 02:57:17 7.4 C 79 %
2291 12-04-2015 03:09:18 7.3 C 80 %
2292 12-04-2015 03:21:17 7.3 C 80 %
2293 12-04-2015 03:33:17 6.8 C 80 %
2294 12-04-2015 03:45:16 6.4 C 80 %
2295 12-04-2015 03:57:17 5.9 C 81 %
2296 12-04-2015 04:09:17 5.5 C 81 %
2297 12-04-2015 04:21:17 5.2 C 81 %
2298 12-04-2015 04:33:17 5.2 C 82 %
2299 12-04-2015 04:45:17 5.6 C 84 %
2300 12-04-2015 04:57:17 5.4 C 84 %
Sensor: Nr:Datum:Temp:Feuchte:
Aussen-T/F 2301 12-04-2015 05:09:18 5.2 C 84 %
2302 12-04-2015 05:21:17 5 C 85 %
2303 12-04-2015 05:33:17 4.9 C 87 %
2304 12-04-2015 05:45:17 5 C 87 %
2305 12-04-2015 05:57:17 4.6 C 88 %
2306 12-04-2015 06:09:17 4.5 C 88 %
2307 12-04-2015 06:21:16 4.7 C 89 %
2308 12-04-2015 06:33:17 5.1 C 89 %
2309 12-04-2015 06:45:17 4.8 C 90 %
2310 12-04-2015 06:57:17 4.8 C 90 %
2311 12-04-2015 07:09:17 4.4 C 90 %
2312 12-04-2015 07:21:17 4.4 C 89 %
2313 12-04-2015 07:33:17 4.9 C 90 %
2314 12-04-2015 07:45:17 5.4 C 89 %
2315 12-04-2015 07:57:17 5.9 C 89 %
2316 12-04-2015 08:09:17 6.2 C 87 %
2317 12-04-2015 08:21:17 6.3 C 85 %
2318 12-04-2015 08:33:17 6.7 C 82 %
2319 12-04-2015 08:45:17 7.1 C 78 %
2320 12-04-2015 08:57:17 7.3 C 76 %
2321 12-04-2015 09:09:17 7.5 C 75 %
2322 12-04-2015 09:21:17 7.4 C 74 %
2323 12-04-2015 09:33:17 7.5 C 74 %
2324 12-04-2015 09:45:16 8.1 C 70 %
2325 12-04-2015 09:57:16 8.4 C 67 %
Sensor: Nr:Datum:Temp:Feuchte:
Aussen-T/F 2326 12-04-2015 10:09:17 8.6 C 66 %
2327 12-04-2015 10:21:17 9.5 C 64 %
2328 12-04-2015 10:33:17 9.6 C 63 %
2329 12-04-2015 10:45:17 9.9 C 63 %
2330 12-04-2015 10:57:17 10.5 C 59 %
2331 12-04-2015 11:09:17 11.3 C 56 %
2332 12-04-2015 11:21:17 11.9 C 57 %
2333 12-04-2015 11:33:17 12.7 C 57 %
2334 12-04-2015 11:45:17 12.8 C 48 %
2335 12-04-2015 11:57:17 13 C 45 %
2336 12-04-2015 12:09:17 13 C 39 %
2337 12-04-2015 12:21:17 13.4 C 43 %
2338 12-04-2015 12:33:17 13.6 C 41 %
2339 12-04-2015 12:45:17 13.8 C 39 %
2340 12-04-2015 12:57:17 13.9 C 40 %
2341 12-04-2015 13:09:17 14.1 C 38 %
2342 12-04-2015 13:21:17 14.3 C 38 %
2343 12-04-2015 13:33:17 14.5 C 37 %
2344 12-04-2015 13:45:17 14.8 C 39 %
2345 12-04-2015 13:57:17 14.9 C 37 %
2346 12-04-2015 14:09:17 15.2 C 33 %
2347 12-04-2015 14:21:17 15.6 C 33 %
2348 12-04-2015 14:33:17 15.8 C 35 %
2349 12-04-2015 14:45:17 16.4 C 32 %
2350 12-04-2015 14:57:17 16.7 C 31 %
Sensor: Nr:Datum:Temp:Feuchte:
Aussen-T/F 2351 12-04-2015 15:09:17 17 C 30 %
2352 12-04-2015 15:21:17 17.6 C 30 %
2353 12-04-2015 15:33:17 17.7 C 27 %
2354 12-04-2015 15:45:17 18.3 C 30 %
2355 12-04-2015 15:57:17 18.7 C 30 %
2356 12-04-2015 16:09:17 18.6 C 26 %
2357 12-04-2015 16:21:17 19.4 C 25 %
2358 12-04-2015 16:33:17 19.3 C 26 %
2359 12-04-2015 16:45:17 19.6 C 25 %
2360 12-04-2015 16:57:17 19.7 C 26 %
2361 12-04-2015 17:09:17 20.6 C 25 %
2362 12-04-2015 17:21:17 21.1 C 24 %
2363 12-04-2015 17:33:17 20.8 C 25 %
2364 12-04-2015 17:45:17 20.7 C 25 %
2365 12-04-2015 17:57:18 20.8 C 26 %
2366 12-04-2015 18:09:17 20.8 C 26 %
2367 12-04-2015 18:21:17 21.1 C 25 %
2368 12-04-2015 18:33:17 21.6 C 23 %
2369 12-04-2015 18:45:17 21.1 C 24 %
2370 12-04-2015 18:57:17 19.5 C 27 %
2371 12-04-2015 19:09:17 17.7 C 33 %
2372 12-04-2015 19:21:17 17.4 C 33 %
2373 12-04-2015 19:33:17 17.2 C 35 %
2374 12-04-2015 19:45:17 16.9 C 35 %
2375 12-04-2015 19:57:17 15.9 C 40 %
Sensor: Nr:Datum:Temp:Feuchte:
Aussen-T/F 2376 12-04-2015 20:09:17 14.4 C 43 %
2377 12-04-2015 20:21:17 13.8 C 46 %
2378 12-04-2015 20:33:17 12.8 C 49 %
2379 12-04-2015 20:45:17 12.2 C 51 %
2380 12-04-2015 20:57:17 12 C 54 %
2381 12-04-2015 21:09:17 11.8 C 55 %
2382 12-04-2015 21:21:17 11.6 C 55 %
2383 12-04-2015 21:33:17 11.1 C 56 %
2384 12-04-2015 21:45:17 11 C 57 %
2385 12-04-2015 21:57:17 11 C 57 %
2386 12-04-2015 22:09:17 10.9 C 58 %
2387 12-04-2015 22:21:17 10.6 C 59 %
2388 12-04-2015 22:33:17 10.5 C 58 %
2389 12-04-2015 22:45:17 10 C 60 %
2390 12-04-2015 22:57:17 9.8 C 61 %
2391 12-04-2015 23:09:17 9.8 C 62 %
2392 12-04-2015 23:21:17 9.6 C 63 %
2393 12-04-2015 23:33:17 9.4 C 64 %
2394 12-04-2015 23:45:17 9.5 C 65 %
2395 12-04-2015 23:57:17 9.7 C 65 %
2396 13-04-2015 00:09:17 9.3 C 65 %
2397 13-04-2015 00:21:17 9.1 C 66 %
2398 13-04-2015 00:33:17 8.9 C 68 %
2399 13-04-2015 00:45:17 8.8 C 68 %
2400 13-04-2015 00:57:17 8.6 C 70 %
Sensor: Nr:Datum:Temp:Feuchte:
Aussen-T/F 2401 13-04-2015 01:09:17 8.9 C 72 %
2402 13-04-2015 01:21:17 9.3 C 72 %
2403 13-04-2015 01:33:17 10 C 69 %
2404 13-04-2015 01:45:17 10.2 C 67 %
2405 13-04-2015 01:57:17 10.8 C 65 %
2406 13-04-2015 02:09:17 11.3 C 63 %
2407 13-04-2015 02:21:17 11.1 C 62 %
2408 13-04-2015 02:33:17 11.1 C 62 %
2409 13-04-2015 02:45:17 10.9 C 63 %
2410 13-04-2015 02:57:17 10.9 C 63 %
2411 13-04-2015 03:09:17 11.1 C 63 %
2412 13-04-2015 03:21:17 11.1 C 63 %
2413 13-04-2015 03:33:17 11.3 C 62 %
2414 13-04-2015 03:45:17 11.4 C 63 %
2415 13-04-2015 03:57:17 11.6 C 62 %
2416 13-04-2015 04:09:17 11.7 C 61 %
2417 13-04-2015 04:21:17 11.5 C 62 %
2418 13-04-2015 04:33:17 11.2 C 63 %
2419 13-04-2015 04:45:17 11 C 63 %
2420 13-04-2015 04:57:17 11 C 63 %
2421 13-04-2015 05:09:17 10.5 C 64 %
2422 13-04-2015 05:21:17 10.5 C 65 %
2423 13-04-2015 05:33:18 11 C 58 %
2424 13-04-2015 05:45:17 11.1 C 54 %
2425 13-04-2015 05:57:17 10.7 C 55 %
Sensor: Nr:Datum:Temp:Feuchte:
Aussen-T/F 2426 13-04-2015 06:09:17 10.4 C 56 %
2427 13-04-2015 06:21:17 10 C 57 %
2428 13-04-2015 06:33:17 9.4 C 60 %
2429 13-04-2015 06:45:17 9 C 62 %
2430 13-04-2015 06:57:17 9.4 C 63 %
2431 13-04-2015 07:09:17 10 C 61 %
2432 13-04-2015 07:21:17 10.4 C 59 %
2433 13-04-2015 07:33:17 10.6 C 57 %
2434 13-04-2015 07:45:17 10.7 C 56 %
2435 13-04-2015 07:57:17 10.7 C 57 %
2436 13-04-2015 08:09:17 10.6 C 59 %
2437 13-04-2015 08:21:17 10.8 C 58 %
2438 13-04-2015 08:33:17 10.6 C 59 %
2439 13-04-2015 08:45:17 10.7 C 61 %
2440 13-04-2015 08:57:17 10.6 C 62 %
2441 13-04-2015 09:09:17 10.4 C 62 %
2442 13-04-2015 09:21:17 10.4 C 63 %
2443 13-04-2015 09:33:17 10.8 C 62 %
2444 13-04-2015 09:45:17 10.7 C 62 %
2445 13-04-2015 09:57:17 10.6 C 62 %
2446 13-04-2015 10:09:17 10.4 C 62 %
2447 13-04-2015 10:21:17 10.4 C 62 %
2448 13-04-2015 10:33:17 10.6 C 61 %
2449 13-04-2015 10:45:17 11 C 57 %
2450 13-04-2015 10:57:17 10.8 C 59 %
Sensor: Nr:Datum:Temp:Feuchte:
Aussen-T/F 2451 13-04-2015 11:09:17 11.3 C 56 %
2452 13-04-2015 11:21:17 10.8 C 59 %
2453 13-04-2015 11:33:17 11.2 C 57 %
2454 13-04-2015 11:45:17 11.6 C 54 %
2455 13-04-2015 11:57:17 11.8 C 54 %
2456 13-04-2015 12:09:16 12.1 C 51 %
2457 13-04-2015 12:21:17 12 C 51 %
2458 13-04-2015 12:33:17 11.5 C 53 %
2459 13-04-2015 12:45:17 11.9 C 52 %
2460 13-04-2015 12:57:17 11.7 C 51 %
2461 13-04-2015 13:09:17 11.9 C 50 %
2462 13-04-2015 13:21:17 12.2 C 48 %
2463 13-04-2015 13:33:17 12.2 C 48 %
2464 13-04-2015 13:45:17 12.6 C 47 %
2465 13-04-2015 13:57:17 12.9 C 46 %
2466 13-04-2015 14:09:17 13.1 C 42 %
2467 13-04-2015 14:21:17 13.4 C 42 %
2468 13-04-2015 14:33:17 13.4 C 42 %
2469 13-04-2015 14:45:17 13.5 C 42 %
2470 13-04-2015 14:57:17 13.7 C 42 %
2471 13-04-2015 15:09:17 14.2 C 41 %
2472 13-04-2015 15:21:17 15.2 C 40 %
2473 13-04-2015 15:33:17 15.5 C 36 %
2474 13-04-2015 15:45:17 15.3 C 36 %
2475 13-04-2015 15:57:17 15.1 C 37 %
Sensor: Nr:Datum:Temp:Feuchte:
Aussen-T/F 2476 13-04-2015 16:09:17 15 C 35 %
2477 13-04-2015 16:21:17 15.4 C 35 %
2478 13-04-2015 16:33:17 14.8 C 35 %
2479 13-04-2015 16:45:17 15.5 C 34 %
2480 13-04-2015 16:57:17 15.7 C 33 %
2481 13-04-2015 17:09:17 15.1 C 35 %
2482 13-04-2015 17:21:17 14.8 C 35 %
2483 13-04-2015 17:33:17 15 C 35 %
2484 13-04-2015 17:45:17 15.3 C 33 %
2485 13-04-2015 17:57:17 15.7 C 33 %
2486 13-04-2015 18:09:17 16 C 32 %
2487 13-04-2015 18:21:17 15.8 C 32 %
2488 13-04-2015 18:33:17 15.6 C 33 %
2489 13-04-2015 18:45:17 16 C 33 %
2490 13-04-2015 18:57:17 15.7 C 32 %
2491 13-04-2015 19:09:17 14.8 C 35 %
2492 13-04-2015 19:21:17 13.9 C 36 %
2493 13-04-2015 19:33:17 13.5 C 38 %
2494 13-04-2015 19:45:17 13.2 C 38 %
2495 13-04-2015 19:57:17 12.6 C 41 %
2496 13-04-2015 20:09:17 11.8 C 46 %
2497 13-04-2015 20:21:17 10.5 C 50 %
2498 13-04-2015 20:33:17 9.9 C 53 %
2499 13-04-2015 20:45:17 9.8 C 53 %
2500 13-04-2015 20:57:17 9.5 C 52 %
Sensor: Nr:Datum:Temp:Feuchte:
Aussen-T/F 2501 13-04-2015 21:09:17 9.1 C 56 %
2502 13-04-2015 21:21:17 8.7 C 57 %
2503 13-04-2015 21:33:17 8.3 C 57 %
2504 13-04-2015 21:45:17 8.1 C 57 %
2505 13-04-2015 21:57:17 7.9 C 58 %
2506 13-04-2015 22:09:18 7.8 C 58 %
2507 13-04-2015 22:21:17 7.6 C 60 %
2508 13-04-2015 22:33:17 7.3 C 61 %
2509 13-04-2015 22:45:17 6.9 C 63 %
2510 13-04-2015 22:57:17 6.5 C 64 %
2511 13-04-2015 23:09:17 6.3 C 65 %
2512 13-04-2015 23:21:17 6.1 C 66 %
2513 13-04-2015 23:33:17 6 C 67 %
2514 13-04-2015 23:45:17 5.8 C 68 %
2515 13-04-2015 23:57:18 5.8 C 68 %
2516 14-04-2015 00:09:17 5.7 C 68 %
2517 14-04-2015 00:21:17 5.7 C 68 %
2518 14-04-2015 00:33:17 5.6 C 67 %
2519 14-04-2015 00:45:17 5.6 C 68 %
2520 14-04-2015 00:57:17 5.8 C 68 %
2521 14-04-2015 01:09:17 5.6 C 70 %
2522 14-04-2015 01:21:17 5.4 C 71 %
2523 14-04-2015 01:33:17 5.4 C 71 %
2524 14-04-2015 01:45:17 5.3 C 71 %
2525 14-04-2015 01:57:17 5.2 C 72 %
Sensor: Nr:Datum:Temp:Feuchte:
Aussen-T/F 2526 14-04-2015 02:09:17 5.1 C 73 %
2527 14-04-2015 02:21:17 4.9 C 74 %
2528 14-04-2015 02:33:17 4.8 C 74 %
2529 14-04-2015 02:45:17 5 C 73 %
2530 14-04-2015 02:57:17 4.9 C 74 %
2531 14-04-2015 03:09:17 4.8 C 75 %
2532 14-04-2015 03:21:17 4.6 C 75 %
2533 14-04-2015 03:33:17 4.6 C 76 %
2534 14-04-2015 03:45:17 4.8 C 78 %
2535 14-04-2015 03:57:17 4.8 C 78 %
2536 14-04-2015 04:09:17 4.8 C 78 %
2537 14-04-2015 04:21:17 4.5 C 78 %
2538 14-04-2015 04:33:17 4.6 C 78 %
2539 14-04-2015 04:45:17 4.5 C 78 %
2540 14-04-2015 04:57:17 4.3 C 78 %
2541 14-04-2015 05:09:17 4.2 C 79 %
2542 14-04-2015 05:21:17 4.2 C 80 %
2543 14-04-2015 05:33:17 4.2 C 80 %
2544 14-04-2015 05:45:17 4.4 C 82 %
2545 14-04-2015 05:57:17 4 C 81 %
2546 14-04-2015 06:09:17 3.9 C 82 %
2547 14-04-2015 06:21:17 3.9 C 82 %
2548 14-04-2015 06:33:17 3.8 C 82 %
2549 14-04-2015 06:45:17 3.8 C 83 %
2550 14-04-2015 06:57:17 3.9 C 83 %
Sensor: Nr:Datum:Temp:Feuchte:
Aussen-T/F 2551 14-04-2015 07:09:17 4.1 C 83 %
2552 14-04-2015 07:21:17 4.7 C 83 %
2553 14-04-2015 07:33:17 4.9 C 82 %
2554 14-04-2015 07:45:17 5.1 C 80 %
2555 14-04-2015 07:57:17 5.2 C 80 %
2556 14-04-2015 08:09:17 5.3 C 80 %
2557 14-04-2015 08:21:17 5.8 C 79 %
2558 14-04-2015 08:33:17 6 C 77 %
2559 14-04-2015 08:45:17 6.2 C 78 %
2560 14-04-2015 08:57:17 6.7 C 78 %
2561 14-04-2015 09:09:16 7 C 75 %
2562 14-04-2015 09:21:17 7 C 75 %
2563 14-04-2015 09:33:17 8 C 74 %
2564 14-04-2015 09:45:17 9 C 72 %
2565 14-04-2015 09:57:17 10.1 C 66 %
2566 14-04-2015 10:09:17 11.1 C 60 %
2567 14-04-2015 10:21:17 12.2 C 56 %
2568 14-04-2015 10:33:17 12.3 C 55 %
2569 14-04-2015 10:45:17 12.8 C 54 %
2570 14-04-2015 10:57:17 13.4 C 52 %
2571 14-04-2015 11:09:17 14.3 C 49 %
2572 14-04-2015 11:21:16 14.5 C 49 %
2573 14-04-2015 11:33:17 15 C 48 %
2574 14-04-2015 11:45:17 15.5 C 47 %
2575 14-04-2015 11:57:17 15.8 C 46 %
Sensor: Nr:Datum:Temp:Feuchte:
Aussen-T/F 2576 14-04-2015 12:09:17 16.1 C 46 %
2577 14-04-2015 12:21:17 16.6 C 45 %
2578 14-04-2015 12:33:17 16.8 C 45 %
2579 14-04-2015 12:45:17 17 C 44 %
2580 14-04-2015 12:57:17 17.2 C 44 %
2581 14-04-2015 13:09:17 17.3 C 44 %
2582 14-04-2015 13:21:17 17.7 C 43 %
2583 14-04-2015 13:33:17 18.1 C 43 %
2584 14-04-2015 13:45:17 18.4 C 42 %
2585 14-04-2015 13:57:17 18.8 C 42 %
2586 14-04-2015 14:09:17 19.3 C 41 %
2587 14-04-2015 14:21:17 20.1 C 39 %
2588 14-04-2015 14:33:17 20.7 C 38 %
2589 14-04-2015 14:45:17 21.5 C 36 %
2590 14-04-2015 14:57:17 21.9 C 35 %
2591 14-04-2015 15:09:17 22.4 C 32 %
2592 14-04-2015 15:21:17 22.9 C 31 %
2593 14-04-2015 15:33:17 23.2 C 31 %
2594 14-04-2015 15:45:16 23.3 C 31 %
2595 14-04-2015 15:57:17 23.7 C 29 %
2596 14-04-2015 16:09:17 24.1 C 20 %
2597 14-04-2015 16:21:17 24.9 C 20 %
2598 14-04-2015 16:33:17 25.3 C 20 %
2599 14-04-2015 16:45:17 25.4 C 20 %
2600 14-04-2015 16:57:17 25.9 C 20 %
Sensor: Nr:Datum:Temp:Feuchte:
Aussen-T/F 2601 14-04-2015 17:09:17 26.7 C 20 %
2602 14-04-2015 17:21:17 26.9 C 20 %
2603 14-04-2015 17:33:17 26.9 C 20 %
2604 14-04-2015 17:45:17 26.4 C 20 %
2605 14-04-2015 17:57:17 26.2 C 20 %
2606 14-04-2015 18:09:17 26 C 20 %
2607 14-04-2015 18:21:17 26.2 C 20 %
2608 14-04-2015 18:33:17 27.3 C 20 %
2609 14-04-2015 18:45:17 27.2 C 20 %
2610 14-04-2015 18:57:17 26.8 C 20 %
2611 14-04-2015 19:09:17 25.2 C 20 %
2612 14-04-2015 19:21:17 23.5 C 22 %
2613 14-04-2015 19:33:17 22.7 C 25 %
2614 14-04-2015 19:45:17 21.9 C 28 %
2615 14-04-2015 19:57:18 20.5 C 32 %
2616 14-04-2015 20:09:17 19.3 C 35 %
2617 14-04-2015 20:21:17 18.2 C 38 %
2618 14-04-2015 20:33:17 17.6 C 41 %
2619 14-04-2015 20:45:17 16.8 C 43 %
2620 14-04-2015 20:57:17 16.6 C 44 %
2621 14-04-2015 21:09:17 15.9 C 46 %
2622 14-04-2015 21:21:17 15.4 C 48 %
2623 14-04-2015 21:33:17 14.8 C 51 %
2624 14-04-2015 21:45:17 14.5 C 52 %
2625 14-04-2015 21:57:17 14.4 C 53 %
Sensor: Nr:Datum:Temp:Feuchte:
Aussen-T/F 2626 14-04-2015 22:09:17 14.2 C 54 %
2627 14-04-2015 22:21:17 13.9 C 56 %
2628 14-04-2015 22:33:17 13.6 C 57 %
2629 14-04-2015 22:45:17 13.2 C 59 %
2630 14-04-2015 22:57:17 13.2 C 59 %
2631 14-04-2015 23:09:17 12.8 C 61 %
2632 14-04-2015 23:21:16 12.5 C 62 %
2633 14-04-2015 23:33:17 12.6 C 62 %
2634 14-04-2015 23:45:17 12.6 C 62 %
2635 14-04-2015 23:57:17 12.3 C 63 %
2636 15-04-2015 00:09:17 11.7 C 65 %
2637 15-04-2015 00:21:17 11.4 C 66 %
2638 15-04-2015 00:33:17 11.3 C 67 %
2639 15-04-2015 00:45:17 11.1 C 67 %
2640 15-04-2015 00:57:17 11 C 67 %
2641 15-04-2015 01:09:17 11.1 C 67 %
2642 15-04-2015 01:21:17 10.9 C 67 %
2643 15-04-2015 01:33:17 10.7 C 67 %
2644 15-04-2015 01:45:17 11 C 67 %
2645 15-04-2015 01:57:17 10.7 C 68 %
2646 15-04-2015 02:09:17 10.8 C 67 %
2647 15-04-2015 02:21:17 10.4 C 68 %
2648 15-04-2015 02:33:17 10.7 C 68 %
2649 15-04-2015 02:45:17 10.4 C 68 %
2650 15-04-2015 02:57:17 10.3 C 69 %
Sensor: Nr:Datum:Temp:Feuchte:
Aussen-T/F 2651 15-04-2015 03:09:17 10.2 C 69 %
2652 15-04-2015 03:21:17 10.1 C 70 %
2653 15-04-2015 03:33:18 10.1 C 70 %
2654 15-04-2015 03:45:17 9.7 C 71 %
2655 15-04-2015 03:57:17 9.5 C 72 %
2656 15-04-2015 04:09:17 9.5 C 73 %
2657 15-04-2015 04:21:17 9.4 C 73 %
2658 15-04-2015 04:33:17 9.1 C 73 %
2659 15-04-2015 04:45:17 8.7 C 75 %
2660 15-04-2015 04:57:17 8.6 C 77 %
2661 15-04-2015 05:09:17 8.4 C 77 %
2662 15-04-2015 05:21:17 8.2 C 78 %
2663 15-04-2015 05:33:17 8.2 C 79 %
2664 15-04-2015 05:45:17 8.3 C 80 %
2665 15-04-2015 05:57:17 8.1 C 80 %
2666 15-04-2015 06:09:17 7.6 C 80 %
2667 15-04-2015 06:21:17 7.4 C 81 %
2668 15-04-2015 06:33:17 7.4 C 83 %
2669 15-04-2015 06:45:17 7.2 C 83 %
2670 15-04-2015 06:57:17 6.9 C 84 %
2671 15-04-2015 07:09:17 6.9 C 84 %
2672 15-04-2015 07:21:17 7 C 84 %
2673 15-04-2015 07:33:17 7.2 C 85 %
2674 15-04-2015 07:45:17 7.3 C 85 %
2675 15-04-2015 07:57:17 7.4 C 85 %
Sensor: Nr:Datum:Temp:Feuchte:
Aussen-T/F 2676 15-04-2015 08:09:17 7.5 C 85 %
2677 15-04-2015 08:21:17 7.5 C 86 %
2678 15-04-2015 08:33:17 7.9 C 86 %
2679 15-04-2015 08:45:17 8.3 C 86 %
2680 15-04-2015 08:57:17 8.8 C 86 %
2681 15-04-2015 09:09:17 9 C 84 %
2682 15-04-2015 09:21:17 9.4 C 84 %
2683 15-04-2015 09:33:17 10 C 82 %
2684 15-04-2015 09:45:17 10.4 C 80 %
2685 15-04-2015 09:57:17 11.1 C 78 %
2686 15-04-2015 10:09:17 12.2 C 74 %
2687 15-04-2015 10:21:17 13.2 C 70 %
2688 15-04-2015 10:33:17 14.2 C 63 %
2689 15-04-2015 10:45:17 15.5 C 58 %
2690 15-04-2015 10:57:17 16.6 C 53 %
2691 15-04-2015 11:09:17 18 C 46 %
2692 15-04-2015 11:21:17 18.4 C 46 %
2693 15-04-2015 11:33:17 18.9 C 43 %
2694 15-04-2015 11:45:17 19.1 C 42 %
2695 15-04-2015 11:57:17 19.3 C 41 %
2696 15-04-2015 12:09:17 19.8 C 40 %
2697 15-04-2015 12:21:17 19.9 C 38 %
2698 15-04-2015 12:33:17 20.1 C 37 %
2699 15-04-2015 12:45:17 20.4 C 36 %
2700 15-04-2015 12:57:17 21 C 31 %
Sensor: Nr:Datum:Temp:Feuchte:
Aussen-T/F 2701 15-04-2015 13:09:17 21.3 C 31 %
2702 15-04-2015 13:21:17 21.2 C 30 %
2703 15-04-2015 13:33:18 21.6 C 31 %
2704 15-04-2015 13:45:17 22 C 29 %
2705 15-04-2015 13:57:17 22.5 C 28 %
2706 15-04-2015 14:09:17 22.7 C 27 %
2707 15-04-2015 14:21:17 23 C 26 %
2708 15-04-2015 14:33:17 23.5 C 25 %
2709 15-04-2015 14:45:17 24.3 C 22 %
2710 15-04-2015 14:57:17 24.5 C 21 %
2711 15-04-2015 15:09:17 25 C 21 %
2712 15-04-2015 15:21:17 25.4 C 21 %
2713 15-04-2015 15:33:17 26 C 21 %
2714 15-04-2015 15:45:17 26.3 C 20 %
2715 15-04-2015 15:57:17 26.5 C 20 %
2716 15-04-2015 16:09:17 26.8 C 20 %
2717 15-04-2015 16:21:17 27.2 C 20 %
2718 15-04-2015 16:33:17 27.4 C 20 %
2719 15-04-2015 16:45:17 27.7 C 20 %
2720 15-04-2015 16:57:17 27.8 C 20 %
2721 15-04-2015 17:09:17 28.6 C 20 %
2722 15-04-2015 17:21:17 29.1 C 20 %
2723 15-04-2015 17:33:17 28.8 C 20 %
2724 15-04-2015 17:45:17 27.3 C 20 %
2725 15-04-2015 17:57:17 26.5 C 20 %
Sensor: Nr:Datum:Temp:Feuchte:
Aussen-T/F 2726 15-04-2015 18:09:17 25.6 C 20 %
2727 15-04-2015 18:21:17 25 C 21 %
2728 15-04-2015 18:33:17 24.6 C 20 %
2729 15-04-2015 18:45:17 24.9 C 25 %
2730 15-04-2015 18:57:17 27.6 C 20 %
2731 15-04-2015 19:09:17 27.6 C 20 %
2732 15-04-2015 19:21:17 24.9 C 22 %
2733 15-04-2015 19:33:17 23.5 C 26 %
2734 15-04-2015 19:45:17 22.5 C 30 %
2735 15-04-2015 19:57:17 21 C 33 %
2736 15-04-2015 20:09:17 20.2 C 35 %
2737 15-04-2015 20:21:16 19.1 C 37 %
2738 15-04-2015 20:33:17 18.3 C 39 %
2739 15-04-2015 20:45:17 18.1 C 41 %
2740 15-04-2015 20:57:17 17.6 C 42 %
2741 15-04-2015 21:09:17 17.6 C 42 %
2742 15-04-2015 21:21:16 17 C 44 %
2743 15-04-2015 21:33:17 16.8 C 45 %
2744 15-04-2015 21:45:17 16.5 C 47 %
2745 15-04-2015 21:57:17 16 C 48 %
2746 15-04-2015 22:09:17 15.5 C 51 %
2747 15-04-2015 22:21:17 15 C 52 %
2748 15-04-2015 22:33:17 14.6 C 54 %
2749 15-04-2015 22:45:17 14.4 C 55 %
2750 15-04-2015 22:57:17 13.9 C 57 %
Sensor: Nr:Datum:Temp:Feuchte:
Aussen-T/F 2751 15-04-2015 23:09:17 13.7 C 57 %
2752 15-04-2015 23:21:17 13.3 C 58 %
2753 15-04-2015 23:33:17 13.2 C 57 %
2754 15-04-2015 23:45:17 12.6 C 60 %
2755 15-04-2015 23:57:17 12.3 C 61 %
2756 16-04-2015 00:09:18 12.3 C 62 %
2757 16-04-2015 00:21:17 12.6 C 61 %
2758 16-04-2015 00:33:17 12.2 C 61 %
2759 16-04-2015 00:45:17 12.4 C 62 %
2760 16-04-2015 00:57:17 12.2 C 62 %
2761 16-04-2015 01:09:17 11.8 C 64 %
2762 16-04-2015 01:21:17 11.6 C 64 %
2763 16-04-2015 01:33:17 11.3 C 65 %
2764 16-04-2015 01:45:17 10.8 C 67 %
2765 16-04-2015 01:57:17 10.8 C 68 %
2766 16-04-2015 02:09:17 10.6 C 67 %
2767 16-04-2015 02:21:17 10.3 C 69 %
2768 16-04-2015 02:33:17 10.3 C 70 %
2769 16-04-2015 02:45:17 10.1 C 70 %
2770 16-04-2015 02:57:17 10 C 70 %
2771 16-04-2015 03:09:17 10.2 C 71 %
2772 16-04-2015 03:21:17 10.5 C 69 %
2773 16-04-2015 03:33:17 10.1 C 69 %
2774 16-04-2015 03:45:17 9.8 C 71 %
2775 16-04-2015 03:57:17 9.8 C 72 %
Sensor: Nr:Datum:Temp:Feuchte:
Aussen-T/F 2776 16-04-2015 04:09:17 9.6 C 72 %
2777 16-04-2015 04:21:17 9.4 C 73 %
2778 16-04-2015 04:33:17 9.2 C 73 %
2779 16-04-2015 04:45:17 9.1 C 74 %
2780 16-04-2015 04:57:17 8.8 C 75 %
2781 16-04-2015 05:09:17 8.6 C 76 %
2782 16-04-2015 05:21:17 8.5 C 77 %
2783 16-04-2015 05:33:17 8.3 C 78 %
2784 16-04-2015 05:45:17 8.3 C 79 %
2785 16-04-2015 05:57:17 8.1 C 78 %
2786 16-04-2015 06:09:18 7.9 C 80 %
2787 16-04-2015 06:21:17 7.9 C 80 %
2788 16-04-2015 06:33:17 7.8 C 81 %
2789 16-04-2015 06:45:17 7.6 C 81 %
2790 16-04-2015 06:57:17 7.8 C 82 %
2791 16-04-2015 07:09:17 8 C 82 %
2792 16-04-2015 07:21:17 8.2 C 82 %
2793 16-04-2015 07:33:17 8.6 C 83 %
2794 16-04-2015 07:45:17 8.8 C 83 %
2795 16-04-2015 07:57:17 9 C 80 %
2796 16-04-2015 08:09:17 9.3 C 80 %
2797 16-04-2015 08:21:17 9.5 C 78 %
2798 16-04-2015 08:33:17 9.8 C 77 %
2799 16-04-2015 08:45:17 10.3 C 75 %
2800 16-04-2015 08:57:17 10.7 C 74 %
Sensor: Nr:Datum:Temp:Feuchte:
Aussen-T/F 2801 16-04-2015 09:09:17 11 C 70 %
2802 16-04-2015 09:21:17 11.4 C 70 %
2803 16-04-2015 09:33:17 12 C 68 %
2804 16-04-2015 09:45:17 12.5 C 68 %
2805 16-04-2015 09:57:17 13 C 63 %
2806 16-04-2015 10:09:17 13.4 C 62 %
2807 16-04-2015 10:21:17 14.1 C 59 %
2808 16-04-2015 10:33:17 14.5 C 56 %
2809 16-04-2015 10:45:17 14.9 C 55 %
2810 16-04-2015 10:57:17 15.4 C 52 %
2811 16-04-2015 11:09:17 16 C 50 %
2812 16-04-2015 11:21:17 16.1 C 49 %
2813 16-04-2015 11:33:17 16.4 C 48 %
2814 16-04-2015 11:45:17 16.6 C 47 %
2815 16-04-2015 11:57:17 16.8 C 47 %
2816 16-04-2015 12:09:17 17.1 C 46 %
2817 16-04-2015 12:21:17 17.2 C 45 %
2818 16-04-2015 12:33:17 17.5 C 45 %
2819 16-04-2015 12:45:18 17.9 C 44 %
2820 16-04-2015 12:57:18 18.2 C 43 %
2821 16-04-2015 13:09:17 18.4 C 40 %
2822 16-04-2015 13:21:17 18.6 C 41 %
2823 16-04-2015 13:33:17 19.1 C 41 %
2824 16-04-2015 13:45:17 19.5 C 38 %
2825 16-04-2015 13:57:17 20 C 37 %
Sensor: Nr:Datum:Temp:Feuchte:
Aussen-T/F 2826 16-04-2015 14:09:17 20.4 C 37 %
2827 16-04-2015 14:21:17 21 C 35 %
2828 16-04-2015 14:33:17 20.8 C 37 %
2829 16-04-2015 14:45:16 21 C 36 %
2830 16-04-2015 14:57:17 22.1 C 33 %
2831 16-04-2015 15:09:17 22.2 C 32 %
2832 16-04-2015 15:21:17 22.3 C 32 %
2833 16-04-2015 15:33:17 22.5 C 32 %
2834 16-04-2015 15:45:17 23.7 C 31 %
2835 16-04-2015 15:57:17 23.7 C 31 %
2836 16-04-2015 16:09:17 22.3 C 32 %
2837 16-04-2015 16:21:17 22 C 33 %
2838 16-04-2015 16:33:17 21.9 C 34 %
2839 16-04-2015 16:45:17 21.8 C 35 %
2840 16-04-2015 16:57:17 21.7 C 34 %
2841 16-04-2015 17:09:17 22.1 C 32 %
2842 16-04-2015 17:21:17 23.6 C 30 %
2843 16-04-2015 17:33:17 22.5 C 31 %
2844 16-04-2015 17:45:17 21.4 C 34 %
2845 16-04-2015 17:57:17 21.2 C 35 %
2846 16-04-2015 18:09:17 21 C 35 %
2847 16-04-2015 18:21:17 20.9 C 36 %
2848 16-04-2015 18:33:17 20.5 C 36 %
2849 16-04-2015 18:45:17 20.9 C 36 %
2850 16-04-2015 18:57:17 20.7 C 36 %
Sensor: Nr:Datum:Temp:Feuchte:
Aussen-T/F 2851 16-04-2015 19:09:17 19.5 C 38 %
2852 16-04-2015 19:21:17 18.9 C 40 %
2853 16-04-2015 19:33:17 18.5 C 41 %
2854 16-04-2015 19:45:17 18.1 C 41 %
2855 16-04-2015 19:57:17 17.8 C 42 %
2856 16-04-2015 20:09:17 17.4 C 43 %
2857 16-04-2015 20:21:17 17.2 C 43 %
2858 16-04-2015 20:33:17 17 C 43 %
2859 16-04-2015 20:45:17 16.9 C 43 %
2860 16-04-2015 20:57:17 16.1 C 46 %
2861 16-04-2015 21:09:17 16.2 C 46 %
2862 16-04-2015 21:21:17 15.9 C 47 %
2863 16-04-2015 21:33:17 16 C 46 %
2864 16-04-2015 21:45:17 16 C 46 %
2865 16-04-2015 21:57:17 15.4 C 49 %
2866 16-04-2015 22:09:17 15.8 C 47 %
2867 16-04-2015 22:21:17 15.7 C 48 %
2868 16-04-2015 22:33:17 14.9 C 52 %
2869 16-04-2015 22:45:17 14.2 C 55 %
2870 16-04-2015 22:57:17 14.5 C 54 %
2871 16-04-2015 23:09:17 14.7 C 51 %
2872 16-04-2015 23:21:17 14.5 C 52 %
2873 16-04-2015 23:33:17 14 C 55 %
2874 16-04-2015 23:45:17 13.7 C 56 %
2875 16-04-2015 23:57:17 13.3 C 57 %
Sensor: Nr:Datum:Temp:Feuchte:
Aussen-T/F 2876 17-04-2015 00:09:17 13.1 C 58 %
2877 17-04-2015 00:21:17 13.6 C 55 %
2878 17-04-2015 00:33:17 13.5 C 55 %
2879 17-04-2015 00:45:17 13.2 C 56 %
2880 17-04-2015 00:57:17 13.2 C 55 %
2881 17-04-2015 01:09:17 12.9 C 59 %
2882 17-04-2015 01:21:17 12.9 C 59 %
2883 17-04-2015 01:33:17 13.1 C 55 %
2884 17-04-2015 01:45:17 12.6 C 61 %
2885 17-04-2015 01:57:17 12.2 C 64 %
2886 17-04-2015 02:09:17 12 C 66 %
2887 17-04-2015 02:21:17 11.1 C 75 %
2888 17-04-2015 02:33:17 10.8 C 79 %
2889 17-04-2015 02:45:17 10.6 C 82 %
2890 17-04-2015 02:57:18 10.6 C 83 %
2891 17-04-2015 03:09:17 10.2 C 85 %
2892 17-04-2015 03:21:17 10.1 C 85 %
2893 17-04-2015 03:33:17 9.7 C 86 %
2894 17-04-2015 03:45:17 9.6 C 86 %
2895 17-04-2015 03:57:17 9.2 C 86 %
2896 17-04-2015 04:09:17 9.1 C 87 %
2897 17-04-2015 04:21:17 8.9 C 87 %
2898 17-04-2015 04:33:17 8.7 C 87 %
2899 17-04-2015 04:45:17 8.3 C 87 %
2900 17-04-2015 04:57:17 8 C 87 %
Sensor: Nr:Datum:Temp:Feuchte:
Aussen-T/F 2901 17-04-2015 05:09:17 7.9 C 87 %
2902 17-04-2015 05:21:17 7.8 C 87 %
2903 17-04-2015 05:33:17 7.6 C 86 %
2904 17-04-2015 05:45:17 7.7 C 84 %
2905 17-04-2015 05:57:17 7.7 C 82 %
2906 17-04-2015 06:09:17 7.7 C 80 %
2907 17-04-2015 06:21:16 7.6 C 81 %
2908 17-04-2015 06:33:17 7.4 C 80 %
2909 17-04-2015 06:45:17 7.4 C 80 %
2910 17-04-2015 06:57:17 7.6 C 82 %
2911 17-04-2015 07:09:17 7.9 C 83 %
2912 17-04-2015 07:21:17 8.1 C 79 %
2913 17-04-2015 07:33:17 8.4 C 77 %
2914 17-04-2015 07:45:17 8.5 C 76 %
2915 17-04-2015 07:57:17 8.7 C 73 %
2916 17-04-2015 08:09:17 8.9 C 73 %
2917 17-04-2015 08:21:17 9.1 C 72 %
2918 17-04-2015 08:33:17 9.2 C 69 %
2919 17-04-2015 08:45:17 9.4 C 67 %
2920 17-04-2015 08:57:17 9.7 C 66 %
2921 17-04-2015 09:09:17 9.8 C 65 %
2922 17-04-2015 09:21:17 10.2 C 62 %
2923 17-04-2015 09:33:17 10.4 C 60 %
2924 17-04-2015 09:45:17 10.8 C 58 %
2925 17-04-2015 09:57:17 10.8 C 55 %
Sensor: Nr:Datum:Temp:Feuchte:
Aussen-T/F 2926 17-04-2015 10:09:17 10.9 C 55 %
2927 17-04-2015 10:21:17 10.8 C 54 %
2928 17-04-2015 10:33:17 10.7 C 55 %
2929 17-04-2015 10:45:17 10.4 C 55 %
2930 17-04-2015 10:57:17 10.1 C 54 %
2931 17-04-2015 11:09:17 10.2 C 56 %
2932 17-04-2015 11:21:17 10.7 C 56 %
2933 17-04-2015 11:33:17 11.2 C 55 %
2934 17-04-2015 11:45:17 10.9 C 53 %
2935 17-04-2015 11:57:17 11.2 C 50 %
2936 17-04-2015 12:09:17 11.3 C 50 %
2937 17-04-2015 12:21:17 11.5 C 49 %
2938 17-04-2015 12:33:17 11.9 C 46 %
2939 17-04-2015 12:45:17 12.5 C 45 %
2940 17-04-2015 12:57:17 13.4 C 37 %
2941 17-04-2015 13:09:17 13.7 C 32 %
2942 17-04-2015 13:21:17 13.6 C 28 %
2943 17-04-2015 13:33:17 13.6 C 31 %
2944 17-04-2015 13:45:17 14.3 C 26 %
2945 17-04-2015 13:57:17 14.5 C 25 %
2946 17-04-2015 14:09:17 14.5 C 26 %
2947 17-04-2015 14:21:17 15 C 27 %
2948 17-04-2015 14:33:17 15.2 C 26 %
2949 17-04-2015 14:45:17 15.8 C 26 %
2950 17-04-2015 14:57:17 15.4 C 26 %
Sensor: Nr:Datum:Temp:Feuchte:
Aussen-T/F 2951 17-04-2015 15:09:17 16 C 26 %
2952 17-04-2015 15:21:17 17 C 25 %
2953 17-04-2015 15:33:17 17.2 C 25 %
2954 17-04-2015 15:45:17 16.4 C 25 %
2955 17-04-2015 15:57:17 17.3 C 23 %
2956 17-04-2015 16:09:17 16.5 C 23 %
2957 17-04-2015 16:21:17 16.8 C 23 %
2958 17-04-2015 16:33:17 16.7 C 23 %
2959 17-04-2015 16:45:17 16.9 C 27 %
2960 17-04-2015 16:57:17 16.3 C 28 %
2961 17-04-2015 17:09:17 15.5 C 31 %
2962 17-04-2015 17:21:17 14.7 C 32 %
2963 17-04-2015 17:33:17 14.8 C 32 %
2964 17-04-2015 17:45:17 14.7 C 32 %
2965 17-04-2015 17:57:17 15.1 C 31 %
2966 17-04-2015 18:09:17 14.4 C 32 %
2967 17-04-2015 18:21:17 14.9 C 30 %
2968 17-04-2015 18:33:17 14.9 C 31 %
2969 17-04-2015 18:45:17 14.1 C 32 %
2970 17-04-2015 18:57:17 14.3 C 31 %
2971 17-04-2015 19:09:17 13.5 C 32 %
2972 17-04-2015 19:21:17 13.1 C 34 %
2973 17-04-2015 19:33:17 12.5 C 35 %
2974 17-04-2015 19:45:17 12.3 C 36 %
2975 17-04-2015 19:57:17 12 C 36 %
Sensor: Nr:Datum:Temp:Feuchte:
Aussen-T/F 2976 17-04-2015 20:09:17 11.7 C 37 %
2977 17-04-2015 20:21:17 11.3 C 37 %
2978 17-04-2015 20:33:17 11.2 C 37 %
2979 17-04-2015 20:45:17 11 C 38 %
2980 17-04-2015 20:57:17 10.8 C 40 %
2981 17-04-2015 21:09:17 10.4 C 40 %
2982 17-04-2015 21:21:17 9.8 C 42 %
2983 17-04-2015 21:33:17 8.9 C 47 %
2984 17-04-2015 21:45:17 8.2 C 51 %
2985 17-04-2015 21:57:17 7.7 C 53 %
2986 17-04-2015 22:09:17 7.3 C 53 %
2987 17-04-2015 22:21:17 7 C 54 %
2988 17-04-2015 22:33:17 7.4 C 54 %
2989 17-04-2015 22:45:17 7.6 C 56 %
2990 17-04-2015 22:57:17 7.4 C 56 %
2991 17-04-2015 23:09:17 6.8 C 58 %
2992 17-04-2015 23:21:17 6.3 C 57 %
2993 17-04-2015 23:33:17 6.1 C 58 %
2994 17-04-2015 23:45:17 6 C 59 %
2995 17-04-2015 23:57:17 6 C 60 %
2996 18-04-2015 00:09:17 5.8 C 61 %
2997 18-04-2015 00:21:17 5.6 C 61 %
2998 18-04-2015 00:33:17 5.3 C 63 %
2999 18-04-2015 00:45:17 5.1 C 64 %
3000 18-04-2015 00:57:17 5.1 C 65 %
Sensor: Nr:Datum:Temp:Feuchte:
Aussen-T/F 3001 18-04-2015 01:09:17 4.8 C 66 %
3002 18-04-2015 01:21:17 4.7 C 67 %
3003 18-04-2015 01:33:17 4.7 C 67 %
3004 18-04-2015 01:45:17 4.4 C 68 %
3005 18-04-2015 01:57:17 4.4 C 69 %
3006 18-04-2015 02:09:17 4.1 C 69 %
3007 18-04-2015 02:21:17 4 C 70 %
3008 18-04-2015 02:33:17 4 C 69 %
3009 18-04-2015 02:45:17 3.7 C 71 %
3010 18-04-2015 02:57:17 3.8 C 73 %
3011 18-04-2015 03:09:17 3.8 C 73 %
3012 18-04-2015 03:21:17 3.4 C 73 %
3013 18-04-2015 03:33:17 3.4 C 75 %
3014 18-04-2015 03:45:17 3.2 C 76 %
3015 18-04-2015 03:57:17 2.8 C 77 %
3016 18-04-2015 04:09:17 2.9 C 78 %
3017 18-04-2015 04:21:17 2.7 C 79 %
3018 18-04-2015 04:33:17 2.6 C 80 %
3019 18-04-2015 04:45:17 2.5 C 80 %
3020 18-04-2015 04:57:17 2.4 C 80 %
3021 18-04-2015 05:09:17 2.4 C 80 %
3022 18-04-2015 05:21:17 2.5 C 82 %
3023 18-04-2015 05:33:17 2.1 C 82 %
3024 18-04-2015 05:45:17 2 C 81 %
3025 18-04-2015 05:57:17 1.9 C 82 %
Sensor: Nr:Datum:Temp:Feuchte:
Aussen-T/F 3026 18-04-2015 06:09:17 2 C 82 %
3027 18-04-2015 06:21:17 1.8 C 84 %
3028 18-04-2015 06:33:17 1.7 C 84 %
3029 18-04-2015 06:45:17 1.8 C 84 %
3030 18-04-2015 06:57:17 1.8 C 85 %
3031 18-04-2015 07:09:17 1.7 C 85 %
3032 18-04-2015 07:21:16 1.9 C 85 %
3033 18-04-2015 07:33:17 2 C 85 %
3034 18-04-2015 07:45:17 2.1 C 85 %
3035 18-04-2015 07:57:17 2.2 C 85 %
3036 18-04-2015 08:09:17 2.6 C 85 %
3037 18-04-2015 08:21:17 2.8 C 86 %
3038 18-04-2015 08:33:17 2.8 C 86 %
3039 18-04-2015 08:45:17 3 C 85 %
3040 18-04-2015 08:57:17 3.4 C 85 %
3041 18-04-2015 09:09:17 3.8 C 83 %
3042 18-04-2015 09:21:17 4.2 C 79 %
3043 18-04-2015 09:33:17 4.6 C 77 %
3044 18-04-2015 09:45:17 5.1 C 75 %
3045 18-04-2015 09:57:17 5.5 C 73 %
3046 18-04-2015 10:09:17 5.9 C 71 %
3047 18-04-2015 10:21:17 6.3 C 70 %
3048 18-04-2015 10:33:17 7 C 68 %
3049 18-04-2015 10:45:16 7.4 C 66 %
3050 18-04-2015 10:57:16 7.8 C 64 %
Sensor: Nr:Datum:Temp:Feuchte:
Aussen-T/F 3051 18-04-2015 11:09:17 8.8 C 57 %
3052 18-04-2015 11:21:17 9.4 C 50 %
3053 18-04-2015 11:33:17 9.6 C 45 %
3054 18-04-2015 11:45:16 10 C 42 %
3055 18-04-2015 11:57:16 10.8 C 37 %
3056 18-04-2015 12:09:16 10.7 C 35 %
3057 18-04-2015 12:21:17 10.7 C 35 %
3058 18-04-2015 12:33:17 10.7 C 35 %
3059 18-04-2015 12:45:17 11.1 C 31 %
3060 18-04-2015 12:57:17 11.5 C 32 %
3061 18-04-2015 13:09:17 11.5 C 32 %
3062 18-04-2015 13:21:17 12.2 C 31 %
3063 18-04-2015 13:33:17 12.4 C 30 %
3064 18-04-2015 13:45:17 12 C 30 %
3065 18-04-2015 13:57:17 12.7 C 29 %
3066 18-04-2015 14:09:17 12.4 C 29 %
3067 18-04-2015 14:21:17 12.6 C 29 %
3068 18-04-2015 14:33:17 13.1 C 26 %
3069 18-04-2015 14:45:16 13.7 C 21 %
3070 18-04-2015 14:57:17 14.1 C 22 %
3071 18-04-2015 15:09:17 14.4 C 24 %
3072 18-04-2015 15:21:17 14.8 C 20 %
3073 18-04-2015 15:33:17 16 C 20 %
3074 18-04-2015 15:45:17 15.4 C 20 %
3075 18-04-2015 15:57:17 15.1 C 20 %
Sensor: Nr:Datum:Temp:Feuchte:
Aussen-T/F 3076 18-04-2015 16:09:17 15.1 C 20 %
3077 18-04-2015 16:21:17 15.9 C 20 %
3078 18-04-2015 16:33:17 17 C 20 %
3079 18-04-2015 16:45:17 16 C 20 %
3080 18-04-2015 16:57:17 16.8 C 20 %
3081 18-04-2015 17:09:17 17.6 C 20 %
3082 18-04-2015 17:21:17 17.9 C 20 %
3083 18-04-2015 17:33:17 18.5 C 20 %
3084 18-04-2015 17:45:17 17.3 C 20 %
3085 18-04-2015 17:57:17 16.8 C 20 %
3086 18-04-2015 18:09:17 17.2 C 20 %
3087 18-04-2015 18:21:17 18.1 C 20 %
3088 18-04-2015 18:33:17 19.1 C 20 %
3089 18-04-2015 18:45:17 19.5 C 20 %
3090 18-04-2015 18:57:17 20 C 20 %
3091 18-04-2015 19:09:17 17.3 C 20 %
3092 18-04-2015 19:21:17 15.5 C 20 %
3093 18-04-2015 19:33:17 14.7 C 22 %
3094 18-04-2015 19:45:17 14.1 C 23 %
3095 18-04-2015 19:57:18 13.5 C 30 %
3096 18-04-2015 20:09:17 12.1 C 36 %
3097 18-04-2015 20:21:17 10.5 C 42 %
3098 18-04-2015 20:33:17 10 C 43 %
3099 18-04-2015 20:45:17 9.4 C 43 %
3100 18-04-2015 20:57:17 8.9 C 44 %
Sensor: Nr:Datum:Temp:Feuchte:
Aussen-T/F 3101 18-04-2015 21:09:17 8.8 C 46 %
3102 18-04-2015 21:21:17 8.5 C 45 %
3103 18-04-2015 21:33:17 8.4 C 46 %
3104 18-04-2015 21:45:17 7.8 C 49 %
3105 18-04-2015 21:57:17 7.5 C 50 %
3106 18-04-2015 22:09:17 7.1 C 51 %
3107 18-04-2015 22:21:17 7 C 53 %
3108 18-04-2015 22:33:17 6.7 C 52 %
3109 18-04-2015 22:45:17 6.4 C 54 %
3110 18-04-2015 22:57:17 6.2 C 55 %
3111 18-04-2015 23:09:17 5.9 C 56 %
3112 18-04-2015 23:21:17 5.2 C 58 %
3113 18-04-2015 23:33:17 5.1 C 58 %
3114 18-04-2015 23:45:17 5.1 C 59 %
3115 18-04-2015 23:57:18 4.9 C 60 %
3116 19-04-2015 00:09:18 4.6 C 61 %
3117 19-04-2015 00:21:17 4.6 C 62 %
3118 19-04-2015 00:33:18 4.1 C 63 %
3119 19-04-2015 00:45:17 4.1 C 65 %
3120 19-04-2015 00:57:17 4.1 C 66 %
3121 19-04-2015 01:09:17 3.7 C 67 %
3122 19-04-2015 01:21:17 3.5 C 66 %
3123 19-04-2015 01:33:17 3.6 C 68 %
3124 19-04-2015 01:45:17 3.4 C 69 %
3125 19-04-2015 01:57:17 3.3 C 70 %
Sensor: Nr:Datum:Temp:Feuchte:
Aussen-T/F 3126 19-04-2015 02:09:17 3.2 C 71 %
3127 19-04-2015 02:21:17 3.1 C 72 %
3128 19-04-2015 02:33:17 2.9 C 71 %
3129 19-04-2015 02:45:17 2.5 C 71 %
3130 19-04-2015 02:57:18 2.5 C 72 %
3131 19-04-2015 03:09:17 2.4 C 73 %
3132 19-04-2015 03:21:17 2.5 C 76 %
3133 19-04-2015 03:33:17 2.3 C 74 %
3134 19-04-2015 03:45:17 2 C 74 %
3135 19-04-2015 03:57:17 1.8 C 77 %
3136 19-04-2015 04:09:17 2 C 77 %
3137 19-04-2015 04:21:17 1.9 C 77 %
3138 19-04-2015 04:33:17 1.8 C 77 %
3139 19-04-2015 04:45:17 1.7 C 79 %
3140 19-04-2015 04:57:17 1.5 C 78 %
3141 19-04-2015 05:09:17 1.4 C 78 %
3142 19-04-2015 05:21:17 1.4 C 80 %
3143 19-04-2015 05:33:17 1.5 C 82 %
3144 19-04-2015 05:45:17 1.3 C 82 %
3145 19-04-2015 05:57:17 1.3 C 83 %
3146 19-04-2015 06:09:17 1.2 C 83 %
3147 19-04-2015 06:21:17 0.8 C 82 %
3148 19-04-2015 06:33:17 0.8 C 83 %
3149 19-04-2015 06:45:17 1 C 84 %
3150 19-04-2015 06:57:17 1.1 C 85 %
Sensor: Nr:Datum:Temp:Feuchte:
Aussen-T/F 3151 19-04-2015 07:09:17 1.1 C 85 %
3152 19-04-2015 07:21:17 1.2 C 86 %
3153 19-04-2015 07:33:17 1.3 C 87 %
3154 19-04-2015 07:45:17 1.5 C 87 %
3155 19-04-2015 07:57:17 1.5 C 87 %
3156 19-04-2015 08:09:17 1.7 C 87 %
3157 19-04-2015 08:21:17 1.9 C 85 %
3158 19-04-2015 08:33:17 2.5 C 86 %
3159 19-04-2015 08:45:17 2.9 C 86 %
3160 19-04-2015 08:57:17 3.3 C 84 %
3161 19-04-2015 09:09:17 3.7 C 83 %
3162 19-04-2015 09:21:16 4.4 C 78 %
3163 19-04-2015 09:33:17 4.7 C 74 %
3164 19-04-2015 09:45:17 5.3 C 70 %
3165 19-04-2015 09:57:17 5.9 C 67 %
3166 19-04-2015 10:09:17 6.5 C 65 %
3167 19-04-2015 10:21:17 7 C 62 %
3168 19-04-2015 10:33:17 7.9 C 57 %
3169 19-04-2015 10:45:17 9 C 50 %
3170 19-04-2015 10:57:17 9.8 C 47 %
3171 19-04-2015 11:09:17 11.1 C 42 %
3172 19-04-2015 11:21:17 11.8 C 38 %
3173 19-04-2015 11:33:17 12.1 C 36 %
3174 19-04-2015 11:45:16 12.1 C 35 %
3175 19-04-2015 11:57:17 12.5 C 33 %
Sensor: Nr:Datum:Temp:Feuchte:
Aussen-T/F 3176 19-04-2015 12:09:17 12.9 C 33 %
3177 19-04-2015 12:21:17 13.3 C 32 %
3178 19-04-2015 12:33:17 13.5 C 31 %
3179 19-04-2015 12:45:17 13.5 C 30 %
3180 19-04-2015 12:57:17 13.8 C 30 %
3181 19-04-2015 13:09:17 13.8 C 29 %
3182 19-04-2015 13:21:16 14.3 C 28 %
3183 19-04-2015 13:33:17 14.7 C 27 %
3184 19-04-2015 13:45:17 14.9 C 26 %
3185 19-04-2015 13:57:17 15.1 C 26 %
3186 19-04-2015 14:09:17 15.2 C 25 %
3187 19-04-2015 14:21:17 15.3 C 25 %
3188 19-04-2015 14:33:17 16.1 C 25 %
3189 19-04-2015 14:45:17 16.4 C 24 %
3190 19-04-2015 14:57:17 16.9 C 25 %
3191 19-04-2015 15:09:17 17.3 C 24 %
3192 19-04-2015 15:21:17 17.7 C 21 %
3193 19-04-2015 15:33:17 18.3 C 20 %
3194 19-04-2015 15:45:17 18.4 C 20 %
3195 19-04-2015 15:57:17 18.7 C 20 %
3196 19-04-2015 16:09:17 18.5 C 20 %
3197 19-04-2015 16:21:17 19.2 C 20 %
3198 19-04-2015 16:33:17 19.3 C 20 %
3199 19-04-2015 16:45:17 19 C 20 %
3200 19-04-2015 16:57:17 19.6 C 20 %
Sensor: Nr:Datum:Temp:Feuchte:
Aussen-T/F 3201 19-04-2015 17:09:17 20 C 20 %
3202 19-04-2015 17:21:17 20 C 20 %
3203 19-04-2015 17:33:17 19.5 C 20 %
3204 19-04-2015 17:45:17 19.3 C 20 %
3205 19-04-2015 17:57:17 20.8 C 20 %
3206 19-04-2015 18:09:17 21.1 C 20 %
3207 19-04-2015 18:21:17 21 C 20 %
3208 19-04-2015 18:33:17 22.5 C 20 %
3209 19-04-2015 18:45:17 23.1 C 20 %
3210 19-04-2015 18:57:17 22.9 C 20 %
3211 19-04-2015 19:09:17 20.1 C 20 %
3212 19-04-2015 19:21:17 18.8 C 20 %
3213 19-04-2015 19:33:17 17.7 C 20 %
3214 19-04-2015 19:45:17 17.2 C 22 %
3215 19-04-2015 19:57:17 15.8 C 30 %
3216 19-04-2015 20:09:17 14.3 C 34 %
3217 19-04-2015 20:21:17 13.3 C 36 %
3218 19-04-2015 20:33:17 12.7 C 37 %
3219 19-04-2015 20:45:17 12.3 C 36 %
3220 19-04-2015 20:57:17 12 C 37 %
3221 19-04-2015 21:09:17 11.5 C 40 %
3222 19-04-2015 21:21:17 11.2 C 41 %
3223 19-04-2015 21:33:17 11 C 42 %
3224 19-04-2015 21:45:17 10.4 C 45 %
3225 19-04-2015 21:57:17 9.8 C 48 %
Sensor: Nr:Datum:Temp:Feuchte:
Aussen-T/F 3226 19-04-2015 22:09:17 9.5 C 49 %
3227 19-04-2015 22:21:17 9.2 C 50 %
3228 19-04-2015 22:33:17 8.9 C 51 %
3229 19-04-2015 22:45:17 8.5 C 52 %
3230 19-04-2015 22:57:17 7.9 C 54 %
3231 19-04-2015 23:09:17 7.6 C 55 %
3232 19-04-2015 23:21:17 7.6 C 56 %
3233 19-04-2015 23:33:17 7.1 C 56 %
3234 19-04-2015 23:45:17 6.9 C 57 %
3235 19-04-2015 23:57:17 6.9 C 59 %
3236 20-04-2015 00:09:17 6.9 C 60 %
3237 20-04-2015 00:21:17 6.6 C 60 %
3238 20-04-2015 00:33:17 6.4 C 60 %
3239 20-04-2015 00:45:17 6.3 C 60 %
3240 20-04-2015 00:57:17 5.8 C 62 %
3241 20-04-2015 01:09:17 5.8 C 63 %
3242 20-04-2015 01:21:18 5.5 C 64 %
3243 20-04-2015 01:33:17 5.4 C 65 %
3244 20-04-2015 01:45:17 5.3 C 65 %
3245 20-04-2015 01:57:17 5.2 C 66 %
3246 20-04-2015 02:09:17 4.9 C 68 %
3247 20-04-2015 02:21:17 4.8 C 69 %
3248 20-04-2015 02:33:17 4.8 C 70 %
3249 20-04-2015 02:45:17 4.6 C 70 %
3250 20-04-2015 02:57:17 4.4 C 71 %
Sensor: Nr:Datum:Temp:Feuchte:
Aussen-T/F 3251 20-04-2015 03:09:17 4.3 C 71 %
3252 20-04-2015 03:21:17 4.2 C 72 %
3253 20-04-2015 03:33:17 4.1 C 72 %
3254 20-04-2015 03:45:17 3.9 C 74 %
3255 20-04-2015 03:57:17 4 C 74 %
3256 20-04-2015 04:09:17 4.1 C 74 %
3257 20-04-2015 04:21:17 3.8 C 74 %
3258 20-04-2015 04:33:17 3.7 C 75 %
3259 20-04-2015 04:45:17 3.8 C 76 %
3260 20-04-2015 04:57:17 3.9 C 77 %
3261 20-04-2015 05:09:17 3.6 C 77 %
3262 20-04-2015 05:21:17 3.6 C 78 %
3263 20-04-2015 05:33:17 3.5 C 79 %
3264 20-04-2015 05:45:17 3.4 C 80 %
3265 20-04-2015 05:57:18 3.2 C 79 %
3266 20-04-2015 06:09:17 3.2 C 79 %
3267 20-04-2015 06:21:17 3.5 C 81 %
3268 20-04-2015 06:33:17 3.4 C 82 %
3269 20-04-2015 06:45:16 3.5 C 82 %
3270 20-04-2015 06:57:17 3.3 C 81 %
3271 20-04-2015 07:09:17 3.7 C 81 %
3272 20-04-2015 07:21:17 4.1 C 80 %
3273 20-04-2015 07:33:17 4.6 C 75 %
3274 20-04-2015 07:45:17 4.9 C 73 %
3275 20-04-2015 07:57:17 5.1 C 71 %
Sensor: Nr:Datum:Temp:Feuchte:
Aussen-T/F 3276 20-04-2015 08:09:17 5 C 71 %
3277 20-04-2015 08:21:17 5.1 C 72 %
3278 20-04-2015 08:33:17 5 C 74 %
3279 20-04-2015 08:45:17 5.4 C 75 %
3280 20-04-2015 08:57:17 5.7 C 76 %
3281 20-04-2015 09:09:17 6.4 C 73 %
3282 20-04-2015 09:21:17 7.3 C 70 %
3283 20-04-2015 09:33:17 7.6 C 66 %
3284 20-04-2015 09:45:17 7.7 C 66 %
3285 20-04-2015 09:57:17 7.9 C 65 %
3286 20-04-2015 10:09:17 8.1 C 65 %
3287 20-04-2015 10:21:16 8.6 C 65 %
3288 20-04-2015 10:33:17 9.3 C 60 %
3289 20-04-2015 10:45:17 10.1 C 56 %
3290 20-04-2015 10:57:17 11 C 53 %
3291 20-04-2015 11:09:17 12.6 C 46 %
3292 20-04-2015 11:21:17 13 C 44 %
3293 20-04-2015 11:33:17 13.4 C 42 %
3294 20-04-2015 11:45:17 13.7 C 40 %
3295 20-04-2015 11:57:17 14 C 36 %
3296 20-04-2015 12:09:17 14.2 C 37 %
3297 20-04-2015 12:21:17 15.2 C 33 %
3298 20-04-2015 12:33:17 15.4 C 33 %
3299 20-04-2015 12:45:17 15.6 C 32 %
3300 20-04-2015 12:57:17 15.9 C 33 %
Sensor: Nr:Datum:Temp:Feuchte:
Aussen-T/F 3301 20-04-2015 13:09:17 16 C 32 %
3302 20-04-2015 13:21:17 16 C 32 %
3303 20-04-2015 13:33:17 16.1 C 32 %
3304 20-04-2015 13:45:17 16.4 C 33 %
3305 20-04-2015 13:57:17 16.8 C 31 %
3306 20-04-2015 14:09:16 17.6 C 31 %
3307 20-04-2015 14:21:17 17.5 C 30 %
3308 20-04-2015 14:33:17 18.3 C 30 %
3309 20-04-2015 14:45:17 19.2 C 25 %
3310 20-04-2015 14:57:17 19.5 C 24 %
3311 20-04-2015 15:09:17 19.9 C 21 %
3312 20-04-2015 15:21:17 20.4 C 20 %
3313 20-04-2015 15:33:17 20.9 C 20 %
3314 20-04-2015 15:45:17 21 C 20 %
3315 20-04-2015 15:57:17 21 C 20 %
3316 20-04-2015 16:09:17 21.2 C 20 %
3317 20-04-2015 16:21:17 21.5 C 20 %
3318 20-04-2015 16:33:18 22.5 C 20 %
3319 20-04-2015 16:45:17 22.5 C 20 %
3320 20-04-2015 16:57:17 22.4 C 20 %
3321 20-04-2015 17:09:17 23 C 20 %
3322 20-04-2015 17:21:17 24.1 C 20 %
3323 20-04-2015 17:33:17 24.3 C 20 %
3324 20-04-2015 17:45:17 23.8 C 20 %
3325 20-04-2015 17:57:17 23.9 C 20 %
Sensor: Nr:Datum:Temp:Feuchte:
Aussen-T/F 3326 20-04-2015 18:09:17 23.5 C 20 %
3327 20-04-2015 18:21:17 23.5 C 20 %
3328 20-04-2015 18:33:17 24 C 20 %
3329 20-04-2015 18:45:17 25 C 20 %
3330 20-04-2015 18:57:17 24.5 C 20 %
3331 20-04-2015 19:09:17 22.5 C 20 %
3332 20-04-2015 19:21:17 20.9 C 20 %
3333 20-04-2015 19:33:17 20.2 C 20 %
3334 20-04-2015 19:45:17 19.6 C 20 %
3335 20-04-2015 19:57:17 19.1 C 22 %
3336 20-04-2015 20:09:17 18.7 C 26 %
3337 20-04-2015 20:21:17 17.8 C 27 %
3338 20-04-2015 20:33:17 15.7 C 34 %
3339 20-04-2015 20:45:17 15.1 C 36 %
3340 20-04-2015 20:57:17 14.6 C 38 %
3341 20-04-2015 21:09:17 14.1 C 38 %
3342 20-04-2015 21:21:17 13.7 C 40 %
3343 20-04-2015 21:33:17 13.1 C 41 %
3344 20-04-2015 21:45:17 12.7 C 43 %
3345 20-04-2015 21:57:17 12.4 C 44 %
3346 20-04-2015 22:09:17 11.9 C 46 %
3347 20-04-2015 22:21:17 11.5 C 47 %
3348 20-04-2015 22:33:17 11.4 C 48 %
3349 20-04-2015 22:45:17 11.4 C 48 %
3350 20-04-2015 22:57:17 11.5 C 47 %
Sensor: Nr:Datum:Temp:Feuchte:
Aussen-T/F 3351 20-04-2015 23:09:17 11.4 C 48 %
3352 20-04-2015 23:21:17 11.1 C 49 %
3353 20-04-2015 23:33:17 10.2 C 51 %
3354 20-04-2015 23:45:17 10 C 53 %
3355 20-04-2015 23:57:17 10.1 C 54 %
3356 21-04-2015 00:09:17 10 C 54 %
3357 21-04-2015 00:21:17 9.8 C 56 %
3358 21-04-2015 00:33:17 9.1 C 58 %
3359 21-04-2015 00:45:17 9 C 58 %
3360 21-04-2015 00:57:17 8.6 C 60 %
3361 21-04-2015 01:09:17 8.1 C 61 %
3362 21-04-2015 01:21:17 8 C 62 %
3363 21-04-2015 01:33:17 7.7 C 63 %
3364 21-04-2015 01:45:17 7.6 C 64 %
3365 21-04-2015 01:57:17 7.3 C 65 %
3366 21-04-2015 02:09:17 7.4 C 66 %
3367 21-04-2015 02:21:17 7.2 C 65 %
3368 21-04-2015 02:33:17 6.9 C 66 %
3369 21-04-2015 02:45:17 6.8 C 68 %
3370 21-04-2015 02:57:17 6.6 C 69 %
3371 21-04-2015 03:09:17 6.3 C 70 %
3372 21-04-2015 03:21:17 6.2 C 70 %
3373 21-04-2015 03:33:17 6 C 71 %
3374 21-04-2015 03:45:17 6 C 71 %
3375 21-04-2015 03:57:17 6 C 72 %
Sensor: Nr:Datum:Temp:Feuchte:
Aussen-T/F 3376 21-04-2015 04:09:17 5.9 C 73 %
3377 21-04-2015 04:21:17 5.6 C 74 %
3378 21-04-2015 04:33:17 5.3 C 74 %
3379 21-04-2015 04:45:17 5.4 C 76 %
3380 21-04-2015 04:57:17 5.2 C 76 %
3381 21-04-2015 05:09:17 5.1 C 76 %
3382 21-04-2015 05:21:17 4.9 C 78 %
3383 21-04-2015 05:33:17 5 C 77 %
3384 21-04-2015 05:45:17 4.8 C 78 %
3385 21-04-2015 05:57:17 4.8 C 79 %
3386 21-04-2015 06:09:17 4.7 C 79 %
3387 21-04-2015 06:21:17 4.7 C 80 %
3388 21-04-2015 06:33:17 4.7 C 80 %
3389 21-04-2015 06:45:16 4.9 C 81 %
3390 21-04-2015 06:57:17 4.9 C 80 %
3391 21-04-2015 07:09:17 5.1 C 81 %
3392 21-04-2015 07:21:17 5 C 81 %
3393 21-04-2015 07:33:17 5.2 C 82 %
3394 21-04-2015 07:45:17 5.2 C 81 %
3395 21-04-2015 07:57:17 5.1 C 81 %
3396 21-04-2015 08:09:17 5.3 C 81 %
3397 21-04-2015 08:21:17 5.4 C 81 %
3398 21-04-2015 08:33:17 5.7 C 81 %
3399 21-04-2015 08:45:17 6 C 79 %
3400 21-04-2015 08:57:17 6.3 C 79 %
Sensor: Nr:Datum:Temp:Feuchte:
Aussen-T/F 3401 21-04-2015 09:09:17 6.6 C 79 %
3402 21-04-2015 09:21:17 7.2 C 76 %
3403 21-04-2015 09:33:17 7.6 C 75 %
3404 21-04-2015 09:45:17 8.2 C 73 %
3405 21-04-2015 09:57:17 8.7 C 71 %
3406 21-04-2015 10:09:17 9.5 C 68 %
3407 21-04-2015 10:21:17 10.1 C 65 %
3408 21-04-2015 10:33:17 10.6 C 63 %
3409 21-04-2015 10:45:17 11.2 C 61 %
3410 21-04-2015 10:57:17 12 C 59 %
3411 21-04-2015 11:09:17 13.3 C 56 %
3412 21-04-2015 11:21:17 14 C 49 %
3413 21-04-2015 11:33:17 14.1 C 50 %
3414 21-04-2015 11:45:17 14.4 C 48 %
3415 21-04-2015 11:57:17 14.8 C 46 %
3416 21-04-2015 12:09:17 15.2 C 43 %
3417 21-04-2015 12:21:17 15.5 C 39 %
3418 21-04-2015 12:33:17 15.9 C 39 %
3419 21-04-2015 12:45:17 15.9 C 37 %
3420 21-04-2015 12:57:17 16.2 C 36 %
3421 21-04-2015 13:09:17 16.6 C 36 %
3422 21-04-2015 13:21:17 17 C 34 %
3423 21-04-2015 13:33:17 17.7 C 31 %
3424 21-04-2015 13:45:17 18.3 C 32 %
3425 21-04-2015 13:57:17 18.6 C 30 %
Sensor: Nr:Datum:Temp:Feuchte:
Aussen-T/F 3426 21-04-2015 14:09:17 19.1 C 29 %
3427 21-04-2015 14:21:17 19 C 30 %
3428 21-04-2015 14:33:17 20.3 C 28 %
3429 21-04-2015 14:45:17 21.1 C 27 %
3430 21-04-2015 14:57:17 21.5 C 22 %
3431 21-04-2015 15:09:17 22.1 C 20 %
3432 21-04-2015 15:21:17 22.8 C 20 %
3433 21-04-2015 15:33:17 23.3 C 20 %
3434 21-04-2015 15:45:17 23.3 C 20 %
3435 21-04-2015 15:57:17 23.7 C 20 %
3436 21-04-2015 16:09:17 23.8 C 20 %
3437 21-04-2015 16:21:17 24.1 C 20 %
3438 21-04-2015 16:33:17 24.2 C 20 %
3439 21-04-2015 16:45:17 24.4 C 20 %
3440 21-04-2015 16:57:17 24.2 C 20 %
3441 21-04-2015 17:09:17 25.3 C 20 %
3442 21-04-2015 17:21:17 26.2 C 20 %
3443 21-04-2015 17:33:17 25.9 C 20 %
3444 21-04-2015 17:45:17 25.7 C 20 %
3445 21-04-2015 17:57:17 24.8 C 20 %
3446 21-04-2015 18:09:17 24.2 C 20 %
3447 21-04-2015 18:21:17 24.4 C 20 %
3448 21-04-2015 18:33:17 24.5 C 20 %
3449 21-04-2015 18:45:17 25.9 C 20 %
3450 21-04-2015 18:57:17 26.1 C 20 %
Sensor: Nr:Datum:Temp:Feuchte:
Aussen-T/F 3451 21-04-2015 19:09:17 24.9 C 20 %
3452 21-04-2015 19:21:17 22.4 C 21 %
3453 21-04-2015 19:33:18 20.9 C 23 %
3454 21-04-2015 19:45:17 20.4 C 25 %
3455 21-04-2015 19:57:17 19.7 C 22 %
3456 21-04-2015 20:09:17 18.7 C 28 %
3457 21-04-2015 20:21:17 18.1 C 26 %
3458 21-04-2015 20:33:17 16.4 C 30 %
3459 21-04-2015 20:45:17 15.6 C 33 %
3460 21-04-2015 20:57:17 15 C 35 %
3461 21-04-2015 21:09:17 15.6 C 32 %
3462 21-04-2015 21:21:17 15.6 C 29 %
3463 21-04-2015 21:33:17 15.4 C 31 %
3464 21-04-2015 21:45:17 14.7 C 33 %
3465 21-04-2015 21:57:17 14.7 C 34 %
3466 21-04-2015 22:09:17 13.8 C 37 %
3467 21-04-2015 22:21:17 13.7 C 36 %
3468 21-04-2015 22:33:17 13.2 C 38 %
3469 21-04-2015 22:45:17 13 C 39 %
3470 21-04-2015 22:57:17 12.7 C 41 %
3471 21-04-2015 23:09:17 12.6 C 42 %
3472 21-04-2015 23:21:17 12.1 C 44 %
3473 21-04-2015 23:33:17 11.8 C 46 %
3474 21-04-2015 23:45:17 11.4 C 47 %
3475 21-04-2015 23:57:17 11.1 C 49 %
Sensor: Nr:Datum:Temp:Feuchte:
G-T/H 1 24-03-2015 00:07:17 8 C 66 %
2 24-03-2015 00:19:17 8 C 65 %
3 24-03-2015 00:31:17 7.9 C 66 %
4 24-03-2015 00:43:17 7.8 C 66 %
5 24-03-2015 00:55:17 7.8 C 65 %
6 24-03-2015 01:07:17 7.8 C 65 %
7 24-03-2015 01:19:17 7.8 C 65 %
8 24-03-2015 01:31:17 7.7 C 65 %
9 24-03-2015 01:43:17 7.7 C 65 %
10 24-03-2015 01:55:17 7.7 C 65 %
11 24-03-2015 02:07:17 7.7 C 64 %
12 24-03-2015 02:19:17 7.6 C 64 %
13 24-03-2015 02:31:17 7.6 C 64 %
14 24-03-2015 02:43:17 7.6 C 64 %
15 24-03-2015 02:55:17 7.6 C 64 %
16 24-03-2015 03:07:17 7.6 C 64 %
17 24-03-2015 03:19:17 7.6 C 64 %
18 24-03-2015 03:31:17 7.5 C 64 %
19 24-03-2015 03:43:17 7.6 C 64 %
20 24-03-2015 03:55:17 7.6 C 64 %
21 24-03-2015 04:07:17 7.6 C 64 %
22 24-03-2015 04:19:17 7.5 C 64 %
23 24-03-2015 04:31:17 7.5 C 64 %
24 24-03-2015 04:43:17 7.5 C 64 %
25 24-03-2015 04:55:17 7.5 C 64 %
Sensor: Nr:Datum:Temp:Feuchte:
G-T/H 26 24-03-2015 05:07:17 7.5 C 64 %
27 24-03-2015 05:19:17 7.5 C 64 %
28 24-03-2015 05:31:17 7.5 C 64 %
29 24-03-2015 05:43:17 7.5 C 64 %
30 24-03-2015 05:55:17 7.5 C 64 %
31 24-03-2015 06:07:17 7.5 C 64 %
32 24-03-2015 06:19:17 7.5 C 64 %
33 24-03-2015 06:31:17 7.5 C 64 %
34 24-03-2015 06:43:17 7.6 C 64 %
35 24-03-2015 06:55:17 7.6 C 65 %
36 24-03-2015 07:07:17 7.6 C 65 %
37 24-03-2015 07:19:17 7.6 C 65 %
38 24-03-2015 07:31:17 7.6 C 65 %
39 24-03-2015 07:43:17 7.6 C 66 %
40 24-03-2015 07:55:17 7.6 C 66 %
41 24-03-2015 08:07:17 7.7 C 66 %
42 24-03-2015 08:19:17 7.7 C 66 %
43 24-03-2015 08:31:17 7.7 C 66 %
44 24-03-2015 08:43:17 7.7 C 66 %
45 24-03-2015 08:55:17 7.7 C 66 %
46 24-03-2015 09:07:17 7.7 C 66 %
47 24-03-2015 09:19:17 7.7 C 67 %
48 24-03-2015 09:31:17 7.7 C 67 %
49 24-03-2015 09:43:17 7.7 C 67 %
50 24-03-2015 09:55:17 7.8 C 67 %
Sensor: Nr:Datum:Temp:Feuchte:
G-T/H 51 24-03-2015 10:07:17 7.8 C 67 %
52 24-03-2015 10:19:17 7.8 C 67 %
53 24-03-2015 10:31:17 7.8 C 67 %
54 24-03-2015 10:43:17 7.8 C 67 %
55 24-03-2015 10:55:17 7.8 C 67 %
56 24-03-2015 11:07:17 7.8 C 67 %
57 24-03-2015 11:19:17 7.8 C 67 %
58 24-03-2015 11:31:17 7.8 C 68 %
59 24-03-2015 11:43:17 7.9 C 68 %
60 24-03-2015 11:55:17 7.9 C 68 %
61 24-03-2015 12:07:17 7.9 C 68 %
62 24-03-2015 12:19:17 8 C 67 %
63 24-03-2015 12:31:17 8 C 67 %
64 24-03-2015 12:43:17 8 C 67 %
65 24-03-2015 12:55:17 8.1 C 67 %
66 24-03-2015 13:07:17 8.1 C 67 %
67 24-03-2015 13:19:18 8.1 C 67 %
68 24-03-2015 13:31:17 8.2 C 67 %
69 24-03-2015 13:43:17 8.2 C 67 %
70 24-03-2015 13:55:17 8.2 C 67 %
71 24-03-2015 14:07:17 8.2 C 67 %
72 24-03-2015 14:19:17 8.3 C 67 %
73 24-03-2015 14:31:17 8.3 C 67 %
74 24-03-2015 14:43:17 8.3 C 67 %
75 24-03-2015 14:55:17 8.4 C 67 %
Sensor: Nr:Datum:Temp:Feuchte:
G-T/H 76 24-03-2015 15:07:17 8.4 C 67 %
77 24-03-2015 15:19:17 8.4 C 68 %
78 24-03-2015 15:31:17 8.4 C 68 %
79 24-03-2015 15:43:17 8.5 C 68 %
80 24-03-2015 15:55:17 8.5 C 68 %
81 24-03-2015 16:07:17 8.6 C 68 %
82 24-03-2015 16:19:17 8.6 C 68 %
83 24-03-2015 16:31:17 8.6 C 68 %
84 24-03-2015 16:43:17 8.6 C 68 %
85 24-03-2015 16:55:17 8.6 C 68 %
86 24-03-2015 17:07:17 8.7 C 68 %
87 24-03-2015 17:19:16 8.7 C 68 %
88 24-03-2015 17:31:17 8.7 C 68 %
89 24-03-2015 17:43:17 8.7 C 68 %
90 24-03-2015 17:55:17 8.8 C 68 %
91 24-03-2015 18:07:17 8.8 C 68 %
92 24-03-2015 18:19:17 8.8 C 68 %
93 24-03-2015 18:31:17 8.8 C 68 %
94 24-03-2015 18:43:17 8.8 C 68 %
95 24-03-2015 18:55:17 8.9 C 68 %
96 24-03-2015 19:07:17 8.9 C 68 %
97 24-03-2015 19:19:17 8.9 C 68 %
98 24-03-2015 19:31:17 8.9 C 68 %
99 24-03-2015 19:43:17 8.9 C 69 %
100 24-03-2015 19:55:17 8.9 C 69 %
Sensor: Nr:Datum:Temp:Feuchte:
G-T/H 101 24-03-2015 20:07:17 8.9 C 69 %
102 24-03-2015 20:19:17 9 C 68 %
103 24-03-2015 20:31:17 9 C 68 %
104 24-03-2015 20:43:17 9 C 68 %
105 24-03-2015 20:55:17 9 C 68 %
106 24-03-2015 21:07:17 9 C 68 %
107 24-03-2015 21:19:17 9 C 68 %
108 24-03-2015 21:31:17 9 C 68 %
109 24-03-2015 21:43:17 9 C 68 %
110 24-03-2015 21:55:17 9 C 68 %
111 24-03-2015 22:07:17 9 C 68 %
112 24-03-2015 22:19:17 9 C 68 %
113 24-03-2015 22:31:17 9 C 68 %
114 24-03-2015 22:43:17 9 C 68 %
115 24-03-2015 22:55:17 9 C 68 %
116 24-03-2015 23:07:17 9.1 C 68 %
117 24-03-2015 23:19:17 9 C 68 %
118 24-03-2015 23:31:17 9 C 68 %
119 24-03-2015 23:43:17 9.1 C 68 %
120 24-03-2015 23:55:17 9.1 C 68 %
121 25-03-2015 00:07:17 9 C 68 %
122 25-03-2015 00:19:17 9 C 68 %
123 25-03-2015 00:31:17 9 C 68 %
124 25-03-2015 00:43:17 9 C 68 %
125 25-03-2015 00:55:17 9 C 68 %
Sensor: Nr:Datum:Temp:Feuchte:
G-T/H 126 25-03-2015 01:07:17 9 C 68 %
127 25-03-2015 01:19:17 9.1 C 68 %
128 25-03-2015 01:31:17 9 C 68 %
129 25-03-2015 01:43:17 9 C 68 %
130 25-03-2015 01:55:17 9 C 68 %
131 25-03-2015 02:07:17 9 C 68 %
132 25-03-2015 02:19:17 9 C 68 %
133 25-03-2015 02:31:17 9 C 68 %
134 25-03-2015 02:43:17 9 C 68 %
135 25-03-2015 02:55:17 9 C 68 %
136 25-03-2015 03:07:17 9 C 68 %
137 25-03-2015 03:19:17 9 C 68 %
138 25-03-2015 03:31:17 9 C 68 %
139 25-03-2015 03:43:17 9 C 68 %
140 25-03-2015 03:55:17 9 C 69 %
141 25-03-2015 04:07:17 9 C 69 %
142 25-03-2015 04:19:17 9 C 69 %
143 25-03-2015 04:31:17 9 C 69 %
144 25-03-2015 04:43:17 9 C 69 %
145 25-03-2015 04:55:17 9 C 69 %
146 25-03-2015 05:07:17 9 C 69 %
147 25-03-2015 05:19:17 9 C 69 %
148 25-03-2015 05:31:17 9 C 69 %
149 25-03-2015 05:43:17 9 C 69 %
150 25-03-2015 05:55:17 8.9 C 70 %
Sensor: Nr:Datum:Temp:Feuchte:
G-T/H 151 25-03-2015 06:07:17 8.9 C 70 %
152 25-03-2015 06:19:17 8.9 C 70 %
153 25-03-2015 06:31:17 8.9 C 70 %
154 25-03-2015 06:43:17 8.9 C 70 %
155 25-03-2015 06:55:17 8.9 C 70 %
156 25-03-2015 07:07:17 8.9 C 70 %
157 25-03-2015 07:19:17 8.9 C 70 %
158 25-03-2015 07:31:17 8.9 C 70 %
159 25-03-2015 07:43:17 8.9 C 70 %
160 25-03-2015 07:55:17 8.9 C 70 %
161 25-03-2015 08:07:16 8.9 C 70 %
162 25-03-2015 08:19:17 8.9 C 70 %
163 25-03-2015 08:31:17 8.9 C 70 %
164 25-03-2015 08:43:17 8.9 C 70 %
165 25-03-2015 08:55:17 8.9 C 70 %
166 25-03-2015 09:07:17 8.9 C 70 %
167 25-03-2015 09:19:17 8.9 C 70 %
168 25-03-2015 09:31:17 8.9 C 70 %
169 25-03-2015 09:43:17 8.9 C 70 %
170 25-03-2015 09:55:17 9 C 69 %
171 25-03-2015 10:07:17 9 C 69 %
172 25-03-2015 10:19:17 9 C 69 %
173 25-03-2015 10:31:17 9 C 69 %
174 25-03-2015 10:43:17 9 C 69 %
175 25-03-2015 10:55:17 9 C 69 %
Sensor: Nr:Datum:Temp:Feuchte:
G-T/H 176 25-03-2015 11:07:17 9 C 69 %
177 25-03-2015 11:19:17 9 C 69 %
178 25-03-2015 11:31:17 9.1 C 69 %
179 25-03-2015 11:43:17 9.1 C 69 %
180 25-03-2015 11:55:17 9.1 C 69 %
181 25-03-2015 12:07:17 9.1 C 69 %
182 25-03-2015 12:19:17 9.1 C 69 %
183 25-03-2015 12:31:17 9.2 C 69 %
184 25-03-2015 12:43:17 9.2 C 69 %
185 25-03-2015 12:55:17 9.2 C 69 %
186 25-03-2015 13:07:17 9.2 C 70 %
187 25-03-2015 13:19:17 9.2 C 70 %
188 25-03-2015 13:31:17 9.2 C 70 %
189 25-03-2015 13:43:17 9.3 C 70 %
190 25-03-2015 13:55:17 9.3 C 70 %
191 25-03-2015 14:07:17 9.3 C 70 %
192 25-03-2015 14:19:17 9.3 C 70 %
193 25-03-2015 14:31:17 9.3 C 70 %
194 25-03-2015 14:43:17 9.3 C 70 %
195 25-03-2015 14:55:17 9.4 C 70 %
196 25-03-2015 15:07:17 9.4 C 70 %
197 25-03-2015 15:19:17 9.4 C 70 %
198 25-03-2015 15:31:16 9.4 C 70 %
199 25-03-2015 15:43:17 9.4 C 70 %
200 25-03-2015 15:55:17 9.4 C 70 %
Sensor: Nr:Datum:Temp:Feuchte:
G-T/H 201 25-03-2015 16:07:17 9.4 C 70 %
202 25-03-2015 16:19:16 9.5 C 69 %
203 25-03-2015 16:31:17 9.5 C 69 %
204 25-03-2015 16:43:17 9.5 C 69 %
205 25-03-2015 16:55:17 9.5 C 69 %
206 25-03-2015 17:07:17 9.5 C 69 %
207 25-03-2015 17:19:17 9.5 C 69 %
208 25-03-2015 17:31:17 9.5 C 69 %
209 25-03-2015 17:43:17 9.5 C 69 %
210 25-03-2015 17:55:17 9.5 C 69 %
211 25-03-2015 18:07:17 9.5 C 69 %
212 25-03-2015 18:19:17 9.5 C 69 %
213 25-03-2015 18:31:17 9.6 C 69 %
214 25-03-2015 18:43:17 9.6 C 69 %
215 25-03-2015 18:55:17 9.6 C 69 %
216 25-03-2015 19:07:17 9.6 C 69 %
217 25-03-2015 19:19:17 9.6 C 69 %
218 25-03-2015 19:31:17 9.6 C 69 %
219 25-03-2015 19:43:17 9.6 C 69 %
220 25-03-2015 19:55:17 9.6 C 69 %
221 25-03-2015 20:07:17 9.6 C 69 %
222 25-03-2015 20:19:17 9.6 C 69 %
223 25-03-2015 20:31:17 9.6 C 69 %
224 25-03-2015 20:43:17 9.6 C 69 %
225 25-03-2015 20:55:17 9.6 C 69 %
Sensor: Nr:Datum:Temp:Feuchte:
G-T/H 226 25-03-2015 21:07:17 9.6 C 69 %
227 25-03-2015 21:19:17 9.6 C 69 %
228 25-03-2015 21:31:17 9.6 C 69 %
229 25-03-2015 21:43:17 9.6 C 69 %
230 25-03-2015 21:55:18 9.6 C 69 %
231 25-03-2015 22:07:17 9.6 C 69 %
232 25-03-2015 22:19:17 9.6 C 69 %
233 25-03-2015 22:31:17 9.6 C 69 %
234 25-03-2015 22:43:17 9.6 C 69 %
235 25-03-2015 22:55:17 9.6 C 69 %
236 25-03-2015 23:07:17 9.6 C 69 %
237 25-03-2015 23:19:17 9.6 C 69 %
238 25-03-2015 23:31:17 9.6 C 69 %
239 25-03-2015 23:43:17 9.6 C 69 %
240 25-03-2015 23:55:17 9.6 C 69 %
241 26-03-2015 00:07:17 9.6 C 69 %
242 26-03-2015 00:19:17 9.6 C 69 %
243 26-03-2015 00:31:17 9.6 C 69 %
244 26-03-2015 00:43:17 9.6 C 69 %
245 26-03-2015 00:55:17 9.6 C 69 %
246 26-03-2015 01:07:17 9.6 C 69 %
247 26-03-2015 01:19:17 9.6 C 69 %
248 26-03-2015 01:31:17 9.6 C 69 %
249 26-03-2015 01:43:17 9.6 C 69 %
250 26-03-2015 01:55:17 9.6 C 69 %
Sensor: Nr:Datum:Temp:Feuchte:
G-T/H 251 26-03-2015 02:07:17 9.6 C 69 %
252 26-03-2015 02:19:17 9.6 C 69 %
253 26-03-2015 02:31:17 9.6 C 69 %
254 26-03-2015 02:43:17 9.6 C 69 %
255 26-03-2015 02:55:17 9.6 C 70 %
256 26-03-2015 03:07:17 9.6 C 70 %
257 26-03-2015 03:19:17 9.6 C 70 %
258 26-03-2015 03:31:17 9.6 C 70 %
259 26-03-2015 03:43:17 9.6 C 70 %
260 26-03-2015 03:55:17 9.6 C 70 %
261 26-03-2015 04:07:17 9.6 C 70 %
262 26-03-2015 04:19:17 9.6 C 70 %
263 26-03-2015 04:31:17 9.5 C 70 %
264 26-03-2015 04:43:17 9.5 C 70 %
265 26-03-2015 04:55:17 9.5 C 70 %
266 26-03-2015 05:07:17 9.5 C 70 %
267 26-03-2015 05:19:17 9.6 C 70 %
268 26-03-2015 05:31:17 9.5 C 70 %
269 26-03-2015 05:43:17 9.5 C 70 %
270 26-03-2015 05:55:17 9.5 C 70 %
271 26-03-2015 06:07:17 9.5 C 70 %
272 26-03-2015 06:19:17 9.5 C 69 %
273 26-03-2015 06:31:17 9.4 C 69 %
274 26-03-2015 06:43:17 9.4 C 69 %
275 26-03-2015 06:55:17 9.4 C 69 %
Sensor: Nr:Datum:Temp:Feuchte:
G-T/H 276 26-03-2015 07:07:17 9.4 C 69 %
277 26-03-2015 07:19:17 9.4 C 69 %
278 26-03-2015 07:31:17 9.4 C 69 %
279 26-03-2015 07:43:17 9.4 C 69 %
280 26-03-2015 07:55:17 9.4 C 69 %
281 26-03-2015 08:07:17 9.4 C 69 %
282 26-03-2015 08:19:17 9.4 C 69 %
283 26-03-2015 08:31:17 9.4 C 69 %
284 26-03-2015 08:43:17 9.4 C 69 %
285 26-03-2015 08:55:17 9.4 C 69 %
286 26-03-2015 09:07:17 9.4 C 69 %
287 26-03-2015 09:19:17 9.4 C 69 %
288 26-03-2015 09:31:17 9.4 C 69 %
289 26-03-2015 09:43:17 9.4 C 69 %
290 26-03-2015 09:55:17 9.4 C 69 %
291 26-03-2015 10:07:17 9.4 C 69 %
292 26-03-2015 10:19:17 9.4 C 69 %
293 26-03-2015 10:31:17 9.4 C 69 %
294 26-03-2015 10:43:17 9.4 C 69 %
295 26-03-2015 10:55:17 9.4 C 69 %
296 26-03-2015 11:07:17 9.3 C 69 %
297 26-03-2015 11:19:17 9.3 C 68 %
298 26-03-2015 11:31:17 9.3 C 67 %
299 26-03-2015 11:43:17 9.3 C 66 %
300 26-03-2015 11:55:16 9.3 C 66 %
Sensor: Nr:Datum:Temp:Feuchte:
G-T/H 301 26-03-2015 12:07:17 9.3 C 66 %
302 26-03-2015 12:19:17 9.4 C 67 %
303 26-03-2015 12:31:17 9.4 C 67 %
304 26-03-2015 12:43:17 9.4 C 67 %
305 26-03-2015 12:55:17 9.4 C 67 %
306 26-03-2015 13:07:17 9.4 C 67 %
307 26-03-2015 13:19:17 9.5 C 68 %
308 26-03-2015 13:31:17 9.5 C 68 %
309 26-03-2015 13:43:17 9.5 C 67 %
310 26-03-2015 13:55:17 9.5 C 66 %
311 26-03-2015 14:07:17 9.5 C 66 %
312 26-03-2015 14:19:17 9.5 C 65 %
313 26-03-2015 14:31:17 9.5 C 65 %
314 26-03-2015 14:43:17 9.6 C 65 %
315 26-03-2015 14:55:17 9.6 C 65 %
316 26-03-2015 15:07:17 9.6 C 64 %
317 26-03-2015 15:19:17 9.6 C 64 %
318 26-03-2015 15:31:17 9.6 C 64 %
319 26-03-2015 15:43:17 9.6 C 64 %
320 26-03-2015 15:55:17 9.7 C 63 %
321 26-03-2015 16:07:17 9.6 C 63 %
322 26-03-2015 16:19:17 9.6 C 63 %
323 26-03-2015 16:31:17 9.6 C 62 %
324 26-03-2015 16:43:17 9.6 C 60 %
325 26-03-2015 16:55:17 9.6 C 59 %
Sensor: Nr:Datum:Temp:Feuchte:
G-T/H 326 26-03-2015 17:07:17 9.5 C 59 %
327 26-03-2015 17:19:17 9.5 C 59 %
328 26-03-2015 17:31:17 9.6 C 60 %
329 26-03-2015 17:43:17 9.6 C 61 %
330 26-03-2015 17:55:17 9.6 C 61 %
331 26-03-2015 18:07:17 9.6 C 62 %
332 26-03-2015 18:19:17 9.6 C 62 %
333 26-03-2015 18:31:17 9.6 C 62 %
334 26-03-2015 18:43:17 9.6 C 63 %
335 26-03-2015 18:55:17 9.6 C 63 %
336 26-03-2015 19:07:17 9.6 C 64 %
337 26-03-2015 19:19:17 9.6 C 64 %
338 26-03-2015 19:31:17 9.6 C 64 %
339 26-03-2015 19:43:17 9.7 C 64 %
340 26-03-2015 19:55:17 9.7 C 64 %
341 26-03-2015 20:07:17 9.7 C 65 %
342 26-03-2015 20:19:17 9.7 C 65 %
343 26-03-2015 20:31:17 9.7 C 65 %
344 26-03-2015 20:43:17 9.7 C 65 %
345 26-03-2015 20:55:17 9.7 C 65 %
346 26-03-2015 21:07:17 9.7 C 65 %
347 26-03-2015 21:19:17 9.7 C 65 %
348 26-03-2015 21:31:17 9.6 C 66 %
349 26-03-2015 21:43:17 9.7 C 66 %
350 26-03-2015 21:55:17 9.6 C 66 %
Sensor: Nr:Datum:Temp:Feuchte:
G-T/H 351 26-03-2015 22:07:18 9.6 C 66 %
352 26-03-2015 22:19:17 9.6 C 66 %
353 26-03-2015 22:31:17 9.6 C 66 %
354 26-03-2015 22:43:18 9.6 C 66 %
355 26-03-2015 22:55:17 9.6 C 66 %
356 26-03-2015 23:07:17 9.6 C 66 %
357 26-03-2015 23:19:17 9.6 C 66 %
358 26-03-2015 23:31:17 9.6 C 66 %
359 26-03-2015 23:43:17 9.6 C 66 %
360 26-03-2015 23:55:17 9.6 C 66 %
361 27-03-2015 00:07:17 9.6 C 67 %
362 27-03-2015 00:19:17 9.6 C 67 %
363 27-03-2015 00:31:17 9.6 C 67 %
364 27-03-2015 00:43:17 9.6 C 67 %
365 27-03-2015 00:55:17 9.6 C 67 %
366 27-03-2015 01:07:17 9.6 C 67 %
367 27-03-2015 01:19:17 9.6 C 67 %
368 27-03-2015 01:31:17 9.6 C 67 %
369 27-03-2015 01:43:17 9.5 C 67 %
370 27-03-2015 01:55:17 9.6 C 67 %
371 27-03-2015 02:07:17 9.6 C 67 %
372 27-03-2015 02:19:17 9.5 C 67 %
373 27-03-2015 02:31:17 9.5 C 67 %
374 27-03-2015 02:43:17 9.5 C 67 %
375 27-03-2015 02:55:17 9.5 C 67 %
Sensor: Nr:Datum:Temp:Feuchte:
G-T/H 376 27-03-2015 03:07:17 9.5 C 67 %
377 27-03-2015 03:19:17 9.5 C 67 %
378 27-03-2015 03:31:17 9.5 C 67 %
379 27-03-2015 03:43:17 9.5 C 67 %
380 27-03-2015 03:55:17 9.4 C 67 %
381 27-03-2015 04:07:17 9.4 C 68 %
382 27-03-2015 04:19:17 9.4 C 68 %
383 27-03-2015 04:31:17 9.4 C 68 %
384 27-03-2015 04:43:17 9.4 C 68 %
385 27-03-2015 04:55:17 9.4 C 68 %
386 27-03-2015 05:07:17 9.3 C 68 %
387 27-03-2015 05:19:17 9.3 C 67 %
388 27-03-2015 05:31:17 9.3 C 67 %
389 27-03-2015 05:43:17 9.3 C 67 %
390 27-03-2015 05:55:17 9.3 C 67 %
391 27-03-2015 06:07:17 9.3 C 67 %
392 27-03-2015 06:19:17 9.3 C 67 %
393 27-03-2015 06:31:17 9.3 C 67 %
394 27-03-2015 06:43:17 9.2 C 68 %
395 27-03-2015 06:55:17 9.2 C 68 %
396 27-03-2015 07:07:17 9.2 C 68 %
397 27-03-2015 07:19:16 9.2 C 68 %
398 27-03-2015 07:31:17 9.2 C 68 %
399 27-03-2015 07:43:17 9.2 C 68 %
400 27-03-2015 07:55:17 9.2 C 68 %
Sensor: Nr:Datum:Temp:Feuchte:
G-T/H 401 27-03-2015 08:07:17 9.2 C 68 %
402 27-03-2015 08:19:17 9.1 C 68 %
403 27-03-2015 08:31:17 9.1 C 68 %
404 27-03-2015 08:43:17 9.1 C 68 %
405 27-03-2015 08:55:17 9.1 C 68 %
406 27-03-2015 09:07:17 9.1 C 68 %
407 27-03-2015 09:19:17 9.1 C 68 %
408 27-03-2015 09:31:17 9.1 C 68 %
409 27-03-2015 09:43:17 9.1 C 68 %
410 27-03-2015 09:55:17 9.1 C 68 %
411 27-03-2015 10:07:17 9.1 C 68 %
412 27-03-2015 10:19:17 9.1 C 68 %
413 27-03-2015 10:31:17 9.1 C 68 %
414 27-03-2015 10:43:17 9.1 C 68 %
415 27-03-2015 10:55:17 9.2 C 68 %
416 27-03-2015 11:07:17 9.1 C 68 %
417 27-03-2015 11:19:17 9.2 C 68 %
418 27-03-2015 11:31:17 9.2 C 68 %
419 27-03-2015 11:43:17 9.2 C 68 %
420 27-03-2015 11:55:17 9.1 C 68 %
421 27-03-2015 12:07:18 9.2 C 68 %
422 27-03-2015 12:19:17 9.2 C 68 %
423 27-03-2015 12:31:17 9.2 C 68 %
424 27-03-2015 12:43:17 9.2 C 68 %
425 27-03-2015 12:55:17 9.3 C 68 %
Sensor: Nr:Datum:Temp:Feuchte:
G-T/H 426 27-03-2015 13:07:17 9.3 C 68 %
427 27-03-2015 13:19:17 9.3 C 68 %
428 27-03-2015 13:31:17 9.3 C 68 %
429 27-03-2015 13:43:17 9.3 C 68 %
430 27-03-2015 13:55:17 9.3 C 68 %
431 27-03-2015 14:07:17 9.3 C 68 %
432 27-03-2015 14:19:17 9.3 C 68 %
433 27-03-2015 14:31:17 9.4 C 68 %
434 27-03-2015 14:43:17 9.4 C 68 %
435 27-03-2015 14:55:17 9.4 C 68 %
436 27-03-2015 15:07:17 9.4 C 68 %
437 27-03-2015 15:19:18 9.4 C 67 %
438 27-03-2015 15:31:17 9.4 C 67 %
439 27-03-2015 15:43:17 9.4 C 66 %
440 27-03-2015 15:55:17 9.4 C 66 %
441 27-03-2015 16:07:17 9.4 C 65 %
442 27-03-2015 16:19:17 9.5 C 65 %
443 27-03-2015 16:31:17 9.5 C 65 %
444 27-03-2015 16:43:17 9.5 C 65 %
445 27-03-2015 16:55:17 9.5 C 64 %
446 27-03-2015 17:07:17 9.5 C 64 %
447 27-03-2015 17:19:17 9.5 C 63 %
448 27-03-2015 17:31:17 9.5 C 63 %
449 27-03-2015 17:43:17 9.5 C 63 %
450 27-03-2015 17:55:17 9.6 C 64 %
Sensor: Nr:Datum:Temp:Feuchte:
G-T/H 451 27-03-2015 18:07:17 9.5 C 64 %
452 27-03-2015 18:19:17 9.6 C 64 %
453 27-03-2015 18:31:17 9.5 C 63 %
454 27-03-2015 18:43:17 9.5 C 62 %
455 27-03-2015 18:55:17 9.6 C 62 %
456 27-03-2015 19:07:17 9.5 C 61 %
457 27-03-2015 19:19:17 9.5 C 61 %
458 27-03-2015 19:31:17 9.5 C 60 %
459 27-03-2015 19:43:17 9.6 C 61 %
460 27-03-2015 19:55:17 9.6 C 61 %
461 27-03-2015 20:07:17 9.6 C 62 %
462 27-03-2015 20:19:17 9.6 C 62 %
463 27-03-2015 20:31:17 9.6 C 63 %
464 27-03-2015 20:43:17 9.6 C 63 %
465 27-03-2015 20:55:17 9.6 C 64 %
466 27-03-2015 21:07:17 9.6 C 64 %
467 27-03-2015 21:19:17 9.6 C 64 %
468 27-03-2015 21:31:17 9.6 C 64 %
469 27-03-2015 21:43:17 9.6 C 65 %
470 27-03-2015 21:55:17 9.6 C 65 %
471 27-03-2015 22:07:17 9.7 C 65 %
472 27-03-2015 22:19:17 9.7 C 65 %
473 27-03-2015 22:31:17 9.7 C 65 %
474 27-03-2015 22:43:18 9.7 C 65 %
475 27-03-2015 22:55:17 9.7 C 65 %
Sensor: Nr:Datum:Temp:Feuchte:
G-T/H 476 27-03-2015 23:07:17 9.7 C 66 %
477 27-03-2015 23:19:17 9.7 C 66 %
478 27-03-2015 23:31:17 9.7 C 66 %
479 27-03-2015 23:43:17 9.7 C 66 %
480 27-03-2015 23:55:16 9.7 C 66 %
481 28-03-2015 00:07:17 9.7 C 66 %
482 28-03-2015 00:19:17 9.7 C 66 %
483 28-03-2015 00:31:17 9.7 C 66 %
484 28-03-2015 00:43:17 9.6 C 66 %
485 28-03-2015 00:55:17 9.6 C 66 %
486 28-03-2015 01:07:17 9.6 C 66 %
487 28-03-2015 01:19:17 9.6 C 66 %
488 28-03-2015 01:31:17 9.6 C 66 %
489 28-03-2015 01:43:17 9.6 C 66 %
490 28-03-2015 01:55:17 9.6 C 66 %
491 28-03-2015 02:07:17 9.6 C 66 %
492 28-03-2015 02:19:17 9.6 C 66 %
493 28-03-2015 02:31:17 9.6 C 66 %
494 28-03-2015 02:43:17 9.6 C 66 %
495 28-03-2015 02:55:17 9.6 C 66 %
496 28-03-2015 03:07:17 9.6 C 66 %
497 28-03-2015 03:19:17 9.6 C 66 %
498 28-03-2015 03:31:17 9.6 C 66 %
499 28-03-2015 03:43:17 9.6 C 66 %
500 28-03-2015 03:55:17 9.5 C 66 %
Sensor: Nr:Datum:Temp:Feuchte:
G-T/H 501 28-03-2015 04:07:17 9.5 C 66 %
502 28-03-2015 04:19:17 9.5 C 66 %
503 28-03-2015 04:31:18 9.5 C 66 %
504 28-03-2015 04:43:18 9.5 C 66 %
505 28-03-2015 04:55:17 9.5 C 66 %
506 28-03-2015 05:07:17 9.5 C 66 %
507 28-03-2015 05:19:17 9.5 C 66 %
508 28-03-2015 05:31:17 9.5 C 66 %
509 28-03-2015 05:43:17 9.5 C 66 %
510 28-03-2015 05:55:17 9.5 C 67 %
511 28-03-2015 06:07:17 9.5 C 67 %
512 28-03-2015 06:19:17 9.4 C 66 %
513 28-03-2015 06:31:17 9.3 C 65 %
514 28-03-2015 06:43:17 9.2 C 65 %
515 28-03-2015 06:55:17 9.2 C 64 %
516 28-03-2015 07:07:17 9.2 C 64 %
517 28-03-2015 07:19:17 9.2 C 64 %
518 28-03-2015 07:31:17 9.2 C 65 %
519 28-03-2015 07:43:17 9.2 C 65 %
520 28-03-2015 07:55:17 9.3 C 65 %
521 28-03-2015 08:07:17 9.2 C 65 %
522 28-03-2015 08:19:17 9.2 C 65 %
523 28-03-2015 08:31:17 9.3 C 66 %
524 28-03-2015 08:43:17 9.3 C 66 %
525 28-03-2015 08:55:17 9.3 C 66 %
Sensor: Nr:Datum:Temp:Feuchte:
G-T/H 526 28-03-2015 09:07:17 9.2 C 66 %
527 28-03-2015 09:19:17 9.3 C 66 %
528 28-03-2015 09:31:17 9.2 C 66 %
529 28-03-2015 09:43:17 9.3 C 66 %
530 28-03-2015 09:55:17 9.2 C 66 %
531 28-03-2015 10:07:17 9.2 C 66 %
532 28-03-2015 10:19:17 9.3 C 66 %
533 28-03-2015 10:31:17 9.3 C 67 %
534 28-03-2015 10:43:17 9.3 C 67 %
535 28-03-2015 10:55:17 9.3 C 67 %
536 28-03-2015 11:07:17 9.3 C 67 %
537 28-03-2015 11:19:17 9.3 C 67 %
538 28-03-2015 11:31:17 9.4 C 67 %
539 28-03-2015 11:43:17 9.4 C 67 %
540 28-03-2015 11:55:17 9.5 C 66 %
541 28-03-2015 12:07:17 9.6 C 66 %
542 28-03-2015 12:19:18 9.6 C 66 %
543 28-03-2015 12:31:17 9.7 C 66 %
544 28-03-2015 12:43:17 9.7 C 66 %
545 28-03-2015 12:55:17 9.7 C 67 %
546 28-03-2015 13:08:17 9.7 C 67 %
547 28-03-2015 13:19:17 9.7 C 67 %
548 28-03-2015 13:31:17 9.7 C 67 %
549 28-03-2015 13:43:17 9.7 C 67 %
550 28-03-2015 13:55:17 9.7 C 67 %
Sensor: Nr:Datum:Temp:Feuchte:
G-T/H 551 28-03-2015 14:07:17 9.7 C 67 %
552 28-03-2015 14:19:17 9.7 C 67 %
553 28-03-2015 14:31:17 9.7 C 67 %
554 28-03-2015 14:43:17 9.8 C 67 %
555 28-03-2015 14:56:17 9.8 C 67 %
556 28-03-2015 15:07:17 9.8 C 67 %
557 28-03-2015 15:19:17 9.8 C 68 %
558 28-03-2015 15:31:17 9.8 C 68 %
559 28-03-2015 15:43:17 9.8 C 68 %
560 28-03-2015 15:56:17 9.8 C 68 %
561 28-03-2015 16:07:17 9.9 C 68 %
562 28-03-2015 16:20:17 9.9 C 68 %
563 28-03-2015 16:31:17 9.9 C 68 %
564 28-03-2015 16:43:17 9.9 C 68 %
565 28-03-2015 16:55:17 9.9 C 68 %
566 28-03-2015 17:07:17 9.9 C 69 %
567 28-03-2015 17:20:17 10 C 68 %
568 28-03-2015 17:31:17 10 C 68 %
569 28-03-2015 17:43:17 10 C 68 %
570 28-03-2015 17:55:17 10 C 68 %
571 28-03-2015 18:07:17 9.9 C 69 %
572 28-03-2015 18:19:17 10 C 68 %
573 28-03-2015 18:31:17 10 C 68 %
574 28-03-2015 18:43:17 10 C 68 %
575 28-03-2015 18:56:17 10 C 68 %
Sensor: Nr:Datum:Temp:Feuchte:
G-T/H 576 28-03-2015 19:07:17 10 C 68 %
577 28-03-2015 19:19:17 10 C 68 %
578 28-03-2015 19:31:17 10 C 68 %
579 28-03-2015 19:43:17 10 C 68 %
580 28-03-2015 19:56:17 10 C 68 %
581 28-03-2015 20:07:17 10 C 68 %
582 28-03-2015 20:20:17 10 C 68 %
583 28-03-2015 20:32:17 10 C 68 %
584 28-03-2015 20:44:17 10 C 68 %
585 28-03-2015 20:55:17 10 C 68 %
586 28-03-2015 21:07:18 10 C 68 %
587 28-03-2015 21:20:17 10 C 69 %
588 28-03-2015 21:32:17 10.1 C 69 %
589 28-03-2015 21:44:17 10.1 C 69 %
590 28-03-2015 21:55:17 10.1 C 69 %
591 28-03-2015 22:07:17 10.1 C 69 %
592 28-03-2015 22:20:17 10.1 C 69 %
593 28-03-2015 22:31:17 10.1 C 69 %
594 28-03-2015 22:43:17 10.1 C 69 %
595 28-03-2015 22:56:17 10.1 C 69 %
596 28-03-2015 23:08:17 10.1 C 69 %
597 28-03-2015 23:20:17 10.1 C 69 %
598 28-03-2015 23:32:17 10.1 C 69 %
599 28-03-2015 23:44:17 10.1 C 69 %
600 28-03-2015 23:56:17 10.1 C 69 %
Sensor: Nr:Datum:Temp:Feuchte:
G-T/H 601 29-03-2015 00:08:17 10.1 C 69 %
602 29-03-2015 00:19:17 10.2 C 69 %
603 29-03-2015 00:32:17 10.1 C 69 %
604 29-03-2015 00:44:17 10.2 C 69 %
605 29-03-2015 00:56:17 10.2 C 69 %
606 29-03-2015 01:08:17 10.2 C 69 %
607 29-03-2015 01:20:17 10.2 C 69 %
608 29-03-2015 01:32:17 10.2 C 69 %
609 29-03-2015 01:44:17 10.2 C 69 %
610 29-03-2015 01:56:17 10.2 C 69 %
611 29-03-2015 02:08:17 10.2 C 69 %
612 29-03-2015 02:20:17 10.2 C 69 %
613 29-03-2015 02:32:17 10.2 C 69 %
614 29-03-2015 02:44:17 10.2 C 69 %
615 29-03-2015 02:56:17 10.2 C 69 %
616 29-03-2015 04:08:17 10.2 C 69 %
617 29-03-2015 04:20:17 10.2 C 69 %
618 29-03-2015 04:32:17 10.2 C 69 %
619 29-03-2015 04:44:17 10.2 C 69 %
620 29-03-2015 04:56:17 10.3 C 69 %
621 29-03-2015 05:08:17 10.3 C 69 %
622 29-03-2015 05:20:17 10.2 C 69 %
623 29-03-2015 05:32:17 10.3 C 69 %
624 29-03-2015 05:44:17 10.3 C 70 %
625 29-03-2015 05:56:17 10.2 C 70 %
Sensor: Nr:Datum:Temp:Feuchte:
G-T/H 626 29-03-2015 06:08:18 10.2 C 70 %
627 29-03-2015 06:20:17 10.3 C 70 %
628 29-03-2015 06:32:17 10.3 C 70 %
629 29-03-2015 06:44:17 10.3 C 70 %
630 29-03-2015 06:56:16 10.3 C 70 %
631 29-03-2015 07:08:17 10.3 C 70 %
632 29-03-2015 07:20:17 10.3 C 70 %
633 29-03-2015 07:32:17 10.3 C 70 %
634 29-03-2015 07:44:17 10.3 C 70 %
635 29-03-2015 07:56:17 10.3 C 70 %
636 29-03-2015 08:08:17 10.3 C 70 %
637 29-03-2015 08:20:17 10.3 C 70 %
638 29-03-2015 08:32:17 10.3 C 70 %
639 29-03-2015 08:44:17 10.3 C 70 %
640 29-03-2015 08:56:17 10.3 C 70 %
641 29-03-2015 09:08:17 10.3 C 70 %
642 29-03-2015 09:20:17 10.3 C 70 %
643 29-03-2015 09:32:17 10.3 C 70 %
644 29-03-2015 09:44:17 10.3 C 70 %
645 29-03-2015 09:56:16 10.4 C 70 %
646 29-03-2015 10:08:17 10.4 C 70 %
647 29-03-2015 10:20:17 10.4 C 70 %
648 29-03-2015 10:32:17 10.3 C 70 %
649 29-03-2015 10:44:17 10.4 C 70 %
650 29-03-2015 10:56:17 10.5 C 70 %
Sensor: Nr:Datum:Temp:Feuchte:
G-T/H 651 29-03-2015 11:08:17 10.4 C 70 %
652 29-03-2015 11:20:16 10.4 C 70 %
653 29-03-2015 11:32:17 10.4 C 70 %
654 29-03-2015 11:44:17 10.4 C 70 %
655 29-03-2015 11:56:17 10.4 C 70 %
656 29-03-2015 12:08:17 10.5 C 70 %
657 29-03-2015 12:20:17 10.4 C 70 %
658 29-03-2015 12:32:16 10.4 C 70 %
659 29-03-2015 12:44:17 10.4 C 70 %
660 29-03-2015 12:56:17 10.4 C 70 %
661 29-03-2015 13:08:17 10.4 C 70 %
662 29-03-2015 13:20:17 10.4 C 70 %
663 29-03-2015 13:32:17 10.4 C 70 %
664 29-03-2015 13:44:17 10.5 C 70 %
665 29-03-2015 13:56:16 10.5 C 70 %
666 29-03-2015 14:08:17 10.5 C 71 %
667 29-03-2015 14:20:17 10.5 C 71 %
668 29-03-2015 14:32:16 10.5 C 71 %
669 29-03-2015 14:44:16 10.5 C 71 %
670 29-03-2015 14:56:17 10.5 C 71 %
671 29-03-2015 15:08:17 10.5 C 71 %
672 29-03-2015 15:20:17 10.5 C 71 %
673 29-03-2015 15:32:17 10.5 C 71 %
674 29-03-2015 15:44:17 10.5 C 71 %
675 29-03-2015 15:56:17 10.5 C 71 %
Sensor: Nr:Datum:Temp:Feuchte:
G-T/H 676 29-03-2015 16:08:17 10.5 C 71 %
677 29-03-2015 16:20:16 10.5 C 71 %
678 29-03-2015 16:32:17 10.6 C 71 %
679 29-03-2015 16:44:17 10.6 C 71 %
680 29-03-2015 16:56:17 10.6 C 71 %
681 29-03-2015 17:08:17 10.6 C 71 %
682 29-03-2015 17:20:16 10.6 C 71 %
683 29-03-2015 17:32:17 10.6 C 71 %
684 29-03-2015 17:44:17 10.6 C 71 %
685 29-03-2015 17:56:17 10.7 C 71 %
686 29-03-2015 18:08:17 10.7 C 71 %
687 29-03-2015 18:20:17 10.7 C 71 %
688 29-03-2015 18:32:17 10.7 C 71 %
689 29-03-2015 18:44:18 10.7 C 71 %
690 29-03-2015 18:56:17 10.7 C 71 %
691 29-03-2015 19:08:17 10.7 C 71 %
692 29-03-2015 19:20:17 10.7 C 71 %
693 29-03-2015 19:32:17 10.7 C 71 %
694 29-03-2015 19:44:17 10.7 C 72 %
695 29-03-2015 19:56:17 10.7 C 72 %
696 29-03-2015 20:08:17 10.8 C 72 %
697 29-03-2015 20:20:17 10.7 C 72 %
698 29-03-2015 20:32:17 10.7 C 72 %
699 29-03-2015 20:44:17 10.7 C 72 %
700 29-03-2015 20:56:17 10.7 C 72 %
Sensor: Nr:Datum:Temp:Feuchte:
G-T/H 701 29-03-2015 21:08:17 10.7 C 72 %
702 29-03-2015 21:20:17 10.7 C 72 %
703 29-03-2015 21:32:17 10.8 C 72 %
704 29-03-2015 21:44:17 10.7 C 72 %
705 29-03-2015 21:56:17 10.8 C 72 %
706 29-03-2015 22:08:17 10.8 C 72 %
707 29-03-2015 22:20:17 10.8 C 72 %
708 29-03-2015 22:32:17 10.8 C 72 %
709 29-03-2015 22:44:17 10.8 C 72 %
710 29-03-2015 22:56:17 10.8 C 72 %
711 29-03-2015 23:08:17 10.7 C 72 %
712 29-03-2015 23:20:17 10.7 C 72 %
713 29-03-2015 23:32:17 10.7 C 71 %
714 29-03-2015 23:44:17 10.8 C 71 %
715 29-03-2015 23:56:17 10.7 C 71 %
716 30-03-2015 00:08:17 10.7 C 71 %
717 30-03-2015 00:20:17 10.7 C 71 %
718 30-03-2015 00:32:17 10.7 C 71 %
719 30-03-2015 00:44:17 10.7 C 71 %
720 30-03-2015 00:56:17 10.7 C 71 %
721 30-03-2015 01:08:17 10.7 C 71 %
722 30-03-2015 01:20:17 10.7 C 71 %
723 30-03-2015 01:32:17 10.7 C 71 %
724 30-03-2015 01:44:17 10.7 C 71 %
725 30-03-2015 01:56:17 10.7 C 71 %
Sensor: Nr:Datum:Temp:Feuchte:
G-T/H 726 30-03-2015 02:08:17 10.7 C 71 %
727 30-03-2015 02:20:17 10.7 C 71 %
728 30-03-2015 02:32:17 10.6 C 71 %
729 30-03-2015 02:44:18 10.6 C 71 %
730 30-03-2015 02:56:17 10.7 C 71 %
731 30-03-2015 03:08:17 10.6 C 71 %
732 30-03-2015 03:20:17 10.6 C 71 %
733 30-03-2015 03:32:17 10.7 C 71 %
734 30-03-2015 03:44:17 10.6 C 71 %
735 30-03-2015 03:56:17 10.7 C 71 %
736 30-03-2015 04:08:17 10.6 C 71 %
737 30-03-2015 04:20:17 10.6 C 71 %
738 30-03-2015 04:32:17 10.6 C 71 %
739 30-03-2015 04:44:17 10.6 C 71 %
740 30-03-2015 04:56:17 10.6 C 71 %
741 30-03-2015 05:08:17 10.6 C 71 %
742 30-03-2015 05:20:17 10.5 C 71 %
743 30-03-2015 05:32:17 10.5 C 71 %
744 30-03-2015 05:44:17 10.5 C 71 %
745 30-03-2015 05:56:17 10.5 C 71 %
746 30-03-2015 06:08:17 10.5 C 71 %
747 30-03-2015 06:20:17 10.5 C 70 %
748 30-03-2015 06:32:17 10.5 C 70 %
749 30-03-2015 06:44:17 10.5 C 70 %
750 30-03-2015 06:56:17 10.5 C 70 %
Sensor: Nr:Datum:Temp:Feuchte:
G-T/H 751 30-03-2015 07:08:17 10.5 C 70 %
752 30-03-2015 07:20:17 10.4 C 70 %
753 30-03-2015 07:32:17 10.3 C 69 %
754 30-03-2015 07:44:17 10.2 C 69 %
755 30-03-2015 07:56:17 10.2 C 68 %
756 30-03-2015 08:08:17 10.1 C 67 %
757 30-03-2015 08:20:17 10.1 C 66 %
758 30-03-2015 08:32:17 10.2 C 67 %
759 30-03-2015 08:44:17 10.2 C 67 %
760 30-03-2015 08:56:17 10.2 C 67 %
761 30-03-2015 09:08:17 10.2 C 67 %
762 30-03-2015 09:20:17 10.3 C 68 %
763 30-03-2015 09:32:17 10.3 C 68 %
764 30-03-2015 09:44:17 10.2 C 68 %
765 30-03-2015 09:56:17 10.2 C 68 %
766 30-03-2015 10:08:17 10.1 C 67 %
767 30-03-2015 10:20:17 10.1 C 66 %
768 30-03-2015 10:32:17 10.1 C 66 %
769 30-03-2015 10:44:17 10.2 C 66 %
770 30-03-2015 10:56:17 10.2 C 67 %
771 30-03-2015 11:08:17 10.2 C 67 %
772 30-03-2015 11:20:17 10.2 C 67 %
773 30-03-2015 11:32:17 10.1 C 65 %
774 30-03-2015 11:44:17 10.1 C 64 %
775 30-03-2015 11:56:17 10.1 C 63 %
Sensor: Nr:Datum:Temp:Feuchte:
G-T/H 776 30-03-2015 12:08:17 10 C 63 %
777 30-03-2015 12:20:17 10 C 62 %
778 30-03-2015 12:32:17 10 C 62 %
779 30-03-2015 12:44:17 10.1 C 62 %
780 30-03-2015 12:56:17 10.1 C 63 %
781 30-03-2015 13:08:18 10.1 C 63 %
782 30-03-2015 13:20:17 10.1 C 64 %
783 30-03-2015 13:32:17 10.2 C 64 %
784 30-03-2015 13:44:17 10.2 C 64 %
785 30-03-2015 13:56:17 10.2 C 62 %
786 30-03-2015 14:08:17 10.1 C 61 %
787 30-03-2015 14:20:17 10.1 C 62 %
788 30-03-2015 14:32:17 10.2 C 62 %
789 30-03-2015 14:44:17 10.2 C 63 %
790 30-03-2015 14:56:17 10.2 C 63 %
791 30-03-2015 15:08:17 10.2 C 64 %
792 30-03-2015 15:20:17 10.3 C 64 %
793 30-03-2015 15:32:17 10.2 C 64 %
794 30-03-2015 15:44:17 10.2 C 65 %
795 30-03-2015 15:56:17 10.3 C 65 %
796 30-03-2015 16:08:17 10.3 C 64 %
797 30-03-2015 16:20:17 10.3 C 63 %
798 30-03-2015 16:32:17 10.2 C 62 %
799 30-03-2015 16:44:17 10.3 C 63 %
800 30-03-2015 16:56:17 10.3 C 62 %
Sensor: Nr:Datum:Temp:Feuchte:
G-T/H 801 30-03-2015 17:08:17 10.2 C 62 %
802 30-03-2015 17:20:17 10.3 C 62 %
803 30-03-2015 17:32:17 10.3 C 62 %
804 30-03-2015 17:44:17 10.3 C 60 %
805 30-03-2015 17:56:17 10.3 C 60 %
806 30-03-2015 18:08:17 10.3 C 60 %
807 30-03-2015 18:20:17 10.2 C 58 %
808 30-03-2015 18:32:17 10.2 C 57 %
809 30-03-2015 18:44:17 10.3 C 58 %
810 30-03-2015 18:56:17 10.3 C 59 %
811 30-03-2015 19:08:17 10.3 C 60 %
812 30-03-2015 19:20:17 10.3 C 60 %
813 30-03-2015 19:32:17 10.3 C 61 %
814 30-03-2015 19:44:17 10.3 C 61 %
815 30-03-2015 19:56:17 10.3 C 60 %
816 30-03-2015 20:08:17 10.2 C 59 %
817 30-03-2015 20:20:17 10.1 C 57 %
818 30-03-2015 20:32:17 10.2 C 58 %
819 30-03-2015 20:44:17 10.2 C 59 %
820 30-03-2015 20:56:17 10.2 C 59 %
821 30-03-2015 21:08:17 10.2 C 60 %
822 30-03-2015 21:20:17 10.2 C 60 %
823 30-03-2015 21:32:17 10.2 C 60 %
824 30-03-2015 21:44:17 10.2 C 61 %
825 30-03-2015 21:56:17 10.1 C 61 %
Sensor: Nr:Datum:Temp:Feuchte:
G-T/H 826 30-03-2015 22:08:17 10 C 60 %
827 30-03-2015 22:20:17 10 C 60 %
828 30-03-2015 22:32:17 9.9 C 60 %
829 30-03-2015 22:44:17 10 C 59 %
830 30-03-2015 22:56:17 10 C 60 %
831 30-03-2015 23:08:17 10 C 60 %
832 30-03-2015 23:20:17 10.1 C 60 %
833 30-03-2015 23:32:17 10.1 C 61 %
834 30-03-2015 23:44:17 10.1 C 61 %
835 30-03-2015 23:56:17 10.1 C 61 %
836 31-03-2015 00:08:17 10.1 C 61 %
837 31-03-2015 00:20:17 10.1 C 62 %
838 31-03-2015 00:32:17 10.1 C 62 %
839 31-03-2015 00:44:17 10.1 C 62 %
840 31-03-2015 00:56:17 10.1 C 62 %
841 31-03-2015 01:08:17 10.1 C 63 %
842 31-03-2015 01:20:17 10.1 C 63 %
843 31-03-2015 01:32:17 10.1 C 63 %
844 31-03-2015 01:44:17 10.1 C 63 %
845 31-03-2015 01:56:17 10.1 C 63 %
846 31-03-2015 02:08:17 10.1 C 64 %
847 31-03-2015 02:20:17 10.1 C 64 %
848 31-03-2015 02:32:17 10.1 C 64 %
849 31-03-2015 02:44:17 10.1 C 64 %
850 31-03-2015 02:56:17 10.1 C 64 %
Sensor: Nr:Datum:Temp:Feuchte:
G-T/H 851 31-03-2015 03:08:17 10.1 C 64 %
852 31-03-2015 03:20:17 10.1 C 64 %
853 31-03-2015 03:32:17 10.1 C 65 %
854 31-03-2015 03:44:17 10 C 65 %
855 31-03-2015 03:56:17 10 C 65 %
856 31-03-2015 04:08:17 10.1 C 65 %
857 31-03-2015 04:20:17 10 C 65 %
858 31-03-2015 04:32:17 10.1 C 65 %
859 31-03-2015 04:44:17 10.1 C 66 %
860 31-03-2015 04:56:17 10.1 C 66 %
861 31-03-2015 05:08:17 10.1 C 66 %
862 31-03-2015 05:20:17 10.1 C 66 %
863 31-03-2015 05:32:17 10.1 C 66 %
864 31-03-2015 05:44:17 10.1 C 66 %
865 31-03-2015 05:56:17 10.1 C 66 %
866 31-03-2015 06:08:17 10.1 C 66 %
867 31-03-2015 06:20:17 10.1 C 66 %
868 31-03-2015 06:32:17 10.1 C 66 %
869 31-03-2015 06:44:17 10.1 C 67 %
870 31-03-2015 06:56:17 10.1 C 67 %
871 31-03-2015 07:08:17 10.2 C 67 %
872 31-03-2015 07:20:17 10.2 C 67 %
873 31-03-2015 07:32:17 10.2 C 67 %
874 31-03-2015 07:44:17 10.2 C 67 %
875 31-03-2015 07:56:17 10.2 C 67 %
Sensor: Nr:Datum:Temp:Feuchte:
G-T/H 876 31-03-2015 08:08:17 10.1 C 67 %
877 31-03-2015 08:20:17 10.2 C 67 %
878 31-03-2015 08:32:17 10.2 C 67 %
879 31-03-2015 08:44:17 10.2 C 67 %
880 31-03-2015 08:56:17 10.2 C 67 %
881 31-03-2015 09:08:17 10.2 C 67 %
882 31-03-2015 09:20:17 10.2 C 67 %
883 31-03-2015 09:32:17 10.2 C 67 %
884 31-03-2015 09:44:17 10.2 C 68 %
885 31-03-2015 09:56:17 10.2 C 68 %
886 31-03-2015 10:08:17 10.2 C 68 %
887 31-03-2015 10:20:17 10.3 C 68 %
888 31-03-2015 10:32:17 10.3 C 68 %
889 31-03-2015 10:44:17 10.3 C 68 %
890 31-03-2015 10:56:17 10.4 C 68 %
891 31-03-2015 11:08:17 10.4 C 68 %
892 31-03-2015 11:20:17 10.4 C 68 %
893 31-03-2015 11:32:17 10.4 C 68 %
894 31-03-2015 11:44:17 10.4 C 68 %
895 31-03-2015 11:56:17 10.4 C 68 %
896 31-03-2015 12:08:17 10.4 C 68 %
897 31-03-2015 12:20:17 10.4 C 68 %
898 31-03-2015 12:32:17 10.4 C 68 %
899 31-03-2015 12:44:17 10.4 C 68 %
900 31-03-2015 12:56:17 10.4 C 68 %
Sensor: Nr:Datum:Temp:Feuchte:
G-T/H 901 31-03-2015 13:08:17 10.4 C 68 %
902 31-03-2015 13:20:17 10.4 C 68 %
903 31-03-2015 13:32:17 10.4 C 68 %
904 31-03-2015 13:44:17 10.4 C 68 %
905 31-03-2015 13:56:17 10.4 C 68 %
906 31-03-2015 14:08:17 10.4 C 68 %
907 31-03-2015 14:20:17 10.5 C 68 %
908 31-03-2015 14:32:17 10.5 C 68 %
909 31-03-2015 14:44:17 10.5 C 68 %
910 31-03-2015 14:56:17 10.5 C 68 %
911 31-03-2015 15:08:17 10.5 C 68 %
912 31-03-2015 15:20:17 10.4 C 68 %
913 31-03-2015 15:32:17 10.5 C 68 %
914 31-03-2015 15:44:17 10.5 C 68 %
915 31-03-2015 15:56:17 10.5 C 68 %
916 31-03-2015 16:08:17 10.5 C 68 %
917 31-03-2015 16:20:17 10.5 C 68 %
918 31-03-2015 16:32:17 10.5 C 68 %
919 31-03-2015 16:44:17 10.5 C 68 %
920 31-03-2015 16:56:17 10.6 C 69 %
921 31-03-2015 17:08:17 10.5 C 68 %
922 31-03-2015 17:20:17 10.5 C 68 %
923 31-03-2015 17:32:17 10.6 C 68 %
924 31-03-2015 17:44:17 10.5 C 67 %
925 31-03-2015 17:56:17 10.6 C 66 %
Sensor: Nr:Datum:Temp:Feuchte:
G-T/H 926 31-03-2015 18:08:17 10.5 C 66 %
927 31-03-2015 18:20:17 10.5 C 65 %
928 31-03-2015 18:32:18 10.5 C 64 %
929 31-03-2015 18:44:18 10.5 C 63 %
930 31-03-2015 18:56:17 10.4 C 61 %
931 31-03-2015 19:08:17 10.4 C 60 %
932 31-03-2015 19:20:17 10.4 C 59 %
933 31-03-2015 19:32:17 10.4 C 58 %
934 31-03-2015 19:44:17 10.4 C 58 %
935 31-03-2015 19:56:17 10.4 C 59 %
936 31-03-2015 20:08:17 10.4 C 60 %
937 31-03-2015 20:20:17 10.4 C 60 %
938 31-03-2015 20:32:17 10.4 C 60 %
939 31-03-2015 20:44:17 10.2 C 58 %
940 31-03-2015 20:56:17 10.3 C 58 %
941 31-03-2015 21:08:17 10.3 C 58 %
942 31-03-2015 21:20:17 10.4 C 59 %
943 31-03-2015 21:32:17 10.3 C 60 %
944 31-03-2015 21:44:17 10.3 C 60 %
945 31-03-2015 21:56:17 10.3 C 61 %
946 31-03-2015 22:08:17 10.3 C 61 %
947 31-03-2015 22:20:17 10.3 C 61 %
948 31-03-2015 22:32:17 10.3 C 62 %
949 31-03-2015 22:44:17 10.3 C 62 %
950 31-03-2015 22:56:17 10.3 C 62 %
Sensor: Nr:Datum:Temp:Feuchte:
G-T/H 951 31-03-2015 23:08:17 10.3 C 62 %
952 31-03-2015 23:20:17 10.3 C 63 %
953 31-03-2015 23:32:17 10.3 C 63 %
954 31-03-2015 23:44:17 10.3 C 63 %
955 31-03-2015 23:56:17 10.2 C 63 %
956 01-04-2015 00:08:17 10.2 C 63 %
957 01-04-2015 00:20:17 10.2 C 63 %
958 01-04-2015 00:32:17 10.1 C 63 %
959 01-04-2015 00:44:17 10.2 C 63 %
960 01-04-2015 00:56:17 10.2 C 63 %
961 01-04-2015 01:08:17 10.2 C 63 %
962 01-04-2015 01:20:17 10.1 C 63 %
963 01-04-2015 01:32:17 10.1 C 64 %
964 01-04-2015 01:44:17 10.1 C 64 %
965 01-04-2015 01:56:17 10.1 C 64 %
966 01-04-2015 02:08:17 10.1 C 64 %
967 01-04-2015 02:20:17 10.1 C 64 %
968 01-04-2015 02:32:17 10 C 64 %
969 01-04-2015 02:44:17 10 C 64 %
970 01-04-2015 02:56:17 10 C 64 %
971 01-04-2015 03:08:17 10 C 64 %
972 01-04-2015 03:20:17 10 C 64 %
973 01-04-2015 03:32:17 10 C 64 %
974 01-04-2015 03:44:17 9.9 C 65 %
975 01-04-2015 03:56:17 9.9 C 65 %
Sensor: Nr:Datum:Temp:Feuchte:
G-T/H 976 01-04-2015 04:08:17 9.9 C 65 %
977 01-04-2015 04:20:17 9.9 C 65 %
978 01-04-2015 04:32:18 9.8 C 65 %
979 01-04-2015 04:44:18 9.8 C 65 %
980 01-04-2015 04:56:17 9.8 C 65 %
981 01-04-2015 05:08:17 9.8 C 65 %
982 01-04-2015 05:20:17 9.8 C 65 %
983 01-04-2015 05:32:17 9.7 C 65 %
984 01-04-2015 05:44:17 9.7 C 65 %
985 01-04-2015 05:56:17 9.7 C 65 %
986 01-04-2015 06:08:17 9.6 C 65 %
987 01-04-2015 06:20:17 9.6 C 64 %
988 01-04-2015 06:32:17 9.5 C 63 %
989 01-04-2015 06:44:17 9.4 C 62 %
990 01-04-2015 06:56:17 9.3 C 61 %
991 01-04-2015 07:08:17 9.3 C 61 %
992 01-04-2015 07:20:17 9.2 C 60 %
993 01-04-2015 07:32:17 9.2 C 60 %
994 01-04-2015 07:44:17 9.2 C 60 %
995 01-04-2015 07:56:17 9.2 C 60 %
996 01-04-2015 08:08:17 9.2 C 61 %
997 01-04-2015 08:20:17 9.2 C 61 %
998 01-04-2015 08:32:17 9.2 C 62 %
999 01-04-2015 08:44:17 9.2 C 62 %
1000 01-04-2015 08:56:17 9.2 C 62 %
Sensor: Nr:Datum:Temp:Feuchte:
G-T/H 1001 01-04-2015 09:08:17 9.2 C 63 %
1002 01-04-2015 09:20:17 9.2 C 63 %
1003 01-04-2015 09:32:18 9.2 C 63 %
1004 01-04-2015 09:44:18 9.3 C 63 %
1005 01-04-2015 09:56:17 9.2 C 63 %
1006 01-04-2015 10:08:17 9.2 C 62 %
1007 01-04-2015 10:20:17 9.1 C 62 %
1008 01-04-2015 10:32:17 9.1 C 61 %
1009 01-04-2015 10:44:17 9.1 C 60 %
1010 01-04-2015 10:56:17 9.1 C 60 %
1011 01-04-2015 11:08:17 9.1 C 61 %
1012 01-04-2015 11:20:17 9.2 C 61 %
1013 01-04-2015 11:32:17 9.2 C 61 %
1014 01-04-2015 11:44:17 9.2 C 62 %
1015 01-04-2015 11:56:17 9.2 C 61 %
1016 01-04-2015 12:08:17 9.1 C 61 %
1017 01-04-2015 12:20:17 9.1 C 60 %
1018 01-04-2015 12:32:17 9.1 C 60 %
1019 01-04-2015 12:44:17 9.2 C 61 %
1020 01-04-2015 12:56:17 9.2 C 61 %
1021 01-04-2015 13:08:17 9.2 C 61 %
1022 01-04-2015 13:20:17 9.1 C 60 %
1023 01-04-2015 13:32:17 9.2 C 60 %
1024 01-04-2015 13:44:17 9.1 C 59 %
1025 01-04-2015 13:56:17 9.2 C 59 %
Sensor: Nr:Datum:Temp:Feuchte:
G-T/H 1026 01-04-2015 14:08:17 9.2 C 59 %
1027 01-04-2015 14:20:17 9.2 C 60 %
1028 01-04-2015 14:32:17 9.2 C 60 %
1029 01-04-2015 14:44:17 9.3 C 61 %
1030 01-04-2015 14:56:17 9.3 C 61 %
1031 01-04-2015 15:08:17 9.3 C 61 %
1032 01-04-2015 15:20:17 9.3 C 62 %
1033 01-04-2015 15:32:17 9.3 C 62 %
1034 01-04-2015 15:44:17 9.3 C 62 %
1035 01-04-2015 15:56:17 9.3 C 62 %
1036 01-04-2015 16:08:17 9.3 C 63 %
1037 01-04-2015 16:20:17 9.3 C 63 %
1038 01-04-2015 16:32:17 9.3 C 63 %
1039 01-04-2015 16:44:17 9.3 C 63 %
1040 01-04-2015 16:56:17 9.4 C 63 %
1041 01-04-2015 17:08:17 9.3 C 61 %
1042 01-04-2015 17:20:17 9.3 C 60 %
1043 01-04-2015 17:32:17 9.2 C 60 %
1044 01-04-2015 17:44:17 9.3 C 59 %
1045 01-04-2015 17:56:17 9.3 C 59 %
1046 01-04-2015 18:08:17 9.3 C 59 %
1047 01-04-2015 18:20:17 9.3 C 60 %
1048 01-04-2015 18:32:17 9.3 C 60 %
1049 01-04-2015 18:44:17 9.4 C 60 %
1050 01-04-2015 18:56:17 9.4 C 60 %
Sensor: Nr:Datum:Temp:Feuchte:
G-T/H 1051 01-04-2015 19:08:17 9.4 C 61 %
1052 01-04-2015 19:20:17 9.4 C 61 %
1053 01-04-2015 19:32:17 9.4 C 60 %
1054 01-04-2015 19:44:17 9.3 C 59 %
1055 01-04-2015 19:56:17 9.4 C 58 %
1056 01-04-2015 20:08:17 9.4 C 59 %
1057 01-04-2015 20:20:17 9.4 C 59 %
1058 01-04-2015 20:32:17 9.4 C 60 %
1059 01-04-2015 20:44:17 9.4 C 60 %
1060 01-04-2015 20:56:17 9.4 C 60 %
1061 01-04-2015 21:08:17 9.4 C 61 %
1062 01-04-2015 21:20:17 9.4 C 61 %
1063 01-04-2015 21:32:17 9.3 C 60 %
1064 01-04-2015 21:44:17 9.3 C 60 %
1065 01-04-2015 21:56:17 9.3 C 60 %
1066 01-04-2015 22:08:17 9.3 C 60 %
1067 01-04-2015 22:20:17 9.3 C 60 %
1068 01-04-2015 22:32:18 9.3 C 60 %
1069 01-04-2015 22:44:18 9.3 C 61 %
1070 01-04-2015 22:56:17 9.3 C 61 %
1071 01-04-2015 23:08:17 9.3 C 61 %
1072 01-04-2015 23:20:17 9.3 C 61 %
1073 01-04-2015 23:32:17 9.3 C 62 %
1074 01-04-2015 23:44:17 9.3 C 62 %
1075 01-04-2015 23:56:17 9.3 C 62 %
Sensor: Nr:Datum:Temp:Feuchte:
G-T/H 1076 02-04-2015 00:08:17 9.3 C 62 %
1077 02-04-2015 00:20:17 9.3 C 62 %
1078 02-04-2015 00:32:17 9.3 C 62 %
1079 02-04-2015 00:44:17 9.3 C 62 %
1080 02-04-2015 00:56:17 9.3 C 63 %
1081 02-04-2015 01:08:17 9.3 C 63 %
1082 02-04-2015 01:20:17 9.2 C 63 %
1083 02-04-2015 01:32:17 9.3 C 63 %
1084 02-04-2015 01:44:17 9.3 C 63 %
1085 02-04-2015 01:56:16 9.2 C 63 %
1086 02-04-2015 02:08:17 9.2 C 63 %
1087 02-04-2015 02:20:17 9.3 C 63 %
1088 02-04-2015 02:32:17 9.2 C 63 %
1089 02-04-2015 02:44:17 9.2 C 63 %
1090 02-04-2015 02:56:17 9.2 C 63 %
1091 02-04-2015 03:08:17 9.2 C 64 %
1092 02-04-2015 03:20:17 9.2 C 64 %
1093 02-04-2015 03:32:17 9.2 C 64 %
1094 02-04-2015 03:44:17 9.2 C 64 %
1095 02-04-2015 03:56:17 9.2 C 64 %
1096 02-04-2015 04:08:17 9.2 C 64 %
1097 02-04-2015 04:20:17 9.2 C 64 %
1098 02-04-2015 04:32:17 9.2 C 64 %
1099 02-04-2015 04:44:17 9.2 C 64 %
1100 02-04-2015 04:56:16 9.2 C 64 %
Sensor: Nr:Datum:Temp:Feuchte:
G-T/H 1101 02-04-2015 05:08:17 9.1 C 64 %
1102 02-04-2015 05:20:17 9.1 C 64 %
1103 02-04-2015 05:32:17 9.1 C 64 %
1104 02-04-2015 05:44:17 9.1 C 64 %
1105 02-04-2015 05:56:17 9.1 C 65 %
1106 02-04-2015 06:08:17 9.1 C 65 %
1107 02-04-2015 06:20:17 9.1 C 65 %
1108 02-04-2015 06:32:17 9.1 C 65 %
1109 02-04-2015 06:44:17 9.1 C 65 %
1110 02-04-2015 06:56:17 9.1 C 65 %
1111 02-04-2015 07:08:17 9.1 C 65 %
1112 02-04-2015 07:20:17 9.1 C 65 %
1113 02-04-2015 07:32:17 9.1 C 65 %
1114 02-04-2015 07:44:17 9.1 C 65 %
1115 02-04-2015 07:56:17 9.1 C 65 %
1116 02-04-2015 08:08:17 9.1 C 65 %
1117 02-04-2015 08:20:17 9 C 65 %
1118 02-04-2015 08:32:17 9 C 65 %
1119 02-04-2015 08:44:17 9 C 65 %
1120 02-04-2015 08:56:17 9 C 65 %
1121 02-04-2015 09:08:17 9 C 65 %
1122 02-04-2015 09:20:17 9 C 65 %
1123 02-04-2015 09:32:17 9 C 65 %
1124 02-04-2015 09:44:17 9 C 65 %
1125 02-04-2015 09:56:17 9 C 66 %
Sensor: Nr:Datum:Temp:Feuchte:
G-T/H 1126 02-04-2015 10:08:17 9 C 66 %
1127 02-04-2015 10:20:17 9 C 66 %
1128 02-04-2015 10:32:17 9 C 66 %
1129 02-04-2015 10:44:17 9 C 66 %
1130 02-04-2015 10:56:17 9 C 66 %
1131 02-04-2015 11:08:17 9 C 66 %
1132 02-04-2015 11:20:17 9 C 66 %
1133 02-04-2015 11:32:17 9 C 66 %
1134 02-04-2015 11:44:17 9 C 66 %
1135 02-04-2015 11:56:17 9 C 66 %
1136 02-04-2015 12:08:17 9 C 66 %
1137 02-04-2015 12:20:17 9 C 66 %
1138 02-04-2015 12:32:17 9 C 65 %
1139 02-04-2015 12:44:17 9 C 65 %
1140 02-04-2015 12:56:17 9 C 65 %
1141 02-04-2015 13:08:17 9 C 65 %
1142 02-04-2015 13:20:17 9 C 65 %
1143 02-04-2015 13:32:17 9 C 65 %
1144 02-04-2015 13:44:17 9 C 65 %
1145 02-04-2015 13:56:17 9 C 63 %
1146 02-04-2015 14:08:17 9 C 63 %
1147 02-04-2015 14:20:17 9 C 62 %
1148 02-04-2015 14:32:17 9 C 62 %
1149 02-04-2015 14:44:18 9 C 62 %
1150 02-04-2015 14:56:17 9 C 62 %
Sensor: Nr:Datum:Temp:Feuchte:
G-T/H 1151 02-04-2015 15:08:17 9 C 62 %
1152 02-04-2015 15:20:17 9 C 63 %
1153 02-04-2015 15:32:17 9.1 C 63 %
1154 02-04-2015 15:44:17 9.1 C 62 %
1155 02-04-2015 15:56:17 9.1 C 61 %
1156 02-04-2015 16:08:17 9.1 C 60 %
1157 02-04-2015 16:20:17 9.1 C 59 %
1158 02-04-2015 16:32:17 9.1 C 58 %
1159 02-04-2015 16:44:17 9.1 C 58 %
1160 02-04-2015 16:56:17 9.1 C 59 %
1161 02-04-2015 17:08:17 9.1 C 59 %
1162 02-04-2015 17:20:17 9.1 C 59 %
1163 02-04-2015 17:32:17 9.2 C 60 %
1164 02-04-2015 17:44:17 9.2 C 60 %
1165 02-04-2015 17:56:17 9.2 C 60 %
1166 02-04-2015 18:08:17 9.2 C 61 %
1167 02-04-2015 18:20:17 9.2 C 61 %
1168 02-04-2015 18:32:17 9.2 C 60 %
1169 02-04-2015 18:44:17 9.2 C 59 %
1170 02-04-2015 18:56:17 9.2 C 58 %
1171 02-04-2015 19:08:17 9.2 C 58 %
1172 02-04-2015 19:20:17 9.3 C 59 %
1173 02-04-2015 19:32:17 9.3 C 59 %
1174 02-04-2015 19:44:17 9.3 C 60 %
1175 02-04-2015 19:56:17 9.2 C 60 %
Sensor: Nr:Datum:Temp:Feuchte:
G-T/H 1176 02-04-2015 20:08:17 9.2 C 60 %
1177 02-04-2015 20:20:17 9.3 C 61 %
1178 02-04-2015 20:32:17 9.3 C 61 %
1179 02-04-2015 20:44:17 9.2 C 60 %
1180 02-04-2015 20:56:17 9.2 C 59 %
1181 02-04-2015 21:08:17 9.2 C 59 %
1182 02-04-2015 21:20:17 9.2 C 59 %
1183 02-04-2015 21:32:17 9.2 C 60 %
1184 02-04-2015 21:44:17 9.2 C 60 %
1185 02-04-2015 21:56:17 9.2 C 60 %
1186 02-04-2015 22:08:17 9.2 C 60 %
1187 02-04-2015 22:20:17 9.2 C 61 %
1188 02-04-2015 22:32:17 9.2 C 61 %
1189 02-04-2015 22:44:17 9.2 C 60 %
1190 02-04-2015 22:56:17 9.1 C 60 %
1191 02-04-2015 23:08:17 9.1 C 59 %
1192 02-04-2015 23:20:17 9.1 C 59 %
1193 02-04-2015 23:32:17 9.1 C 60 %
1194 02-04-2015 23:44:17 9.1 C 60 %
1195 02-04-2015 23:56:17 9.1 C 60 %
1196 03-04-2015 00:08:18 9.2 C 60 %
1197 03-04-2015 00:20:17 9.1 C 61 %
1198 03-04-2015 00:32:17 9.1 C 61 %
1199 03-04-2015 00:44:17 9.1 C 61 %
1200 03-04-2015 00:56:17 9.1 C 61 %
Sensor: Nr:Datum:Temp:Feuchte:
G-T/H 1201 03-04-2015 01:08:17 9.1 C 61 %
1202 03-04-2015 01:20:17 9.1 C 61 %
1203 03-04-2015 01:32:17 9.1 C 62 %
1204 03-04-2015 01:44:17 9.1 C 62 %
1205 03-04-2015 01:56:17 9.1 C 62 %
1206 03-04-2015 02:08:17 9.1 C 62 %
1207 03-04-2015 02:20:17 9 C 62 %
1208 03-04-2015 02:32:17 9.1 C 62 %